[[{"header":{"parameterUnit":"m.s-1","parameterCategory":1,"la1":30.6,"la2":29.2853,"lo1":-89.7004,"lo2":-87.6739,"dy":0.0162,"dx":0.0183,"nx":112,"ny":82,"refTime":"2025-01-08T06:00:00:Z","depth":0,"parameterNumber":2,"parameterNumberName":"U-component_of_WINDS"},"data":[0.0,0.0,0.0,0.0,0.0,0.0,0.0,0.0,0.0,0.0,0.0,0.0,0.0,0.0,0.0,0.0,0.0,0.0,0.0,0.0,0.0,0.0,0.0,0.0,0.0,0.0,0.0,0.0,0.0,0.0,0.0,0.0,0.0,0.0,0.0,0.0,0.0,0.0,0.0,0.0,0.0,0.0,0.0,0.0,0.0,0.0,0.0,0.0,0.0,0.0,0.0,0.0,0.0,0.0,0.0,0.0,0.0,0.0,0.0,0.0,0.0,0.0,0.0,0.0,0.0,0.0,0.0,0.0,0.0,0.0,0.0,0.0,0.0,0.0,0.0,0.0,0.0,0.0,0.0,0.0,0.0,0.0,0.0,0.0,0.0,0.0,0.0,0.0,0.0,0.0,3.5032,4.0473,4.531,4.8462,4.9152,4.5803,4.2777,4.0623,0.0,0.0,0.0,0.0,0.0,0.0,0.0,0.0,0.0,0.0,0.0,0.0,0.0,0.0,0.0,0.0,0.0,0.0,0.0,0.0,0.0,0.0,0.0,0.0,0.0,0.0,0.0,0.0,0.0,0.0,0.0,0.0,0.0,0.0,0.0,0.0,0.0,0.0,0.0,0.0,0.0,0.0,0.0,0.0,0.0,0.0,0.0,0.0,0.0,0.0,0.0,0.0,0.0,0.0,0.0,0.0,0.0,0.0,0.0,0.0,0.0,0.0,0.0,0.0,0.0,0.0,0.0,0.0,0.0,0.0,0.0,0.0,0.0,0.0,0.0,0.0,0.0,0.0,0.0,0.0,0.0,0.0,0.0,0.0,0.0,0.0,0.0,0.0,0.0,0.0,0.0,0.0,0.0,0.0,0.0,0.0,0.0,0.0,0.0,0.0,0.0,0.0,0.0,0.0,3.795,4.5765,4.907,5.0558,5.0145,4.7798,4.4662,4.0739,0.0,0.0,0.0,0.0,0.0,0.0,0.0,0.0,0.0,0.0,0.0,0.0,0.0,0.0,0.0,0.0,0.0,0.0,0.0,0.0,0.0,0.0,0.0,0.0,0.0,0.0,0.0,0.0,0.0,0.0,0.0,0.0,0.0,0.0,0.0,0.0,0.0,0.0,0.0,0.0,0.0,0.0,0.0,0.0,0.0,0.0,0.0,0.0,0.0,0.0,0.0,0.0,0.0,0.0,0.0,0.0,0.0,0.0,0.0,0.0,0.0,0.0,0.0,0.0,0.0,0.0,0.0,0.0,0.0,0.0,0.0,0.0,0.0,0.0,0.0,0.0,0.0,0.0,0.0,0.0,0.0,0.0,0.0,0.0,0.0,0.0,0.0,0.0,0.0,0.0,0.0,0.0,0.0,0.0,0.0,0.0,0.0,0.0,0.0,0.0,0.0,0.0,0.0,3.7602,4.2543,4.7872,5.0572,5.1701,5.1023,4.845,4.5278,4.1431,3.5622,0.0,0.0,0.0,0.0,0.0,0.0,0.0,0.0,0.0,0.0,0.0,0.0,0.0,0.0,0.0,0.0,0.0,0.0,0.0,0.0,0.0,0.0,0.0,0.0,0.0,0.0,0.0,0.0,0.0,0.0,0.0,0.0,0.0,0.0,0.0,0.0,0.0,0.0,0.0,0.0,0.0,0.0,0.0,0.0,0.0,0.0,0.0,0.0,0.0,0.0,0.0,0.0,0.0,0.0,0.0,0.0,0.0,0.0,0.0,0.0,0.0,0.0,0.0,0.0,0.0,0.0,0.0,0.0,0.0,0.0,0.0,0.0,0.0,0.0,0.0,0.0,0.0,0.0,0.0,0.0,0.0,0.0,0.0,0.0,0.0,0.0,0.0,0.0,0.0,0.0,0.0,0.0,0.0,0.0,0.0,0.0,0.0,0.0,0.0,0.0,0.0,0.0,4.1423,4.5978,4.9052,5.1508,5.2603,5.1888,4.8969,4.5663,4.2047,3.6199,0.0,0.0,0.0,0.0,0.0,0.0,0.0,0.0,0.0,0.0,0.0,0.0,0.0,0.0,0.0,0.0,0.0,0.0,0.0,0.0,0.0,0.0,0.0,0.0,0.0,0.0,0.0,0.0,0.0,0.0,0.0,0.0,0.0,0.0,0.0,0.0,0.0,0.0,0.0,0.0,0.0,0.0,0.0,0.0,0.0,0.0,0.0,0.0,0.0,0.0,0.0,0.0,0.0,0.0,0.0,0.0,0.0,0.0,0.0,0.0,0.0,0.0,0.0,0.0,0.0,0.0,0.0,0.0,0.0,0.0,0.0,0.0,0.0,0.0,0.0,0.0,0.0,0.0,0.0,0.0,0.0,0.0,0.0,0.0,0.0,0.0,0.0,0.0,0.0,0.0,0.0,0.0,0.0,0.0,0.0,0.0,0.0,0.0,0.0,0.0,0.0,0.0,4.1559,4.6268,5.0172,5.2466,5.3479,5.2839,4.9872,4.624,4.2047,3.6199,0.0,0.0,0.0,0.0,0.0,0.0,0.0,0.0,0.0,0.0,0.0,0.0,0.0,0.0,0.0,0.0,0.0,0.0,0.0,0.0,0.0,0.0,0.0,0.0,0.0,0.0,0.0,0.0,0.0,0.0,0.0,0.0,0.0,0.0,0.0,0.0,0.0,0.0,0.0,0.0,0.0,0.0,0.0,0.0,0.0,0.0,0.0,0.0,0.0,0.0,0.0,0.0,0.0,0.0,0.0,0.0,0.0,0.0,0.0,0.0,0.0,0.0,0.0,0.0,0.0,0.0,0.0,0.0,0.0,0.0,0.0,0.0,0.0,0.0,0.0,0.0,0.0,0.0,0.0,0.0,0.0,0.0,0.0,0.0,0.0,0.0,0.0,0.0,0.0,0.0,0.0,0.0,0.0,0.0,0.0,0.0,0.0,0.0,0.0,0.0,0.0,0.0,4.3059,4.7705,0.0,5.3395,5.418,5.2992,4.9949,4.6086,4.1277,0.0,0.0,0.0,0.0,0.0,0.0,0.0,0.0,0.0,0.0,0.0,0.0,0.0,0.0,0.0,0.0,0.0,0.0,0.0,0.0,0.0,0.0,0.0,0.0,0.0,0.0,0.0,0.0,0.0,0.0,0.0,0.0,0.0,0.0,0.0,0.0,0.0,0.0,0.0,0.0,0.0,0.0,0.0,0.0,0.0,0.0,0.0,0.0,0.0,0.0,0.0,0.0,0.0,0.0,0.0,0.0,0.0,0.0,0.0,0.0,0.0,0.0,0.0,0.0,0.0,0.0,0.0,0.0,0.0,0.0,0.0,0.0,0.0,0.0,0.0,0.0,0.0,0.0,0.0,0.0,0.0,0.0,0.0,0.0,0.0,0.0,0.0,0.0,0.0,0.0,0.0,0.0,0.0,0.0,0.0,0.0,0.0,0.0,0.0,0.0,0.0,0.0,3.871,4.4044,4.8587,0.0,5.3936,5.4575,5.31,4.9969,4.5932,4.0816,0.0,0.0,0.0,0.0,0.0,0.0,0.0,0.0,0.0,0.0,0.0,0.0,0.0,0.0,0.0,0.0,0.0,0.0,0.0,0.0,0.0,0.0,0.0,0.0,0.0,0.0,0.0,0.0,0.0,0.0,0.0,0.0,0.0,0.0,0.0,0.0,0.0,0.0,0.0,0.0,0.0,0.0,0.0,0.0,0.0,0.0,0.0,0.0,0.0,0.0,0.0,0.0,0.0,0.0,0.0,0.0,0.0,0.0,0.0,0.0,0.0,0.0,0.0,0.0,0.0,0.0,0.0,0.0,0.0,0.0,0.0,0.0,0.0,0.0,0.0,0.0,0.0,0.0,0.0,0.0,0.0,0.0,0.0,0.0,0.0,0.0,0.0,0.0,0.0,0.0,0.0,0.0,0.0,0.0,0.0,0.0,0.0,0.0,0.0,0.0,0.0,0.0,3.894,4.4251,4.8791,5.2049,5.4085,5.4639,5.3212,5.0048,4.5932,0.0,0.0,0.0,0.0,0.0,0.0,0.0,0.0,0.0,0.0,0.0,0.0,0.0,0.0,0.0,0.0,0.0,0.0,0.0,0.0,0.0,0.0,0.0,0.0,0.0,0.0,0.0,0.0,0.0,0.0,0.0,0.0,0.0,0.0,0.0,0.0,0.0,0.0,0.0,0.0,0.0,0.0,0.0,0.0,0.0,0.0,0.0,0.0,0.0,0.0,0.0,0.0,0.0,0.0,0.0,0.0,0.0,0.0,0.0,0.0,0.0,0.0,0.0,0.0,0.0,0.0,0.0,0.0,0.0,0.0,0.0,0.0,0.0,0.0,0.0,0.0,0.0,0.0,0.0,0.0,0.0,0.0,0.0,0.0,0.0,0.0,0.0,0.0,0.0,0.0,0.0,0.0,0.0,0.0,0.0,0.0,0.0,0.0,0.0,0.0,0.0,0.0,0.0,3.9829,4.5139,4.9421,5.2125,5.4112,5.4689,5.3212,5.0048,4.5932,4.0816,0.0,0.0,0.0,0.0,0.0,0.0,0.0,0.0,0.0,0.0,0.0,0.0,0.0,0.0,0.0,0.0,0.0,0.0,0.0,0.0,0.0,0.0,0.0,0.0,0.0,0.0,0.0,0.0,0.0,0.0,0.0,0.0,0.0,0.0,0.0,0.0,0.0,0.0,0.0,0.0,0.0,0.0,0.0,0.0,0.0,0.0,0.0,0.0,0.0,0.0,0.0,0.0,0.0,0.0,0.0,0.0,0.0,0.0,0.0,0.0,0.0,0.0,0.0,0.0,0.0,0.0,0.0,0.0,0.0,0.0,0.0,0.0,0.0,0.0,0.0,0.0,0.0,0.0,0.0,0.0,0.0,0.0,0.0,0.0,0.0,0.0,0.0,0.0,0.0,0.0,0.0,0.0,0.0,0.0,0.0,0.0,0.0,0.0,0.0,0.0,0.0,0.0,4.0338,4.5614,4.9851,5.221,5.4166,5.4713,5.3234,5.0375,4.6432,4.1354,0.0,0.0,0.0,0.0,0.0,0.0,0.0,0.0,0.0,0.0,0.0,0.0,0.0,0.0,0.0,0.0,0.0,0.0,0.0,0.0,0.0,0.0,0.0,0.0,0.0,0.0,0.0,0.0,0.0,0.0,0.0,0.0,0.0,0.0,0.0,0.0,0.0,0.0,0.0,0.0,0.0,0.0,0.0,0.0,0.0,0.0,0.0,0.0,0.0,0.0,0.0,0.0,0.0,0.0,0.0,0.0,0.0,0.0,0.0,0.0,0.0,0.0,0.0,0.0,0.0,0.0,0.0,0.0,0.0,0.0,0.0,0.0,0.0,0.0,0.0,0.0,0.0,0.0,0.0,0.0,0.0,0.0,0.0,0.0,0.0,0.0,0.0,0.0,0.0,0.0,0.0,0.0,0.0,0.0,0.0,0.0,0.0,0.0,0.0,0.0,0.0,0.0,4.0625,4.5897,5.0016,5.246,5.4256,5.4738,5.3336,5.0856,4.7278,4.2239,0.0,0.0,0.0,0.0,0.0,0.0,0.0,0.0,0.0,0.0,0.0,0.0,0.0,0.0,0.0,0.0,0.0,0.0,0.0,0.0,0.0,0.0,0.0,0.0,0.0,0.0,0.0,0.0,0.0,0.0,0.0,0.0,0.0,0.0,0.0,0.0,0.0,0.0,0.0,0.0,0.0,0.0,0.0,0.0,0.0,0.0,0.0,0.0,0.0,0.0,0.0,0.0,0.0,0.0,0.0,0.0,0.0,0.0,0.0,0.0,3.0751,0.0,0.0,0.0,0.0,0.0,0.0,0.0,0.0,0.0,0.0,0.0,0.0,0.0,0.0,0.0,0.0,0.0,0.0,0.0,0.0,0.0,0.0,0.0,0.0,0.0,0.0,0.0,0.0,0.0,0.0,0.0,0.0,0.0,0.0,0.0,0.0,0.0,0.0,0.0,0.0,0.0,4.1531,4.6301,5.0241,5.3242,5.4611,5.4738,5.3336,5.0856,4.7509,4.3085,3.8469,0.0,0.0,0.0,0.0,0.0,0.0,0.0,0.0,0.0,0.0,0.0,0.0,0.0,0.0,0.0,0.0,0.0,0.0,0.0,0.0,0.0,0.0,0.0,0.0,0.0,0.0,0.0,0.0,0.0,0.0,0.0,0.0,0.0,0.0,0.0,0.0,0.0,0.0,0.0,0.0,0.0,0.0,0.0,0.0,0.0,0.0,0.0,0.0,0.0,0.0,0.0,0.0,0.0,0.0,0.0,0.0,0.0,0.0,0.0,0.0,3.2398,0.0,0.0,0.0,0.0,0.0,0.0,0.0,0.0,0.0,0.0,0.0,0.0,0.0,0.0,0.0,0.0,0.0,0.0,0.0,0.0,0.0,0.0,0.0,0.0,0.0,0.0,0.0,0.0,0.0,0.0,0.0,0.0,0.0,0.0,0.0,0.0,0.0,0.0,0.0,0.0,4.2546,4.704,5.0778,5.3518,5.471,5.4738,5.3315,5.1625,4.8817,4.4586,4.0662,0.0,0.0,0.0,0.0,0.0,0.0,0.0,0.0,0.0,0.0,0.0,0.0,0.0,0.0,0.0,0.0,0.0,0.0,0.0,0.0,0.0,0.0,0.0,0.0,0.0,0.0,0.0,0.0,0.0,0.0,0.0,0.0,0.0,0.0,0.0,0.0,0.0,0.0,0.0,0.0,0.0,0.0,0.0,0.0,0.0,0.0,0.0,0.0,0.0,0.0,0.0,0.0,0.0,4.2125,4.3063,4.3828,4.3862,4.3953,4.3871,3.9492,3.704,3.5959,3.4381,0.0,0.0,0.0,0.0,0.0,0.0,0.0,0.0,0.0,0.0,0.0,0.0,0.0,0.0,0.0,0.0,0.0,0.0,0.0,0.0,0.0,0.0,0.0,0.0,3.8664,3.7154,0.0,0.0,0.0,0.0,0.0,0.0,0.0,0.0,0.0,0.0,0.0,0.0,4.3534,4.7856,5.1312,5.3747,5.477,5.4814,5.3546,5.249,5.0279,4.6509,4.3047,3.9392,0.0,0.0,0.0,0.0,0.0,0.0,0.0,0.0,0.0,0.0,0.0,0.0,0.0,0.0,0.0,0.0,0.0,0.0,0.0,0.0,0.0,0.0,0.0,0.0,0.0,0.0,0.0,0.0,0.0,0.0,0.0,0.0,2.6479,2.8428,0.0,0.0,0.0,0.0,0.0,0.0,0.0,0.0,0.0,0.0,0.0,0.0,0.0,3.9527,4.0499,4.2942,4.4302,4.4612,4.632,4.7261,4.7415,4.743,4.785,4.8502,4.7041,0.0,3.9615,3.8597,0.0,0.0,0.0,0.0,0.0,0.0,0.0,0.0,0.0,0.0,0.0,0.0,0.0,0.0,0.0,0.0,0.0,0.0,0.0,0.0,0.0,0.0,4.0666,4.2535,4.2899,4.2459,0.0,3.7079,3.361,3.3276,3.0809,0.0,0.0,0.0,0.0,0.0,0.0,0.0,4.4454,4.8197,5.157,5.4595,5.514,5.5044,5.4391,5.2836,5.1029,4.9029,4.5701,4.2547,3.9777,3.643,0.0,0.0,0.0,0.0,0.0,0.0,0.0,0.0,0.0,0.0,0.0,0.0,0.0,0.0,0.0,0.0,0.0,0.0,0.0,0.0,0.0,0.0,0.0,0.0,0.0,0.0,0.0,0.0,0.0,2.7304,2.9907,3.1712,3.1443,3.1109,0.0,0.0,0.0,0.0,0.0,0.0,0.0,0.0,0.0,4.1303,4.3347,4.4878,4.576,4.8286,4.9592,4.9677,5.1446,5.2295,5.2374,5.2376,5.2589,5.2878,5.205,5.0144,4.7355,4.4008,4.1377,3.9276,0.0,0.0,0.0,0.0,3.7909,3.8631,3.9071,3.947,0.0,3.9326,0.0,0.0,0.0,0.0,0.0,0.0,0.0,0.0,0.0,0.0,4.5109,4.6402,4.6729,4.6609,4.6183,4.3544,4.0291,0.0,3.4548,3.2674,3.2106,0.0,0.0,0.0,0.0,4.1291,4.6027,4.9231,5.2123,5.4814,5.5224,5.5071,5.4545,5.3797,5.2451,5.0259,4.826,4.5799,4.2761,3.9854,3.6738,0.0,0.0,0.0,0.0,0.0,0.0,0.0,0.0,0.0,0.0,0.0,0.0,0.0,0.0,0.0,0.0,0.0,0.0,0.0,0.0,0.0,0.0,0.0,0.0,0.0,0.0,0.0,0.0,3.0682,3.3101,3.4955,3.4735,3.4424,0.0,0.0,0.0,0.0,0.0,0.0,4.1474,4.2871,4.4633,4.6912,4.8426,4.9712,5.0849,5.2938,5.3996,5.4101,5.5599,5.6313,5.6374,5.6374,5.6374,5.6335,5.5742,5.4989,5.3793,4.8852,4.5863,4.4295,4.3465,4.273,4.2177,4.2753,4.3166,4.354,4.4093,4.4478,4.4612,4.4149,0.0,4.084,3.9965,0.0,0.0,0.0,0.0,4.2725,4.5014,4.7144,4.8872,4.9624,4.9951,5.0026,4.98,4.875,4.6369,0.0,3.8738,3.7076,3.6124,0.0,0.0,0.0,0.0,4.3627,4.7572,5.034,5.2757,5.489,5.5211,5.5143,5.4836,5.4643,5.3605,5.1452,5.0336,4.8279,4.5109,4.2722,3.9892,3.6531,0.0,0.0,0.0,0.0,0.0,0.0,0.0,0.0,0.0,0.0,0.0,0.0,0.0,0.0,0.0,0.0,0.0,0.0,0.0,0.0,0.0,0.0,0.0,0.0,0.0,0.0,0.0,0.0,0.0,3.7608,3.8439,0.0,0.0,0.0,0.0,4.001,4.235,4.4192,4.5189,4.7569,4.9739,5.1526,5.2431,5.372,5.5357,5.6319,5.6819,5.6797,5.772,5.8158,5.8174,5.8174,5.8174,5.8174,5.8135,5.7597,5.6467,5.2202,4.9856,4.8875,4.8012,4.7609,4.7495,4.7533,4.809,4.8808,4.8854,4.9394,4.9836,4.8241,4.5954,4.3607,4.2593,4.2208,0.0,0.0,4.4589,4.6263,4.7286,4.9537,5.1625,5.1736,5.2351,5.2679,5.1895,5.1568,5.0294,0.0,4.378,4.1706,4.0653,0.0,3.9398,4.0123,4.2865,4.5915,4.8676,5.1303,5.3499,5.4928,5.5211,5.5395,5.5626,5.4951,5.4084,5.314,5.1528,4.949,4.6858,4.5071,4.2514,3.9169,3.6531,0.0,0.0,0.0,0.0,0.0,0.0,0.0,0.0,0.0,0.0,0.0,0.0,0.0,0.0,0.0,0.0,0.0,0.0,0.0,0.0,0.0,0.0,0.0,0.0,0.0,0.0,0.0,0.0,4.1069,4.1975,0.0,4.3188,4.3269,4.3826,4.5245,4.6704,4.8356,5.0355,5.1854,5.3413,5.5143,5.6049,5.678,5.7357,5.8204,5.8627,5.8627,5.9511,5.9935,5.9911,5.9911,5.9911,5.9873,5.9335,5.8912,5.8427,5.6412,5.4682,5.3336,5.302,5.2861,5.2861,5.2861,5.3075,5.3327,5.3315,5.322,5.2797,5.1085,4.9834,4.8754,4.7198,4.7053,4.7472,4.7794,4.877,4.9959,5.0872,5.2291,5.349,5.3563,5.3793,5.393,5.3643,5.3105,5.2235,5.0894,4.8014,4.5513,4.4494,4.3577,4.3326,4.4373,4.5972,4.7938,5.0452,5.2119,5.3649,5.4966,5.5249,5.5472,5.5665,5.4951,5.4122,5.3255,5.1644,4.9798,4.778,4.6052,4.3785,4.0965,3.8408,3.5259,0.0,0.0,0.0,0.0,0.0,0.0,0.0,0.0,0.0,0.0,0.0,0.0,0.0,0.0,0.0,0.0,0.0,0.0,0.0,0.0,0.0,0.0,0.0,0.0,0.0,0.0,4.2716,4.4568,4.603,4.7088,4.7626,4.8183,4.9029,5.0163,5.1278,5.2661,5.4395,5.5318,5.6434,5.778,5.8396,5.8858,5.9127,5.9665,5.9935,5.9935,6.0512,6.0781,6.0781,6.0781,6.0781,6.0781,6.0204,5.9935,5.9911,5.9335,5.8434,5.728,5.672,5.6527,5.6527,5.6527,5.6527,5.6527,5.6527,5.5989,5.516,5.4007,5.3392,5.2811,5.1322,5.1185,5.1513,5.1239,5.1813,5.2686,5.3311,5.4161,5.4836,5.4874,5.4912,5.4912,5.4912,5.443,5.3968,5.364,5.1152,4.892,4.8217,4.7335,4.7061,4.8136,4.8971,5.0149,5.201,5.3118,5.4054,5.5038,5.5298,5.5395,5.5318,5.4797,5.3891,5.2469,5.1298,4.9817,4.778,4.6627,4.4956,4.2693,3.9583,3.6473,3.3311,0.0,0.0,0.0,0.0,0.0,0.0,0.0,0.0,0.0,0.0,0.0,0.0,0.0,0.0,0.0,0.0,0.0,0.0,0.0,0.0,0.0,0.0,0.0,3.9273,4.2852,4.6244,4.8029,5.0471,5.2049,5.2087,5.3587,5.4587,5.4626,5.6126,5.7049,5.7088,5.7896,5.8704,5.9511,5.955,5.9935,6.0781,6.0781,6.0781,6.0781,6.0781,6.0781,6.0781,6.0781,6.0781,6.0781,6.0781,6.0781,6.0781,6.0781,6.0781,6.0627,5.9004,5.8366,5.8366,5.8366,5.8366,5.8366,5.8366,5.7751,5.7082,5.7043,5.6406,5.5538,5.4776,5.4468,5.4237,5.3409,5.3793,5.4507,5.4507,5.5143,5.578,5.5742,5.5742,5.5742,5.5703,5.5703,5.5472,5.4682,5.3164,5.1973,5.178,5.0998,5.0612,5.1209,5.1849,0.0,5.3328,5.4183,5.4856,5.5172,5.5316,5.5143,5.4566,5.4489,5.3374,5.0856,5.0625,4.949,4.7006,4.687,4.6065,4.432,4.023,3.691,3.4428,0.0,0.0,0.0,0.0,0.0,0.0,0.0,0.0,0.0,0.0,0.0,0.0,0.0,0.0,0.0,0.0,0.0,0.0,0.0,0.0,0.0,4.0901,4.2986,4.2811,4.6474,4.9816,5.1567,5.3472,5.4895,5.5549,5.6011,5.6549,5.7203,5.7665,5.8204,5.8781,5.905,5.955,6.0435,6.0435,6.055,6.0781,6.0781,6.0781,6.0781,6.0781,6.0781,6.0781,6.0781,6.0781,6.0781,6.0781,6.0781,6.0781,6.0781,6.0781,6.0742,6.0296,6.0104,6.0104,6.0104,6.0104,6.0027,5.9396,5.9011,5.8704,5.8104,5.7758,5.7527,5.7297,5.7181,5.7165,5.6896,5.7011,5.7203,5.7242,5.7418,5.7422,5.6785,5.6648,5.6456,5.5818,5.5703,5.5626,5.5434,5.4972,5.4241,5.2931,5.2483,5.2516,5.3075,5.3302,0.0,5.442,5.4836,5.5102,5.5236,5.5431,5.528,5.4566,5.3916,5.2743,5.0818,4.9509,4.8256,4.6947,4.6313,4.5432,4.432,4.197,4.0408,0.0,0.0,0.0,0.0,0.0,0.0,0.0,0.0,0.0,0.0,0.0,0.0,0.0,0.0,0.0,0.0,0.0,0.0,0.0,0.0,0.0,0.0,4.471,4.7204,4.8375,5.0642,5.2854,5.4587,5.628,5.7473,5.8011,5.8396,5.8781,5.9319,5.9358,5.955,6.0012,6.0396,6.0819,6.132,6.1666,6.1858,6.1858,6.1858,6.1858,6.1858,6.1512,6.132,6.132,6.0973,6.0781,6.0781,6.0781,6.0781,6.0781,6.0781,6.0781,0.0,0.0,0.0,0.0,0.0,6.0781,6.0742,6.0204,6.0012,5.9973,5.9511,5.9358,5.9281,5.8896,5.8819,5.8742,5.8418,5.8303,5.8303,5.8319,5.8303,5.8149,5.7665,5.755,5.7418,5.6896,5.678,5.678,5.678,5.6494,0.0,5.4912,5.443,5.4276,5.4566,5.4571,5.4688,5.5047,5.5199,5.5309,5.5375,5.55,5.5318,5.4566,5.3705,0.0,0.0,0.0,4.8291,4.7447,4.6908,0.0,0.0,0.0,0.0,0.0,0.0,0.0,0.0,3.6947,3.7502,0.0,0.0,0.0,0.0,0.0,0.0,0.0,0.0,0.0,0.0,0.0,0.0,0.0,0.0,0.0,0.0,4.8414,5.197,5.4549,5.4968,5.5544,5.7088,5.8665,5.9665,5.9665,6.0358,6.0781,6.0781,6.0896,6.0935,6.0935,0.0,0.0,0.0,0.0,6.332,6.332,6.332,6.332,6.3281,6.2589,6.2243,6.2204,6.1435,6.1089,6.1089,6.1089,6.1012,6.0935,6.0935,6.0896,6.0781,6.0781,6.0781,6.0781,6.0781,6.0781,6.0781,6.0781,0.0,0.0,6.0781,6.0781,6.0666,5.9896,5.9665,5.9511,5.8781,5.8588,5.8588,5.8566,5.8566,5.8566,5.8443,5.8427,5.8434,5.8296,5.8319,5.8319,5.8319,5.7687,5.717,5.717,5.634,5.5665,5.5626,5.5562,5.553,5.5568,5.5568,5.5629,5.5797,0.0,0.0,5.472,5.3936,5.2724,5.0952,5.0008,4.9178,4.8428,4.839,4.8064,4.7353,4.7314,4.7006,4.6334,4.7184,4.7645,4.7684,4.419,4.3689,0.0,0.0,0.0,0.0,0.0,0.0,0.0,0.0,0.0,0.0,0.0,0.0,0.0,0.0,0.0,4.8837,5.1816,5.4664,5.7203,5.8127,5.8665,5.8973,5.9935,6.055,6.055,6.0704,6.0781,6.0781,6.1435,6.1858,6.1858,6.2627,6.3051,6.3075,6.3229,6.3306,6.332,6.332,6.332,6.3295,0.0,0.0,6.3051,6.2897,6.282,6.282,6.282,6.2435,6.1858,6.1858,6.1435,6.0781,6.0781,6.0781,6.0781,6.0781,6.0781,6.0781,6.0781,6.0781,6.0781,6.0781,6.0781,6.0781,6.0589,6.055,0.0,6.0358,6.0319,6.0319,6.0319,6.0319,6.0165,5.9427,5.9273,5.9081,5.8466,5.8274,5.8296,5.8296,5.8165,5.805,5.805,5.6742,5.5665,5.5626,5.5583,5.5791,5.6428,5.6582,5.6896,5.7615,5.773,5.7131,5.5588,5.5318,5.4185,5.1819,5.0895,5.0375,5.0183,5.0183,5.0106,4.999,4.999,5.0183,5.0664,5.1549,5.2338,5.2969,4.9452,4.8068,0.0,0.0,0.0,0.0,0.0,0.0,0.0,0.0,0.0,0.0,0.0,4.1783,4.3918,0.0,4.9567,5.2125,5.4724,5.7016,5.8649,5.9627,6.0165,6.0165,6.0512,6.0781,6.0781,6.1189,6.1458,6.1458,6.2252,6.269,6.2704,6.3474,6.396,6.396,6.4383,6.4589,6.4589,6.4589,6.4589,6.4628,6.4141,6.3949,6.3949,6.3488,6.332,6.332,6.3281,6.3075,6.269,6.2267,6.1843,6.142,6.0973,6.0781,6.0781,6.0781,6.0781,6.0781,6.0781,6.0781,6.0781,6.0781,6.0781,6.0781,6.0781,6.0781,6.0781,6.0781,6.0781,6.0781,6.0781,6.0781,6.0704,6.0258,6.0142,6.0027,5.9642,5.9565,5.955,5.955,5.9204,5.8896,5.8896,5.7857,5.6973,5.6956,5.6934,5.711,5.7478,5.7572,5.778,5.8204,5.828,5.7973,5.7104,5.6588,5.5609,5.3916,5.3415,5.3203,5.3203,5.3203,5.3203,5.3203,5.3203,5.3415,5.38,5.4667,5.534,5.5714,5.4408,5.3546,0.0,0.0,0.0,0.0,0.0,0.0,0.0,0.0,4.1546,4.17,4.4449,4.7104,4.7951,5.0721,5.3398,5.4978,5.7076,5.8809,5.965,6.0381,6.0781,6.0781,6.0781,6.0858,6.1012,6.1689,6.2175,6.2305,6.3099,6.3561,6.3551,6.4383,6.4845,6.4845,6.5513,6.5897,6.5897,6.5897,6.5897,6.5897,6.518,6.4872,6.4834,6.4141,6.3795,6.382,6.3628,6.3575,6.3498,6.2651,6.2329,6.2252,6.1574,6.1304,6.1266,6.0896,6.0781,6.0781,6.0781,6.0781,6.0781,6.0781,6.0781,6.0781,6.0781,6.0781,6.0781,6.0781,6.0781,6.0781,6.0781,6.0781,6.0781,6.0781,6.0781,6.0781,6.0781,6.0781,6.0781,6.0781,6.0242,5.9742,5.9742,5.9204,5.8665,5.8341,5.828,5.838,5.8501,5.855,5.8596,5.875,5.8788,5.8711,5.8558,5.7758,5.6956,5.6242,5.6181,5.6181,5.6181,5.6181,5.6181,5.6181,5.6181,5.6181,5.6181,5.7071,5.7489,5.7536,5.8366,5.8219,3.7368,3.6661,3.643,3.8161,3.9277,4.0162,0.0,0.0,4.524,4.6009,4.8854,5.1472,5.2319,5.4631,5.677,5.7713,5.8732,5.965,6.0512,6.0742,6.0781,6.0781,6.0781,6.1112,6.1905,6.2059,6.2382,6.3128,6.396,6.4422,6.446,6.5307,6.5743,6.5743,6.5859,6.5897,6.5897,6.5897,6.5897,6.5897,6.5782,6.5743,6.5743,6.5667,6.559,6.5551,6.4795,6.4449,6.4411,6.3512,6.3152,6.3161,6.3045,6.3007,6.2852,6.1343,6.0781,6.0781,6.0781,6.0781,6.0781,6.0781,6.0781,6.0781,6.0781,6.0781,6.0781,6.0781,6.0781,6.0781,6.0781,6.0781,6.0781,6.0781,6.0781,6.0781,6.0781,6.0781,6.0781,6.0781,6.0704,6.0666,6.0666,6.0589,6.0012,5.8511,5.8319,5.8588,5.9265,5.9373,5.9681,6.0435,6.0512,6.0219,5.9427,5.8619,5.8097,5.802,5.802,5.802,5.802,5.802,5.802,5.802,5.802,5.802,5.802,5.8812,5.9219,5.9235,6.0104,5.9681,3.9745,0.0,0.0,0.0,4.3227,4.5015,4.5368,4.7447,4.9489,5.0413,5.2454,5.44,5.5265,5.7097,5.8582,0.0,5.9711,6.0381,6.0742,6.0781,6.0781,6.0781,6.0781,6.1151,6.2021,6.2521,6.3176,6.3988,6.4859,6.5384,6.5384,6.5705,6.5897,6.5897,6.5897,6.5897,6.5897,6.5897,6.5897,6.5897,6.5897,6.5897,6.5897,6.5897,6.5897,6.5859,6.5513,6.5333,6.5295,6.4411,6.4051,6.4012,6.3512,6.332,6.3166,6.1997,6.1574,6.1497,6.0973,6.0781,6.0781,6.0781,6.0781,6.0781,6.0781,6.0781,6.0781,6.0781,6.0781,6.0781,6.0781,6.0781,6.0781,6.0781,6.0781,6.0781,6.0781,6.0781,6.0781,6.0781,6.0781,6.0781,6.0781,6.0781,6.055,5.9858,5.9742,5.9896,6.0204,6.0281,6.0396,6.0742,6.0781,6.0666,6.0296,5.995,5.9758,5.9758,5.9758,5.9758,5.9758,5.9758,5.9758,5.9758,5.9758,5.9758,5.9758,6.0104,6.0258,6.0258,6.0627,6.0704,4.2125,0.0,0.0,4.4537,4.7191,4.9521,4.9525,5.149,5.3494,5.4091,5.5594,5.6942,5.7576,5.8886,5.987,5.987,6.0404,6.0781,6.0781,6.0781,6.0781,6.0781,6.0781,6.1151,6.2021,6.2829,6.3652,6.4526,6.5436,6.5974,6.623,6.623,6.6346,6.6577,6.6384,6.623,6.623,6.6013,6.5897,6.5897,6.5897,6.5897,6.5897,6.5897,6.5897,6.5897,6.5897,6.5897,6.5859,6.5218,6.4949,6.491,6.427,6.4039,6.3924,6.3089,6.2613,6.2329,6.1689,6.1343,6.1151,6.1151,6.0973,6.0781,6.0781,6.0781,6.0781,6.0781,6.0781,6.0781,6.0781,6.0781,6.0781,6.0781,6.0781,6.0781,6.0781,6.0781,6.0781,6.0781,6.0781,6.0781,6.0781,6.0781,6.0781,6.0781,6.0781,6.0781,6.0781,6.0781,6.0781,6.0781,6.0781,6.0781,6.0781,6.0781,6.0781,6.0781,6.0781,6.0781,6.0781,6.0781,6.0781,6.0781,6.0781,6.0781,6.0781,6.1012,6.1151,6.1151,6.1381,6.1805,0.0,0.0,4.7152,4.8795,5.1143,5.307,5.307,5.5036,5.6847,5.6886,5.8235,5.9391,5.943,6.0134,6.0742,6.0742,6.0781,6.0781,6.0781,6.0781,6.0781,6.0781,6.0781,6.1151,6.2021,6.2834,6.3655,6.4501,6.5436,6.6269,6.7,6.7039,6.7449,6.8321,6.7487,6.7039,6.7039,6.6307,6.5897,6.5897,6.5897,6.5897,6.5897,6.5897,6.5897,6.5897,6.5897,6.5897,6.5897,6.5859,6.5859,6.5859,6.582,6.582,6.5705,6.4834,6.3998,6.3238,6.3238,6.2737,6.2059,6.2059,6.1497,6.0781,6.0781,6.0781,6.0781,6.0781,6.0781,6.0781,6.0781,6.0781,6.0781,6.0781,6.0781,6.0781,6.0781,6.0781,6.0781,6.0781,6.0781,6.0781,6.0781,6.0781,6.0781,6.0781,6.0781,6.0781,6.0781,6.0781,6.0781,6.0781,6.0781,6.0781,6.0781,6.0781,6.0781,6.0781,6.0781,6.0781,6.0781,6.0781,6.0781,6.0781,6.0781,6.0781,6.0781,6.1651,6.2059,6.2098,6.2852,6.3238,0.0,0.0,4.9109,5.1356,5.3392,5.5006,5.5583,5.6835,5.7857,5.7841,5.8303,5.8704,5.8704,5.895,5.9311,5.9835,5.995,6.0142,6.0704,6.0781,6.0781,6.0781,6.0781,0.0,0.0,0.0,0.0,6.4526,6.5897,6.6808,6.7102,6.7667,6.8102,6.8371,6.8141,6.7975,6.7975,6.7141,6.6692,6.6692,6.6167,6.5897,6.5897,6.5897,6.5897,6.5897,6.5897,6.5897,6.5897,6.5897,6.5897,6.5897,6.5897,6.5897,6.5859,6.559,6.5282,6.4845,6.3705,6.3103,6.2897,6.2897,6.232,6.1666,6.1666,6.1243,6.0781,6.0781,6.0781,6.0781,6.0781,6.0781,6.0781,6.0781,6.0781,6.0781,6.0781,6.0781,6.0781,6.0781,6.0781,6.0781,6.0781,6.0781,6.0781,6.0781,6.0781,6.0781,6.0781,6.0781,6.0781,6.0781,6.0781,6.0781,6.0781,6.0781,6.0781,6.0781,6.0781,6.0781,6.0781,6.0781,6.0781,6.0781,6.1381,6.1651,6.1651,6.2483,6.2882,6.2911,6.318,6.3603,4.8392,5.0159,5.172,5.3703,5.5665,5.728,5.7828,5.8366,5.8681,5.838,5.805,5.7735,5.7428,5.762,5.8104,5.8934,5.9588,6.0258,6.1151,6.1497,6.1689,6.1689,6.1689,6.1689,0.0,0.0,0.0,6.4116,6.5974,6.7231,6.7552,6.8383,6.8998,6.9267,6.8998,6.8871,6.8847,6.7975,6.7423,6.7102,6.6307,6.5897,6.5897,6.5897,6.5897,6.5897,6.5897,6.5897,6.5897,6.5897,6.5897,6.5897,6.5897,6.5897,6.5897,6.5897,6.5897,6.5743,6.4641,6.4001,6.3757,6.3757,6.318,6.2551,6.2551,6.2127,6.1627,6.1358,6.1243,6.1166,6.0858,6.0781,6.0781,6.0781,6.0781,6.0781,6.0781,6.0781,6.0781,6.0781,6.0781,6.0781,6.0781,6.0781,6.0781,6.0781,6.0781,6.0781,6.0781,6.0781,6.0781,6.0781,6.0781,6.0781,6.0781,6.0781,6.0781,6.0781,6.0781,6.0935,6.1243,6.1281,6.1396,6.1704,6.2252,6.256,6.2512,6.3344,6.3743,6.377,6.4078,6.4501,5.0317,5.2818,5.4972,5.5878,5.7872,5.9611,5.9595,5.9534,5.921,5.8346,5.7461,5.6533,0.0,0.0,5.7093,5.8077,5.9634,6.105,6.1959,6.2791,6.3315,0.0,0.0,0.0,0.0,0.0,0.0,6.3476,0.0,6.7552,6.8394,6.9267,7.0102,7.0898,7.014,6.9756,6.9756,6.8883,6.7987,6.7102,6.6307,6.5897,6.5897,6.5897,6.5897,6.5897,6.5897,6.5897,6.5897,6.5897,6.5897,6.5897,6.5897,6.5897,6.5897,6.5897,6.5897,6.5897,6.5897,6.5333,6.468,6.468,6.4103,6.3372,6.3372,6.3334,6.3128,6.2358,6.2166,6.1935,6.1089,6.0858,6.0858,6.0819,6.0781,6.0781,6.0781,6.0819,6.0858,6.0858,6.0896,6.0935,6.0935,6.0935,6.0935,6.0935,6.0935,6.0896,6.0819,6.0781,6.0781,6.0781,6.0781,6.0819,6.0858,6.0858,6.0858,6.0935,6.0935,6.1281,6.2127,6.218,6.2526,6.3281,6.333,6.3383,6.3361,6.4232,6.468,6.468,6.5513,6.5897,5.3103,5.5168,5.6984,5.851,5.8836,5.8966,5.9611,5.8703,5.7485,5.6596,5.5224,5.4084,0.0,0.0,0.0,5.6999,5.8742,0.0,6.1901,6.2809,0.0,6.3295,0.0,6.3295,6.3295,6.4667,0.0,0.0,6.6974,6.8424,6.9306,7.014,7.0706,7.0898,7.0706,7.0591,7.0591,6.9152,6.7987,6.7102,6.6307,6.5897,6.5897,6.5897,6.5897,6.5897,6.5897,6.5897,6.5897,6.5897,6.5897,6.5897,6.5897,6.5897,6.5897,6.5897,6.5897,6.5897,6.5897,6.5743,6.559,6.559,6.4974,6.4282,6.4282,6.382,6.3281,6.3051,6.2974,6.282,6.1973,6.1781,6.1589,6.0935,6.0781,6.0781,6.0781,6.132,6.1781,6.1781,6.2243,6.2666,6.2666,6.2666,6.2666,6.2666,6.2666,6.2204,6.0973,6.0781,6.0781,6.0781,6.0781,6.105,6.1704,6.1781,6.2012,6.2627,6.2666,6.2781,6.2974,6.2988,6.3103,6.3295,6.3935,6.4257,6.427,6.5141,6.559,6.559,6.5782,6.623,5.5451,5.7234,5.8761,5.9753,5.9575,5.9205,5.9312,5.7654,5.575,5.4436,5.2794,0.0,0.0,0.0,0.0,0.0,0.0,0.0,6.2375,6.4001,6.4987,0.0,6.5295,0.0,6.5551,6.6408,6.7176,0.0,6.8436,6.9167,6.9679,7.0475,7.0898,7.0898,7.0898,7.0898,7.0898,6.964,6.8525,6.7641,6.6808,6.6269,6.5897,6.5897,6.5897,6.5897,0.0,6.5897,6.5897,6.5897,6.5897,6.5897,6.5897,6.5897,6.5897,6.5897,6.5897,6.5897,6.5897,6.5897,6.5897,6.5897,6.5551,6.5166,6.5166,6.482,6.4359,6.3974,6.3858,6.3666,6.2858,6.2627,6.2512,6.2012,6.1897,6.1897,6.1897,6.2281,6.2627,6.2627,6.2974,6.332,6.332,6.332,6.332,6.332,6.332,6.2974,6.2012,6.1897,6.1897,6.1897,6.1897,6.2089,6.2589,6.2627,6.282,6.3281,6.332,6.3474,6.3858,6.3897,6.4026,6.4436,6.491,6.518,6.518,6.6026,6.641,6.6449,6.6808,6.7256,5.7521,5.9088,6.0268,6.0294,6.0144,5.9689,5.862,5.635,5.3953,5.2164,0.0,4.9158,4.9221,5.051,5.2415,5.4934,0.0,6.1104,6.29,6.5333,6.6962,6.7077,6.7872,6.8385,6.8394,6.851,6.8883,6.964,6.9794,6.9871,6.9871,7.0514,7.0898,7.0898,7.0898,7.0898,7.0898,7.0102,6.9321,6.8565,6.7564,6.6731,6.6051,6.5936,6.5897,6.5897,6.5897,6.5897,6.5897,6.5897,6.5897,6.5897,6.5897,6.5897,6.5897,6.5897,6.5897,6.5897,6.5897,6.5897,6.5897,6.5897,6.5897,6.5897,6.5897,6.5897,6.5743,6.4974,6.4782,6.4589,6.3705,6.3474,6.3435,6.332,6.332,6.332,6.332,6.3397,6.3512,6.3628,6.3666,6.3666,6.3666,6.3666,6.3666,6.3666,6.3666,6.3666,6.3666,6.3435,6.332,6.332,6.332,6.3358,6.3474,6.3474,6.3512,6.3628,6.3666,6.3974,6.4743,6.4782,6.5166,6.6051,6.6051,6.6128,6.6205,6.6949,6.7268,6.7268,6.8039,6.845,5.9572,6.0526,6.1286,6.1322,6.0249,5.876,5.7165,5.468,0.0,0.0,0.0,4.7549,4.8202,4.9163,5.0682,5.3217,0.0,0.0,0.0,0.0,6.6333,0.0,0.0,0.0,0.0,0.0,0.0,0.0,0.0,7.0706,7.0706,7.0821,7.0898,7.0898,7.0898,7.0898,7.0898,7.0102,6.964,6.9448,6.7847,6.7,6.6846,6.6205,6.5897,6.5897,6.5897,0.0,6.5897,6.5897,6.5897,6.5897,6.5897,6.5897,6.5897,6.5897,6.5897,6.5897,6.5897,6.5897,6.5897,6.5897,6.5897,6.5897,6.5897,6.5897,6.5859,6.5705,6.5667,6.5474,6.4589,6.4359,6.4205,6.3474,6.332,6.332,6.332,6.3858,6.4589,6.532,6.5436,6.5436,6.5436,6.5436,6.5436,6.5436,6.5436,6.5436,6.5436,6.4205,6.332,6.332,6.332,6.3589,6.432,6.4359,6.4666,6.5397,6.5436,6.5513,6.5667,6.5667,6.6051,6.6859,6.6898,6.7244,6.7962,6.8129,6.8179,6.8164,6.8345,6.8794,6.0627,6.1283,6.1485,6.1086,5.9667,5.7796,5.56,0.0,0.0,0.0,0.0,4.536,4.6588,0.0,0.0,0.0,0.0,0.0,0.0,0.0,0.0,0.0,0.0,0.0,0.0,0.0,0.0,0.0,0.0,7.0898,7.0898,7.0898,7.0898,7.0898,7.0898,7.0898,7.0898,7.0514,7.0102,6.9717,6.8859,6.8232,6.7757,6.6885,6.6538,6.65,6.609,0.0,6.5897,6.5897,6.5897,6.5897,6.5897,6.5897,6.5897,6.5897,6.5897,6.5897,6.5897,6.5897,6.5897,6.5897,6.5897,6.5897,6.5897,6.5897,6.5897,6.5897,6.5897,6.5782,6.5397,6.5282,6.5166,6.4743,6.4666,6.4666,6.4666,6.4974,6.5397,6.582,6.5897,6.5897,6.5897,6.5897,6.5897,6.5897,6.5897,6.5897,6.5897,6.5166,6.4666,6.4666,6.4666,6.482,6.5243,6.5282,6.5436,6.5859,6.6282,6.6513,6.6513,6.6974,6.7398,6.7782,6.7782,6.7975,6.8398,6.8859,6.9064,6.9102,6.9525,6.991,6.0974,6.1529,6.1499,6.064,5.9095,5.7069,5.4271,5.1016,0.0,0.0,4.4276,4.3607,4.5064,0.0,0.0,0.0,0.0,0.0,0.0,0.0,0.0,0.0,0.0,0.0,0.0,0.0,0.0,0.0,7.0898,7.0937,7.0937,7.0937,7.0937,7.0937,7.0937,7.0937,7.0937,7.0898,7.0591,6.9948,6.9794,6.936,6.8642,6.777,6.7269,6.7039,6.6423,0.0,0.0,6.5897,6.5897,6.5897,6.5897,6.5897,6.5897,6.5897,6.5897,6.5897,6.5897,6.5897,6.5897,6.5897,6.5897,6.5897,6.5897,6.5897,6.5897,6.5897,6.5897,6.5897,6.5897,6.5897,6.5897,6.5897,6.5897,6.5936,6.6128,6.6167,6.6205,6.6397,6.6436,6.6436,6.6436,6.6282,6.6167,6.6167,6.6013,6.5974,6.6128,6.6167,6.6244,6.6436,6.609,6.5974,6.6128,6.6167,6.6244,6.6436,6.7013,6.7359,6.7359,6.8052,6.8513,6.8667,6.8667,6.8783,6.8936,6.9629,6.9975,6.9975,7.0591,7.0898,6.0456,6.1082,6.1484,6.0624,5.9101,5.6913,5.3494,0.0,0.0,4.5234,4.3849,4.3397,4.4261,0.0,0.0,0.0,0.0,0.0,0.0,0.0,0.0,0.0,0.0,0.0,0.0,0.0,0.0,7.0898,7.0975,7.0975,7.0975,7.0975,7.1014,7.1091,7.1014,7.0975,7.0975,7.0937,7.086,7.0783,7.0063,6.9679,6.9563,6.869,6.7833,6.7102,6.7,6.6577,0.0,6.5897,6.5897,6.5897,6.5897,6.5897,6.5897,6.5897,6.5897,6.5897,6.5897,6.5897,6.5897,6.5897,6.5897,6.5897,6.5897,6.5897,6.5897,6.5897,6.5897,6.5897,6.5897,6.5897,6.5897,6.5897,6.5897,6.609,6.6821,6.6974,6.7205,6.8013,6.8167,6.8167,6.8167,6.7513,6.6974,6.6974,6.6359,6.6167,6.6898,6.6974,6.7282,6.809,6.6821,6.6205,6.6936,6.6974,6.7321,6.8129,6.8244,6.8282,6.8282,6.8359,6.8783,6.959,6.959,6.9937,7.0667,7.0744,7.0783,7.0783,7.086,7.0898,5.9997,6.0952,6.1328,5.9961,5.832,5.6091,5.2562,0.0,4.6402,4.42,4.2618,4.1979,4.3335,4.4273,0.0,0.0,0.0,0.0,0.0,0.0,0.0,0.0,0.0,0.0,0.0,0.0,0.0,7.0898,7.0975,7.1056,7.1169,7.1154,7.1154,7.1231,7.1154,7.112,7.1052,7.0975,7.0937,7.0898,7.0591,7.0409,7.0371,6.9602,6.8767,6.791,6.7423,6.6731,0.0,6.5936,6.5936,6.5936,6.6423,6.6615,6.6705,6.7205,6.7398,6.7398,6.7398,6.7051,6.6628,6.6628,6.6282,6.5897,6.5897,6.5897,6.5897,6.5897,6.5897,6.5897,6.5897,6.5897,6.5897,6.5897,6.6282,6.6705,6.7013,6.7513,6.7975,6.8321,6.8398,6.8398,6.8398,6.8129,6.7898,6.7898,6.7628,6.7513,6.7859,6.7898,6.8013,6.8359,6.7821,6.7513,6.7859,6.7898,6.8013,6.8398,6.8898,6.9167,6.9167,6.9667,7.009,7.0437,7.0437,7.0591,7.0898,7.0898,7.0898,7.0898,7.1437,7.1668,5.8632,5.9918,6.0415,5.8736,5.7174,5.5169,0.0,4.8282,4.544,4.3573,4.1786,4.1078,4.278,4.3564,4.5068,0.0,0.0,0.0,0.0,0.0,0.0,0.0,0.0,0.0,0.0,0.0,7.0898,7.0898,7.1014,7.1146,7.1291,7.13,7.1339,7.1396,7.1319,7.1253,7.1185,7.1068,7.1014,7.0937,7.0898,7.0898,7.0898,7.04,6.9577,6.8525,6.7972,6.7061,0.0,6.6024,6.5961,6.5974,6.6808,6.7116,6.7205,6.8078,6.8424,6.8398,6.8398,6.8013,6.7436,6.7167,6.6705,6.6205,6.5974,6.5897,6.5897,6.5897,6.5897,6.5936,6.6205,6.6244,6.632,6.659,6.7051,6.7552,6.7821,6.8359,6.8859,6.909,6.9129,6.9129,6.9129,6.8936,6.8783,6.8783,6.859,6.8513,6.8744,6.8783,6.8898,6.9129,6.9129,6.9052,6.8821,6.8783,6.8898,6.9129,6.9706,7.0052,7.0052,7.0591,7.0898,7.0898,7.0898,7.1014,7.1283,7.1283,7.1437,7.1668,7.2283,7.2591,5.6078,5.7597,5.852,5.6835,5.5754,5.4216,0.0,4.7766,4.5307,4.3543,4.1748,4.1024,4.278,4.3124,4.4205,4.758,0.0,0.0,0.0,0.0,0.0,0.0,0.0,0.0,0.0,7.0409,7.0898,7.0898,7.1091,0.0,7.1291,7.1505,7.1602,7.1598,7.152,7.1472,7.1407,7.121,7.1052,7.1014,7.0937,7.0937,7.1002,7.1068,7.0227,6.8684,6.8684,6.7669,0.0,6.5982,6.5972,6.5974,6.6782,6.7116,6.7192,6.8078,6.8424,6.8398,6.841,6.8371,6.8218,6.7398,6.709,6.6936,6.6128,6.5897,6.5897,6.5897,6.5897,6.609,6.6859,6.709,6.7282,6.8167,6.8398,6.8629,6.9475,6.9667,6.9937,7.0706,7.086,7.086,7.086,7.0206,6.9706,6.9706,6.8936,6.8706,6.959,6.9706,6.9975,7.0783,7.086,7.0552,6.9744,6.9706,7.0014,7.0821,7.0898,7.0898,7.0898,7.0898,7.0898,7.0898,7.0898,7.1321,7.2168,7.2168,7.2629,7.3476,7.3476,7.3514,5.3962,5.5641,5.6741,5.5602,5.4252,5.2558,5.022,4.7207,4.4559,4.3389,4.1748,4.0831,4.1979,4.2684,4.4013,4.6814,4.9201,0.0,0.0,0.0,0.0,0.0,0.0,6.8717,0.0,0.0,7.1052,7.1052,7.1168,7.1299,7.1415,7.1562,7.1682,7.1759,7.1689,7.1573,7.1472,7.1369,7.1235,7.1052,7.1014,7.0966,7.1008,7.0542,6.9772,6.8754,6.8264,6.731,0.0,6.6088,6.5999,6.5974,6.6808,6.7462,6.809,6.9001,6.9629,7.0129,7.0129,6.9756,6.9256,6.8987,6.809,6.7051,6.6782,6.632,6.6013,6.6551,6.7167,6.7667,6.7936,6.7975,6.8052,6.8321,6.8859,6.936,6.9629,7.0129,7.0591,7.086,7.0898,7.0898,7.0898,7.0706,7.0514,7.0514,7.0283,7.0206,7.0475,7.0514,7.0629,7.086,7.0898,7.0783,7.0552,7.0514,7.0629,7.0898,7.0898,7.0898,7.0898,7.1475,7.1783,7.1783,7.236,7.2822,7.3091,7.3091,7.3514,7.4322,7.4322,7.463,0.0,5.2801,5.394,5.3096,5.2089,5.0743,4.8623,4.6236,4.4137,4.2896,4.1501,4.087,4.2056,4.2717,4.4008,4.6908,4.9239,0.0,0.0,0.0,0.0,0.0,0.0,0.0,0.0,7.1133,7.1172,7.1172,7.1326,7.144,7.1542,7.1667,7.1651,7.1389,7.165,7.1711,7.1612,7.149,7.1352,7.121,7.1106,7.0913,7.0622,7.0265,6.9473,6.8384,6.7928,0.0,0.0,6.6167,6.6035,6.6024,6.6808,6.7423,6.8052,6.9244,7.0014,7.0514,7.0783,7.0591,7.0102,6.9794,6.8717,6.759,6.759,6.7013,6.6513,6.7359,6.7975,6.8475,6.8821,6.8898,6.8975,6.9283,6.9744,7.0167,7.0167,7.0552,7.0898,7.0898,7.0898,7.0898,7.0898,7.0898,7.0898,7.0898,7.0898,7.0898,7.0898,7.0898,7.0898,7.0898,7.0898,7.1014,7.136,7.1091,7.0898,7.0898,7.1206,7.1398,7.1398,7.2245,7.2706,7.2706,7.3206,7.3668,7.3976,7.4284,7.4707,7.5207,7.5207,7.5476,0.0,4.9139,5.047,4.974,4.949,4.876,4.6334,4.5009,0.0,4.2233,4.1155,4.0985,4.2688,4.305,4.419,4.7465,4.9547,0.0,0.0,0.0,0.0,0.0,0.0,0.0,7.1037,7.1236,7.1334,7.1296,7.1489,7.1571,7.1536,7.168,7.1448,7.0625,7.1311,7.1689,7.1633,7.1418,7.1296,7.1236,7.1094,7.0645,6.992,6.9978,6.9202,0.0,6.7736,0.0,0.0,6.6205,6.6036,6.6073,6.6731,6.7077,6.7308,6.891,6.9563,6.9717,7.0552,7.0821,7.0706,6.9948,6.914,6.8513,6.8513,6.7936,6.7436,6.8282,6.8552,6.8783,6.959,6.9783,6.9975,7.0706,7.0898,7.0898,7.0898,7.0898,7.0898,7.0898,7.0898,7.0898,7.0898,7.0898,7.0898,7.0898,7.0898,7.0898,7.0898,7.0898,7.0898,7.0898,7.0975,7.1321,7.2129,7.1475,7.1014,7.1091,7.1822,7.2283,7.2283,7.3129,7.3591,7.3591,7.3668,7.4053,7.4784,7.563,7.6015,7.6015,7.6015,7.6015,4.2063,0.0,4.7951,4.8372,4.8007,4.7199,0.0,4.4482,0.0,0.0,0.0,0.0,0.0,0.0,4.3991,4.6754,4.9144,5.1779,5.4972,0.0,0.0,0.0,0.0,7.0208,7.1076,7.132,7.1442,7.1446,7.1575,7.142,7.0784,7.0862,7.0553,6.9726,6.9881,6.9947,6.9894,6.9801,6.9667,6.9571,6.9551,6.9399,6.9166,6.8631,6.8199,6.7837,0.0,0.0,6.64,6.6263,6.6123,6.5996,6.6115,6.6551,6.7128,6.7552,6.8141,6.8844,6.9717,6.9986,6.9948,6.9756,6.9563,6.9371,6.9398,6.9244,6.9129,6.936,6.986,7.036,7.0552,7.0629,7.0667,7.086,7.0898,7.0898,7.0898,7.0898,7.0898,7.0898,7.0898,7.0898,7.0898,7.0898,7.0898,7.0898,7.0898,7.0898,7.0898,7.0898,7.0898,7.0898,7.1514,7.1975,7.2168,7.2014,7.2168,7.286,7.3091,7.3206,7.3206,7.3976,7.4437,7.4437,7.5053,7.5515,7.5707,7.5899,7.6015,7.6015,7.6015,7.6015,4.0777,4.3371,4.5851,4.6287,4.6364,4.6018,0.0,0.0,0.0,0.0,0.0,0.0,0.0,0.0,0.0,0.0,5.0451,0.0,0.0,0.0,0.0,6.8125,6.964,7.0658,0.0,7.1377,7.135,7.0987,7.1083,7.081,6.9974,6.9997,6.9667,6.8867,6.8867,6.9022,6.9322,6.927,6.9206,6.9106,6.908,6.887,6.8448,6.8065,6.7696,6.7385,0.0,0.0,6.6436,6.626,6.6105,6.6005,6.5972,6.6217,6.664,6.705,6.7512,6.8026,6.8873,6.9451,6.9797,7.0208,7.0271,7.0256,7.0244,7.0244,7.0244,7.0244,7.0552,7.0898,7.0898,7.0898,7.0898,7.0898,7.0898,7.0898,7.0898,7.0898,7.0898,7.0898,7.0898,7.0898,7.0898,7.1245,7.1514,7.1514,7.1822,7.2091,7.2091,7.2091,7.2091,7.2091,7.2514,7.2937,7.3322,7.336,7.3399,7.3514,7.386,7.4053,7.4053,7.4861,7.5284,7.5284,7.5745,7.6015,7.6015,7.6015,7.6015,7.6015,7.6015,7.6015,4.0816,4.2887,4.4476,4.4723,4.5372,4.5503,0.0,0.0,0.0,0.0,0.0,0.0,0.0,0.0,0.0,0.0,0.0,0.0,0.0,6.4306,6.6526,6.8202,6.991,0.0,7.0999,7.1184,7.0969,7.0173,7.0247,6.9946,6.9148,6.9159,6.8815,6.8047,6.8008,6.832,6.9023,6.8971,6.8917,6.8839,6.8812,6.8436,6.7727,6.7773,6.7422,6.6791,0.0,0.0,6.6504,6.6312,6.6147,6.6036,6.6005,6.602,6.6121,6.6862,6.7116,6.7271,6.8251,6.9153,6.9938,7.0734,7.0966,7.0898,7.0898,7.0898,7.0898,7.0898,7.0898,7.0898,7.0898,7.0898,7.0898,7.0898,7.0898,7.0898,7.0898,7.0898,7.0898,7.0898,7.0898,7.0937,7.1091,7.1706,7.2245,7.236,7.3014,7.3514,7.3514,7.3514,7.3514,7.3514,7.363,7.3976,7.463,7.4822,7.463,7.3937,7.4514,7.4899,7.4899,7.563,7.6015,7.6015,7.6015,7.6015,7.6015,7.6015,7.6015,7.6015,7.6015,7.6015,3.9392,4.2033,4.4832,4.6259,4.6746,4.6636,0.0,0.0,0.0,0.0,0.0,0.0,0.0,0.0,0.0,0.0,0.0,0.0,0.0,0.0,6.6526,6.8202,0.0,7.0093,7.0087,7.0268,7.0099,6.9344,6.9344,6.905,6.8222,6.8271,6.7929,6.7109,6.7109,6.7148,6.7265,6.7265,6.7226,6.7186,6.716,6.7097,6.6985,6.6979,6.6901,6.679,0.0,6.672,6.6579,6.6415,6.6301,6.6144,6.6036,6.6036,6.6119,6.6299,6.636,6.6593,6.8137,6.917,6.9938,7.0747,7.094,7.0898,7.0898,7.0898,7.0898,7.0898,7.0898,7.0898,7.0898,7.0898,7.0898,7.0898,7.0898,7.0898,7.0898,7.0898,7.0898,7.0898,7.0898,7.1129,7.186,7.2091,7.2437,7.3206,7.3399,7.3514,7.3514,7.3514,7.3514,7.3514,7.413,7.4591,7.4707,7.5399,7.5745,7.563,7.5745,7.5784,7.5784,7.5938,7.6015,7.6015,7.6015,7.6015,7.6015,7.6015,7.6015,7.6015,7.6015,7.6015,3.92,4.1855,4.4924,4.6654,4.7463,0.0,0.0,0.0,0.0,0.0,0.0,0.0,0.0,0.0,0.0,0.0,0.0,0.0,6.3128,6.4859,6.6359,0.0,0.0,6.9181,6.9215,6.9396,6.9187,6.8413,6.8482,6.8199,6.7321,6.7409,6.7265,6.6914,6.6914,6.6914,6.6914,6.6914,6.6875,6.6836,6.6832,6.6867,6.6867,6.6867,6.6823,6.6809,0.0,6.6744,6.6652,6.6517,6.6384,6.6225,6.6245,6.6206,6.6283,6.6351,6.6655,6.7238,6.8467,6.9342,7.0058,7.085,7.1017,7.0898,7.0898,7.0898,7.0898,7.0898,7.0898,7.0898,7.0898,7.0898,7.0898,7.0898,7.0898,7.0898,7.0898,7.0898,7.1052,7.1514,7.1591,7.186,7.2745,7.3245,7.3707,7.4091,7.4553,7.4861,7.4861,7.4861,7.4861,7.4861,7.5168,7.5399,7.5399,7.5784,7.6015,7.6015,7.6015,7.6015,7.6015,7.6015,7.6015,7.6015,7.6015,7.6015,7.6015,7.6015,7.6015,7.6015,7.6015,7.6015,3.9508,4.1994,4.4909,0.0,0.0,0.0,0.0,0.0,0.0,0.0,0.0,0.0,0.0,0.0,0.0,0.0,0.0,6.2373,6.4334,6.5333,6.6205,6.7,6.7821,6.8321,6.8326,6.8488,6.8297,6.7484,6.757,6.7372,6.6741,6.682,6.6875,6.6914,6.6914,6.6914,6.6914,6.6914,6.6914,6.6914,6.6914,6.6914,6.6914,6.6914,6.6873,6.6823,6.6805,6.6766,6.6702,6.6602,6.6464,6.6361,6.64,6.6454,6.6508,6.6763,6.7268,6.7995,6.8978,6.9666,7.0173,7.0961,7.1082,7.0925,7.0898,7.0898,7.0898,7.0898,7.0898,7.0898,7.0898,7.0898,7.0898,7.0898,7.0898,7.0898,7.0898,7.1052,7.1398,7.2052,7.236,7.2783,7.363,7.4284,7.4784,7.4976,7.5553,7.6015,7.6015,7.6015,7.6015,7.6015,7.6015,7.6015,7.6015,7.6015,7.6015,7.6015,7.6015,7.6015,7.6015,7.6015,7.6015,7.6015,7.6015,7.6015,7.6015,7.6207,7.6284,7.6322,7.6515,7.6592,4.02,4.2364,4.4839,0.0,0.0,0.0,0.0,0.0,0.0,0.0,0.0,0.0,0.0,0.0,0.0,0.0,6.2719,6.4411,6.4564,0.0,6.6205,6.7,6.7333,6.7509,6.7501,6.7676,6.7445,6.6633,6.6664,6.6711,6.6706,6.6752,6.6836,6.6914,6.6914,6.6914,6.6914,6.6914,6.6914,6.6914,6.6914,6.6914,6.6914,6.6914,6.6914,6.6875,6.6817,6.6795,6.6784,6.6711,6.6624,6.6563,6.653,6.6569,6.6762,6.7587,6.792,6.8219,6.9757,7.0261,7.0311,7.096,7.1106,7.0979,7.0925,7.0898,7.0898,7.0898,7.0898,7.0898,7.0898,7.0898,7.0898,7.0898,7.0898,7.0898,7.0898,7.1552,7.2129,7.2168,7.286,7.3668,7.4476,7.4668,7.4976,7.5784,7.5976,7.6015,7.6015,7.6015,7.6015,7.6015,7.6015,7.6015,7.6015,7.6015,7.6015,7.6015,7.6015,7.6015,7.6015,7.6015,7.6015,7.6015,7.6015,7.6015,7.6015,7.6823,7.7207,7.7207,7.7977,7.8323,3.9815,4.1647,0.0,0.0,0.0,0.0,0.0,0.0,0.0,0.0,0.0,0.0,0.0,0.0,0.0,0.0,6.3617,6.4795,6.5333,6.5705,6.6013,6.6384,6.6538,6.663,6.6648,6.6838,6.6843,6.6516,6.6606,6.6673,6.6712,6.6791,6.6875,6.6914,6.6914,6.6914,6.6914,6.6914,6.6914,6.6914,6.6914,6.6914,6.6914,6.6914,6.6914,6.6914,6.6865,6.6856,6.6817,6.6756,6.6727,6.6672,6.6691,6.6741,6.6867,6.7748,6.8396,6.902,7.0138,7.0745,7.1042,7.1221,7.1139,7.0979,7.0925,7.0898,7.0898,7.0898,7.0898,7.0898,7.0898,7.0898,7.0898,7.0898,7.0898,7.1052,7.158,7.1964,7.2503,7.3553,7.4014,7.4514,7.5361,7.5515,7.563,7.5938,7.6015,7.6015,7.6015,7.6015,7.6015,7.6015,7.6015,7.6015,7.6015,7.6015,7.6015,7.6015,7.6015,7.6015,7.6015,7.6015,7.6015,7.6015,7.6515,7.6823,7.6823,7.763,7.8054,7.8054,7.8361,7.8477,3.9884,4.1378,0.0,0.0,0.0,0.0,0.0,0.0,0.0,0.0,0.0,0.0,0.0,0.0,0.0,0.0,6.4232,6.5218,6.582,6.5897,6.5897,6.5974,6.6088,6.614,6.6244,6.6431,6.6528,6.6546,6.6673,6.6611,6.6344,6.6443,6.6367,6.6094,6.6094,6.6094,6.6094,6.6094,6.6211,6.6484,6.6484,6.664,6.6914,6.6914,6.6914,6.6914,6.6911,6.6869,6.683,6.683,6.6781,6.6751,6.6798,6.683,6.6967,6.8097,6.8893,6.956,7.0654,7.1253,7.1544,7.1415,7.1231,7.1056,7.0952,7.0925,7.0898,7.0898,7.0898,7.0898,7.0898,7.0898,7.0898,7.0898,7.1091,7.1475,7.208,7.2619,7.335,7.4476,7.4899,7.5284,7.5899,7.6015,7.6015,7.6015,7.6015,7.6015,7.6015,7.6015,7.6015,7.6015,7.6015,7.6015,7.6015,7.6015,7.6015,7.6015,7.6015,7.6015,7.6015,7.6015,7.613,7.6399,7.6976,7.7438,7.7669,7.8515,7.89,7.89,7.9169,7.9323,4.0607,0.0,0.0,0.0,0.0,0.0,0.0,0.0,0.0,0.0,0.0,0.0,0.0,0.0,0.0,0.0,0.0,6.5897,6.5897,6.5897,6.5897,6.5974,6.6135,6.6225,6.6299,6.647,6.6567,6.6585,6.6712,6.6401,6.5547,6.5547,6.5195,6.4336,6.4297,6.4297,6.4297,6.4297,6.4726,6.5586,6.5586,6.6055,6.6914,6.6914,6.6914,6.6914,6.6914,6.6914,6.6914,6.6914,6.6914,6.6914,6.6908,6.6895,6.7107,6.8752,6.9401,6.9648,7.1304,7.1823,7.1677,7.1536,7.1358,7.1178,7.1056,7.0952,7.0898,7.0898,7.0898,7.0898,7.0898,7.0898,7.0898,7.0898,7.1552,7.2206,7.2206,7.3514,7.4707,7.4707,7.5399,7.6015,7.6015,7.6015,7.6015,7.6015,7.6015,7.6015,7.6015,7.6015,7.6015,7.6015,7.6015,7.6015,7.6015,7.6015,7.6015,7.6015,7.6015,7.6015,7.6015,7.6015,7.6399,7.7284,7.7323,7.7707,7.8515,7.94,7.9823,7.9823,8.0708,8.1093,4.1339,0.0,0.0,0.0,0.0,0.0,0.0,0.0,0.0,0.0,0.0,0.0,0.0,0.0,0.0,0.0,0.0,6.5897,6.5897,6.5897,6.5897,6.5974,6.6135,6.6225,6.6377,6.5965,6.5712,6.5678,6.5221,6.4879,6.4609,6.4648,6.457,6.4297,6.4297,6.4297,6.4297,6.4297,6.4414,6.4687,6.4687,6.5469,6.6914,6.6914,6.6914,6.6914,6.6914,6.6914,6.6914,6.6914,6.6914,6.6914,6.6913,6.6912,6.7027,6.816,6.8905,6.957,7.0653,7.1357,7.175,7.1544,7.1417,7.1247,7.1056,7.0952,7.0898,7.0898,7.0898,7.0898,7.0898,7.0898,7.0898,7.0898,7.1591,7.236,7.2976,7.3947,7.487,7.5515,7.5822,7.6015,7.6015,7.6015,7.6015,7.6015,7.6015,7.6015,7.6015,7.6015,7.6015,7.6015,7.6015,7.6015,7.6015,7.6015,7.6015,7.6015,7.6015,7.6284,7.6899,7.6899,7.7284,7.813,7.8746,7.9169,7.9438,8.0285,8.0708,8.0708,8.0977,8.1093,0.0,0.0,0.0,0.0,0.0,0.0,0.0,0.0,0.0,0.0,0.0,0.0,0.0,0.0,0.0,0.0,6.4474,6.5474,6.5859,6.559,6.5436,6.5474,6.5302,6.5199,6.5312,6.5017,6.4803,6.4831,6.4452,6.4099,6.375,6.375,6.3633,6.3281,6.3281,6.3281,6.3281,6.3281,6.3437,6.3789,6.3789,6.4531,6.5898,6.6211,6.6562,6.6914,6.6914,6.6914,6.6914,6.6914,6.6914,6.6914,6.6914,6.6914,6.6992,6.789,6.8711,6.9531,7.0388,7.1182,7.1807,7.1641,7.1469,7.1253,7.113,7.1005,7.0898,7.0898,7.0898,7.0898,7.0898,7.0898,7.0898,7.0898,7.1822,7.286,7.337,7.4409,7.537,7.5899,7.6015,7.6015,7.6015,7.6015,7.6015,7.6015,7.6015,7.6015,7.6015,7.6015,7.6015,7.6015,7.6015,7.6015,7.6015,7.6015,7.6015,7.6015,7.6015,7.6515,7.7707,7.8015,7.8361,7.8861,7.9477,7.9977,8.0323,8.0823,8.1093,8.1093,8.1093,8.1093,0.0,0.0,0.0,0.0,0.0,0.0,0.0,0.0,0.0,0.0,0.0,0.0,0.0,0.0,0.0,6.3089,6.3897,6.4743,6.5551,6.4987,6.4501,6.4564,6.4023,6.3613,6.3705,6.3867,6.3988,6.3964,6.4051,6.3722,6.2929,6.289,6.2539,6.1719,6.1719,6.1719,6.1719,6.1719,6.2109,6.289,6.289,6.3359,6.4219,6.5078,6.5976,6.6797,6.6797,6.6836,6.6914,6.6914,6.6914,6.6914,6.6914,6.6914,6.6992,6.7773,6.8594,6.9414,7.0273,7.1116,7.1776,7.1721,7.1529,7.1278,7.1208,7.1081,7.0898,7.0898,7.0898,7.0898,7.0898,7.0898,7.0898,7.0898,7.2245,7.3514,7.3514,7.4822,7.6015,7.6015,7.6015,7.6015,7.6015,7.6015,7.6015,7.6015,7.6015,7.6015,7.6015,7.6015,7.6015,7.6015,7.6015,7.6015,7.6015,7.6015,7.6015,7.6015,7.6284,7.713,7.8669,7.9092,7.94,7.9554,7.9785,8.0323,8.1093,8.1093,8.1093,8.1093,8.1093,8.1093,0.0,0.0,0.0,0.0,0.0,0.0,0.0,0.0,0.0,0.0,0.0,0.0,0.0,0.0,6.2166,6.232,6.3051,6.3641,6.3834,6.3693,6.3591,6.3668,6.3638,6.365,6.3697,6.3273,6.3013,6.3071,6.2563,6.2197,6.1992,6.1992,6.1875,6.1719,6.1719,6.1719,6.1719,6.1719,6.1797,0.0,6.1992,6.2422,6.332,6.418,6.5078,6.5898,6.5898,6.6289,6.6914,6.6914,6.6914,6.6914,6.6914,6.6914,6.6914,6.7109,6.7734,6.8594,6.9414,7.0224,7.0948,7.1536,7.1559,7.1378,7.1247,7.1081,7.0898,7.0898,7.0898,7.0898,7.0898,7.0898,7.0898,7.0898,7.2245,7.3514,7.3514,7.4822,7.6015,7.6015,7.6015,7.6015,7.6015,7.6015,7.6015,7.6015,7.6015,7.6015,7.6015,7.6015,7.6015,7.6015,7.6015,7.6015,7.6015,7.6015,7.6015,7.6015,7.8515,8.0169,8.0516,7.9361,7.9323,8.0708,8.0785,8.09,8.1093,8.1093,8.1093,8.1093,8.1093,8.1093,0.0,0.0,0.0,0.0,0.0,0.0,0.0,0.0,0.0,0.0,0.0,0.0,0.0,6.1263,6.1589,6.2012,6.2435,6.2858,6.3243,6.2974,6.2719,6.2757,6.2544,6.2393,6.2432,6.2257,6.2134,6.2167,6.1866,6.1694,6.1716,6.1718,6.1719,6.1719,6.1719,6.1719,6.1719,6.1719,6.1719,6.1719,6.1719,6.1953,6.2422,6.3711,6.4531,6.4961,6.4961,6.5469,6.6289,6.6289,6.6523,6.6914,6.6914,6.6914,6.6914,6.6914,6.7461,6.8242,6.8672,6.9601,7.0648,7.0998,7.1257,7.1397,7.1291,7.1081,7.0898,7.0898,7.0898,7.0898,7.0898,7.0898,7.0898,7.0898,7.2245,7.3514,7.3514,7.4822,7.6015,7.6015,7.6015,7.6015,7.6015,7.6015,7.6015,7.6015,7.6015,7.6015,7.6015,7.6015,7.6015,7.6015,7.6015,7.6015,7.6015,7.6015,7.6707,7.8323,8.0092,8.1093,8.1093,8.0208,8.0169,8.1093,8.1093,8.1093,8.1093,8.1093,8.1093,8.1093,8.1093,8.1093,0.0,0.0,0.0,0.0,0.0,0.0,0.0,0.0,0.0,0.0,0.0,6.1099,6.1022,6.0877,6.105,6.1743,6.1882,6.2113,6.2767,6.2305,6.1905,6.1905,6.1334,6.1021,6.107,6.1303,6.1479,6.1487,6.1615,6.1681,6.1665,6.1676,6.1718,6.1719,6.1719,6.1719,6.1719,6.1719,6.1719,6.1719,6.1719,6.1719,6.1758,6.3203,6.3945,6.4062,6.4062,6.457,6.539,6.5547,6.6015,6.668,6.6836,6.6914,6.6914,6.6914,6.7344,6.8008,6.8164,6.9171,7.0414,7.0497,7.0914,7.1417,7.1334,7.113,7.0925,7.0898,7.0898,7.0898,7.0898,7.0898,7.0898,7.0898,7.2168,7.336,7.336,7.4745,7.6015,7.6015,7.6015,7.6015,7.6015,7.6015,7.6015,7.6015,7.6015,7.6015,7.6015,7.6015,7.6015,7.6015,7.6015,7.6015,7.6015,7.6553,7.8092,8.0939,8.1093,8.1093,8.1093,8.1093,8.1093,8.1093,8.1093,8.1093,8.1093,8.1093,8.1093,8.1093,8.1093,8.1093,0.0,0.0,0.0,0.0,0.0,0.0,0.0,0.0,0.0,0.0,6.1181,6.1095,6.1002,6.0899,6.0819,6.0935,6.0973,6.1012,6.1127,6.105,6.0973,6.0973,6.0958,6.0933,6.1002,6.119,6.1344,6.1406,6.1539,6.1609,6.1603,6.1686,6.1704,6.1719,6.1719,6.1719,6.1719,6.1719,6.1719,6.1719,6.1719,6.1719,6.1719,6.1953,6.2461,6.3164,6.3164,6.3672,6.4531,6.5273,6.5664,6.5859,6.6601,6.6914,6.6914,6.6914,6.6953,6.7187,6.793,6.8786,6.9659,7.0314,7.0946,7.1469,7.1355,7.1154,7.0979,7.0925,7.0898,7.0898,7.0898,7.0898,7.0898,7.0898,7.1822,7.2706,7.2706,7.4437,7.6015,7.6015,7.6015,7.6015,7.6015,7.6015,7.6015,7.6015,7.6015,7.6015,7.6015,7.6015,7.6015,7.6015,7.6015,7.6015,7.6015,7.8707,8.0592,8.1054,8.1093,8.1093,8.1093,8.1093,8.1093,8.1093,8.1093,8.1093,8.1093,8.1093,8.1093,8.1093,8.1093,8.1093,0.0,0.0,0.0,0.0,0.0,0.0,0.0,0.0,0.0,6.1155,6.106,6.1002,6.0962,6.0894,6.0781,6.0781,6.0781,6.0781,6.0781,6.0781,6.0781,6.0781,6.0888,6.0976,6.106,6.1181,6.1327,6.1408,6.1479,6.1547,6.1534,6.1621,6.1655,6.1715,6.1718,6.1719,6.1719,6.1719,6.1719,6.1719,6.1719,6.1719,6.1719,6.1719,6.1914,6.2265,6.2265,6.2773,6.3633,6.4492,6.5156,6.5703,6.6562,6.6914,6.6914,6.6914,6.6914,6.6953,6.7344,6.8005,6.8808,6.9566,7.0239,7.0826,7.1203,7.1163,7.0979,7.0925,7.0898,7.0898,7.0898,7.0898,7.0898,7.0898,7.1783,7.2706,7.3053,7.463,7.6015,7.6015,7.6015,7.6015,7.6015,7.6015,7.6015,7.6015,7.6015,7.6015,7.6015,7.6015,7.6015,7.6015,7.6015,7.6015,7.6015,7.9131,8.1093,8.1093,8.1093,8.1093,8.1093,8.1093,8.1093,8.1093,8.1093,8.1093,8.1093,8.1093,8.1093,8.1093,8.1093,8.1093,0.0,0.0,0.0,0.0,0.0,0.0,0.0,0.0,6.0867,0.0,6.0976,6.0872,6.0872,6.0827,6.0781,6.0781,6.0781,6.0781,6.0781,6.0781,6.0781,6.0781,6.0911,6.1018,6.1099,6.1203,6.1322,6.1366,6.1472,6.1479,6.1489,6.1541,6.1637,6.1709,6.1717,6.1719,6.1719,6.1719,6.1719,6.1719,6.1719,6.1719,6.1719,6.1719,6.1719,6.1719,6.1719,6.207,6.2734,6.3594,6.4492,6.5351,6.6211,6.6719,6.6914,6.6914,6.6914,6.6914,6.6914,6.7498,6.831,6.8925,6.979,7.0712,7.1184,7.1186,7.1005,7.0925,7.0898,7.0898,7.0898,7.0898,7.0898,7.0898,7.1552,7.2514,7.386,7.513,7.6015,7.6015,7.6015,7.6015,7.6015,7.6015,7.6015,7.6015,7.6015,7.6015,7.6015,7.6015,7.6015,7.6015,7.6015,7.6361,7.7207,7.9631,8.1093,8.1093,8.1093,8.1093,8.1093,8.1093,8.1093,8.1093,8.1093,8.1093,8.1093,8.1093,8.1093,8.1093,8.1093,8.1093,0.0,0.0,0.0,0.0,0.0,0.0,0.0,0.0,0.0,6.0762,6.085,6.0781,6.0781,6.0781,6.0781,6.0781,6.0781,6.0781,6.0781,6.0781,6.0781,6.0781,6.0866,6.0938,6.1099,6.1169,6.1252,6.1405,6.1447,6.1495,6.1489,6.1559,6.1634,6.1707,6.1717,6.1719,6.1719,6.1719,6.1719,6.1719,6.1719,6.1719,6.1719,6.1719,6.1719,6.1719,6.1719,6.1719,6.1836,6.2695,6.3594,6.4453,6.5312,6.6172,6.6914,6.6914,6.6914,6.6914,6.6914,6.7617,6.8554,6.8566,7.0011,7.177,7.1564,7.1291,7.1081,7.0925,7.0898,7.0898,7.0898,7.0898,7.0898,7.0898,7.0937,7.1898,7.5168,7.5938,7.6015,7.6015,7.6015,7.6015,7.6015,7.6015,7.6015,7.6015,7.6015,7.6015,7.6015,7.6015,7.6015,7.6015,7.6015,7.7323,8.0554,8.1016,8.1093,8.1093,8.1093,8.1093,8.1093,8.1093,8.1093,8.1093,8.1093,8.1093,8.1093,8.1093,8.1093,8.1093,8.1093,8.1093,0.0,0.0,0.0,0.0,0.0,0.0,0.0,5.7448,5.9065,5.9892,6.0442,6.0781,6.0781,6.0781,6.0781,6.0781,6.0781,6.0781,6.0781,6.0781,6.0781,6.0781,6.0911,6.098,6.1098,6.1197,6.1289,6.1369,6.1484,6.1507,6.1495,6.1546,6.1625,6.169,6.1715,6.1719,6.1719,6.1719,6.1719,6.1719,6.1719,6.1719,6.1719,6.1719,6.1719,6.1719,6.1719,6.1719,6.1758,6.2656,6.3515,6.4375,6.5273,6.6133,6.6914,6.6914,6.6914,6.6914,6.6914,6.7187,6.7617,6.8278,6.9312,7.0465,7.1354,7.1417,7.1178,7.0952,7.0898,7.0898,7.0898,7.0898,7.0898,7.0898,7.0898,7.1876,7.5491,7.6118,7.6015,7.6015,7.6015,7.6015,7.6015,7.6015,7.6015,7.6015,7.6015,7.6015,7.6015,7.6015,7.6015,7.6015,7.6015,7.7361,8.0823,8.1093,8.1093,8.1093,8.1093,8.1093,8.1093,8.1093,8.1093,8.1093,8.1093,8.1093,8.1093,8.1093,8.1093,8.1093,8.1093,8.1093,0.0,0.0,0.0,0.0,0.0,0.0,5.1586,0.0,5.6575,5.8,5.9188,6.005,6.0319,6.0589,6.0781,6.0781,6.0781,6.0781,6.0781,6.0781,6.0781,6.0781,6.0933,6.1021,6.1095,6.1244,6.1344,6.1433,6.1489,0.0,6.1528,6.1573,6.1616,6.1701,6.1716,6.1719,6.1719,6.1719,6.1719,6.1719,6.1719,6.1719,6.1719,6.1719,6.1719,6.1719,6.1719,6.1719,6.1758,6.2305,6.3242,6.4375,6.4922,6.5898,6.6914,6.6914,6.6914,6.6914,6.6914,6.6914,6.7031,6.7734,6.9015,7.0447,7.1455,7.1525,7.1247,7.0979,7.0979,7.103,7.103,7.103,7.1056,7.1116,7.1954,7.3421,7.5871,7.6198,7.6015,7.6015,7.6015,7.6015,7.6015,7.6015,7.6015,7.6015,7.6015,7.6015,7.6015,7.6015,7.6015,7.6015,7.6015,7.7361,8.0823,8.1093,8.1093,8.1093,8.1093,8.1093,8.1093,8.1093,8.1093,8.1093,8.1093,8.1093,8.1093,8.1093,8.1093,8.1093,8.1093,8.1093,0.0,0.0,0.0,0.0,0.0,0.0,4.6989,0.0,5.2549,5.5049,5.7011,5.8511,5.9281,6.0127,6.0742,6.0742,6.0781,6.0781,6.0819,6.0781,6.0781,6.0781,6.0933,6.1021,6.1095,6.1274,6.1421,6.1489,6.1578,6.1603,6.1603,6.1617,6.1651,6.1718,6.1719,6.1719,6.1719,6.1719,6.1719,6.1719,6.1719,6.1719,6.1719,6.1719,6.1719,6.1719,6.1719,6.1719,6.1719,6.1719,6.2734,6.4297,6.4297,6.5351,6.6914,6.6914,6.6914,6.6914,6.6914,6.6914,6.6914,6.6914,6.9211,7.1982,7.1858,7.1591,7.1269,7.1005,7.1106,7.1313,7.1313,7.1313,7.1355,7.1564,7.3976,7.6305,7.6359,7.6198,7.6015,7.6015,7.6015,7.6015,7.6015,7.6015,7.6015,7.6015,7.6015,7.6015,7.6015,7.6015,7.6015,7.6015,7.6015,7.7323,8.0669,8.1054,8.1093,8.1093,8.1093,8.1093,8.1093,8.1093,8.1093,8.1093,8.1093,8.1093,8.1093,8.1093,8.1093,8.1093,8.1093,8.1093,3.0275,0.0,0.0,0.0,0.0,0.0,0.0,0.0,5.0625,5.2549,5.5318,5.7434,5.7627,5.8396,5.8995,5.8979,6.0041,6.0911,6.0933,6.0911,6.0888,6.0888,6.0911,6.098,6.1095,6.1244,6.1408,0.0,6.1603,6.1588,6.1588,6.1634,6.1681,6.1719,6.1719,6.1719,6.1719,6.1719,6.1719,6.1719,6.1719,6.1719,6.1719,6.1719,6.1719,6.1719,6.1719,6.1719,6.1719,6.1719,6.2734,6.4297,6.4297,6.5351,6.6914,6.6914,6.6914,6.6914,6.6914,6.6914,6.6914,6.6914,6.9218,7.1986,7.1943,7.1799,7.1606,7.1274,7.1355,7.1529,7.1529,7.1529,7.1529,7.1581,7.2302,7.3569,7.5902,7.6198,7.6015,7.6015,7.6015,7.6015,7.6015,7.6015,7.6015,7.6015,7.6015,7.6015,7.6015,7.6015,7.6015,7.6015,7.6015,7.6399,7.7323,7.9669,8.1093,8.1093,8.1093,8.1093,8.1093,8.1093,8.1093,8.1093,8.1093,8.1093,8.1093,8.1093,8.1093,8.1093,8.1093,8.1093,0.0,0.0,0.0,0.0,0.0,0.0,4.0354,4.3701,4.6701,0.0,5.1433,5.4049,5.4741,5.5895,5.6956,5.7734,5.868,5.9605,6.0341,6.0723,6.0911,6.0911,6.0911,6.0938,6.1041,6.1213,6.1357,6.1549,6.1612,6.1648,6.1654,6.1671,6.1701,6.1719,6.1719,6.1719,6.1719,6.1719,6.1719,6.1719,6.1719,6.1719,6.1719,6.1719,6.1719,6.1719,6.1719,6.1719,6.1719,6.1719,6.2734,6.4297,6.4297,6.5351,6.6914,6.6914,6.6914,6.6914,6.6914,6.6914,6.6914,6.6914,6.8748,7.1083,7.1802,7.1963,7.1809,7.1591,7.1591,7.1718,7.1731,7.1782,7.1731,7.1718,7.1645,7.2461,7.5553,7.6198,7.6118,7.6005,7.6015,7.6015,7.6015,7.6015,7.6015,7.6015,7.6015,7.6015,7.6015,7.6015,7.6015,7.6015,7.6015,7.6015,7.6015,7.7823,7.9592,8.1016,8.1093,8.1093,8.1093,8.1093,8.1093,8.1093,8.1093,8.1093,8.1093,8.1093,8.1093,8.1093,8.1093,8.1093,0.0,0.0,0.0,0.0,0.0,0.0,3.7382,3.9715,4.197,0.0,4.6586,4.9433,5.0933,5.2702,5.4475,5.6078,5.656,5.7409,5.932,6.0184,6.0602,6.0602,6.0641,6.0646,6.0732,6.091,6.111,6.1334,6.1573,6.1699,6.172,6.172,6.1701,6.1719,6.1719,6.1719,6.1719,6.1719,6.1719,6.1719,6.1719,6.1719,6.1719,6.1719,6.1719,6.1719,6.1719,6.1719,6.1719,6.1719,6.2656,6.418,6.4258,6.5312,6.6758,6.6875,6.6914,6.6914,6.6914,6.6914,6.6914,6.6914,6.8039,6.9728,7.149,7.1993,7.1976,7.1867,7.1838,7.1858,7.1976,7.1987,7.1969,7.1848,7.1718,7.2308,7.4911,7.598,7.6374,7.6118,7.6062,7.6005,7.6015,7.6015,7.6015,7.6015,7.6015,7.6015,7.6015,7.6015,7.6015,7.6015,7.6015,7.6015,7.6015,7.6015,7.7284,8.0323,8.09,8.1093,8.1093,8.1093,8.1093,8.1093,8.1093,8.1093,8.1093,8.1093,8.1093,8.1093,8.1093,8.1093,0.0,0.0,3.6098,3.5636,0.0,0.0,3.592,3.7963,4.0044,0.0,4.3948,4.6432,4.6778,4.8779,5.0529,5.0932,5.2724,5.5172,5.8374,5.8838,5.8893,5.8893,5.8847,5.8869,5.8993,5.9082,5.9512,6.0389,6.1244,6.1715,6.172,6.172,6.1701,6.1719,6.1719,6.1719,6.1719,6.1719,6.1719,6.1719,6.1719,6.1719,6.1719,6.1719,6.1719,6.1719,6.1719,6.1719,6.1719,6.1719,6.2305,6.332,6.4023,6.4922,6.5937,6.664,6.6914,6.6914,6.6914,6.6914,6.6914,6.6914,6.7734,6.9178,7.1326,7.2017,7.1987,7.1976,7.1969,7.1969,7.1987,7.1987,7.1969,7.1848,7.1718,7.1702,7.2142,7.4534,7.6614,7.6575,7.6427,7.625,7.6072,7.6015,7.6015,7.6015,7.6015,7.6015,7.6015,7.6015,7.6015,7.6015,7.6015,7.6015,7.6015,7.6015,7.6284,7.6938,7.9592,8.1093,8.1093,8.1093,8.1093,8.1093,8.1093,8.1093,8.1093,8.1093,8.1093,8.1093,8.1093,8.1093,3.9283,3.8715,3.8007,3.8007,0.0,0.0,0.0,3.6779,3.8012,3.7998,4.0385,4.2579,4.3041,4.4526,4.6121,4.7444,4.9065,5.1125,5.3781,5.5865,5.7082,5.7119,5.7439,5.7687,5.7793,5.8315,5.8877,5.9542,6.0495,6.1037,6.1045,6.1475,6.1713,6.1719,6.1719,6.1719,6.1719,6.1719,6.1719,6.1719,6.1719,6.1719,6.1719,6.1719,6.1719,6.1719,6.1719,6.1719,6.1719,6.1719,6.1953,6.2461,6.3789,6.4844,6.5703,6.6562,6.6914,6.6914,6.6914,6.6914,6.6914,6.6914,6.7305,6.8164,7.0469,7.156,7.1981,7.1981,7.1981,7.1981,7.1981,7.1981,7.1971,7.1916,7.1817,7.1637,7.1493,7.2888,7.4667,7.6376,7.6614,7.6427,7.6062,7.6015,7.6015,7.6015,7.6015,7.6015,7.6015,7.6015,7.6015,7.6015,7.6015,7.6015,7.6015,7.6015,7.6015,7.6015,7.7592,7.8554,7.8554,8.0208,8.1093,8.1093,8.1093,8.1093,8.1093,8.1093,8.1093,8.1093,8.1093,8.1093,0.0,0.0,0.0,0.0,0.0,3.6699,0.0,0.0,0.0,3.5391,3.7151,0.0,0.0,0.0,0.0,0.0,0.0,0.0,0.0,5.1348,0.0,5.4747,5.5553,5.6066,5.6143,5.7214,5.7987,5.8242,5.93,5.9917,5.9922,6.0898,6.1445,6.1445,6.1601,6.1719,6.1719,6.1719,6.1719,6.1719,6.1719,6.1719,6.1719,6.1719,6.1719,6.1719,6.1719,6.1719,6.1719,6.1719,6.1719,6.1875,6.3633,6.4726,6.5469,6.6523,6.6914,6.6914,6.6914,6.6914,6.6914,6.6914,6.7031,6.7656,6.9922,7.1289,7.1992,7.1992,7.1992,7.1992,7.1992,7.1992,7.1991,7.201,7.1916,7.1778,7.169,7.1645,7.2656,7.6077,7.6743,7.6555,7.609,7.6015,7.6015,7.6015,7.6015,7.6015,7.6015,7.6015,7.6015,7.6015,7.6015,7.6015,7.6015,7.6015,7.6015,7.6015,7.6015,7.6015,7.6015,7.8669,8.0439,8.1093,8.1093,8.1093,8.1093,8.1093,8.1093,8.1093,8.1093,8.1093,0.0,0.0,0.0,0.0,3.9153,0.0,0.0,0.0,3.4468,3.4353,0.0,0.0,0.0,0.0,0.0,0.0,0.0,0.0,4.2763,4.4506,4.7171,5.093,5.2068,5.2564,5.2658,5.4336,5.5458,5.5618,5.7211,5.8198,5.8164,5.9687,6.0547,6.0547,6.1289,6.1719,6.1719,6.1719,6.1719,6.1719,6.1719,6.1719,6.1719,6.1719,6.1719,6.1719,6.1719,6.1719,6.1719,6.1719,6.1719,6.1875,6.3633,6.4375,6.4648,6.6289,6.6914,6.6914,6.6914,6.6914,6.6914,6.6914,6.7578,6.8828,7.1133,7.1914,7.1992,7.1992,7.1992,7.1992,7.1992,7.1992,7.1992,7.1991,7.1975,7.1955,7.1827,7.1794,7.2807,7.6274,7.6825,7.6555,7.609,7.6015,7.6015,7.6015,7.6015,7.6015,7.6015,7.6015,7.6015,7.6015,7.6015,7.6015,7.6015,7.6015,7.6015,7.6015,7.6015,7.6015,7.6015,7.6361,7.8015,8.1054,8.1093,8.1093,8.1093,8.1093,8.1093,8.1093,8.1093,8.1093,0.0,0.0,0.0,0.0,0.0,0.0,3.5778,0.0,3.4327,0.0,0.0,0.0,0.0,0.0,0.0,0.0,3.8401,0.0,0.0,0.0,4.2937,0.0,0.0,0.0,5.0583,5.1939,5.2569,5.2203,5.4312,5.5848,5.6367,5.8008,5.9414,6.0351,6.0742,6.1172,6.1719,6.1719,6.1719,6.1719,6.1719,6.1719,6.1719,6.1719,6.1719,6.1719,6.1719,6.1719,6.1719,6.1719,6.1719,6.1875,6.3633,6.4297,6.4492,6.625,6.6914,6.6914,6.6914,6.6914,6.6914,6.6914,6.7656,6.8828,7.0117,7.1211,7.1992,7.1992,7.1992,7.1992,7.1992,7.1992,7.1992,7.1992,7.1981,7.1969,7.1838,7.1719,7.2132,7.3572,7.5292,7.6405,7.6062,7.6015,7.6015,7.6015,7.6015,7.6015,7.6015,7.6015,7.6015,7.6015,7.6015,7.6015,7.6015,7.6015,7.6015,7.6015,7.6015,7.6015,7.6015,7.6015,7.6669,7.8092,8.0092,8.1093,8.1093,8.1093,8.1093,8.1093,8.1093,8.1093,4.82,0.0,0.0,0.0,0.0,0.0,0.0,0.0,0.0,0.0,0.0,0.0,0.0,0.0,0.0,0.0,0.0,3.7031,0.0,3.817,0.0,0.0,0.0,0.0,0.0,4.9264,4.9596,4.934,5.1542,5.3425,5.4531,5.6484,5.832,6.0039,6.0273,6.082,6.168,6.1719,6.1719,6.1719,6.1719,6.1719,6.1719,6.1719,6.1719,6.1719,6.1719,6.1719,6.1719,6.1719,6.1836,6.2226,6.3711,6.4453,6.4844,6.6367,6.6914,6.6914,6.6914,6.6914,6.6914,6.6914,6.7461,6.8203,6.8594,7.0234,7.1992,7.1992,7.1992,7.1992,7.1992,7.1992,7.1992,7.1992,7.1981,7.1969,7.1838,7.1679,7.1581,7.1529,7.4147,7.6326,7.6072,7.6015,7.6015,7.6015,7.6015,7.6015,7.6015,7.6015,7.6015,7.6015,7.6015,7.6015,7.6015,7.6015,7.6015,7.6015,7.6015,7.6015,7.6015,7.6015,7.6015,7.6015,7.9361,8.1093,8.1093,8.1093,8.1093,8.1093,8.1093,8.1093,0.0,0.0,0.0,4.495,0.0,0.0,0.0,0.0,3.5713,0.0,0.0,0.0,0.0,0.0,0.0,0.0,0.0,0.0,0.0,0.0,0.0,0.0,0.0,0.0,0.0,4.616,4.6651,0.0,4.922,5.0972,5.2695,5.5234,5.7422,5.918,6.0,6.082,6.168,6.1719,6.1719,6.1719,6.1719,6.1719,6.1719,6.1719,6.1719,6.1719,6.1719,6.1719,6.1719,6.1719,6.2187,6.3047,6.3945,6.4805,6.5664,6.6562,6.6914,6.6914,6.6914,6.6914,6.6914,6.6914,6.6914,6.6953,6.6953,6.9336,7.1992,7.1992,7.1992,7.1992,7.1992,7.1992,7.1992,7.1992,7.1981,7.1969,7.1838,7.1679,7.1547,7.1355,7.4077,7.6326,7.6072,7.6015,7.6015,7.6015,7.6015,7.6015,7.6015,7.6015,7.6015,7.6015,7.6015,7.6015,7.6015,7.6015,7.6015,7.6015,7.6015,7.6015,7.6015,7.6015,7.6015,7.6015,7.9361,8.1093,8.1093,8.1093,8.1093,8.1093,8.1093,8.1093,0.0,0.0,4.7903,4.669,0.0,0.0,0.0,0.0,0.0,0.0,0.0,0.0,0.0,0.0,0.0,0.0,0.0,0.0,0.0,0.0,0.0,0.0,0.0,0.0,0.0,0.0,0.0,0.0,4.6491,0.0,5.0117,5.3164,5.5937,5.8281,5.914,6.0273,6.168,6.1719,6.1719,6.1719,6.1719,6.1719,6.1719,6.1719,6.1719,6.1719,6.1719,6.1719,6.1719,6.1719,6.2226,6.3086,6.3945,6.4844,6.5703,6.6562,6.6914,6.6914,6.6914,6.6914,6.6914,6.6914,6.6914,6.6914,6.6914,6.9297,7.1992,7.1992,7.1992,7.1992,7.1992,7.1992,7.1992,7.1992,7.1919,7.1848,7.1718,7.1417,7.1116,7.1056,7.3805,7.609,7.6044,7.6015,7.6015,7.6015,7.6015,7.6015,7.6015,7.6015,7.6015,7.6015,7.6015,7.6015,7.6015,7.6015,7.6015,7.6015,7.6015,7.6015,7.6015,7.6015,7.6015,7.6015,7.713,7.8823,8.1093,8.1093,8.1093,8.1093,8.1093,8.1093,5.3799,5.2083,0.0,4.8944,4.588,0.0,4.2589,0.0,4.1106,0.0,0.0,0.0,0.0,0.0,0.0,0.0,0.0,0.0,0.0,3.2979,0.0,0.0,0.0,0.0,0.0,0.0,4.0974,4.1084,4.4266,0.0,0.0,5.1836,5.4883,5.7812,5.875,6.0,6.168,6.1719,6.1719,6.1719,6.1719,6.1719,6.1719,6.1719,6.1719,6.1719,6.1719,6.1719,6.1719,6.1719,6.2383,6.3515,6.4062,6.5039,6.6133,6.668,6.6914,6.6914,6.6914,6.6914,6.6914,6.6914,6.6914,6.6914,6.6914,6.9297,7.1992,7.1992,7.1992,7.1992,7.1992,7.1992,7.1992,7.1992,7.1909,7.1743,7.163,7.1231,7.0898,7.0898,7.2668,7.4553,7.5784,7.6015,7.6005,7.6118,7.6145,7.6145,7.6145,7.6034,7.6015,7.6015,7.6015,7.6015,7.6015,7.6015,7.6015,7.6015,7.6015,7.6015,7.6015,7.6015,7.6015,7.6015,7.6015,7.7092,7.9285,7.9285,7.99,8.1093,8.1093,8.1093]},{"header":{"parameterUnit":"m.s-1","parameterCategory":1,"la1":30.6,"la2":29.2853,"lo1":-89.7004,"lo2":-87.6739,"dy":0.0162,"dx":0.0183,"nx":112,"ny":82,"refTime":"2025-01-08T06:00:00:Z","depth":0,"parameterNumber":3,"parameterNumberName":"V-component_of_WINDS"},"data":[0.0,0.0,0.0,0.0,0.0,0.0,0.0,0.0,0.0,0.0,0.0,0.0,0.0,0.0,0.0,0.0,0.0,0.0,0.0,0.0,0.0,0.0,0.0,0.0,0.0,0.0,0.0,0.0,0.0,0.0,0.0,0.0,0.0,0.0,0.0,0.0,0.0,0.0,0.0,0.0,0.0,0.0,0.0,0.0,0.0,0.0,0.0,0.0,0.0,0.0,0.0,0.0,0.0,0.0,0.0,0.0,0.0,0.0,0.0,0.0,0.0,0.0,0.0,0.0,0.0,0.0,0.0,0.0,0.0,0.0,0.0,0.0,0.0,0.0,0.0,0.0,0.0,0.0,0.0,0.0,0.0,0.0,0.0,0.0,0.0,0.0,0.0,0.0,0.0,0.0,-1.5141,-1.4432,-1.2459,-1.0966,-1.056,-0.88,-0.7543,-0.7163,0.0,0.0,0.0,0.0,0.0,0.0,0.0,0.0,0.0,0.0,0.0,0.0,0.0,0.0,0.0,0.0,0.0,0.0,0.0,0.0,0.0,0.0,0.0,0.0,0.0,0.0,0.0,0.0,0.0,0.0,0.0,0.0,0.0,0.0,0.0,0.0,0.0,0.0,0.0,0.0,0.0,0.0,0.0,0.0,0.0,0.0,0.0,0.0,0.0,0.0,0.0,0.0,0.0,0.0,0.0,0.0,0.0,0.0,0.0,0.0,0.0,0.0,0.0,0.0,0.0,0.0,0.0,0.0,0.0,0.0,0.0,0.0,0.0,0.0,0.0,0.0,0.0,0.0,0.0,0.0,0.0,0.0,0.0,0.0,0.0,0.0,0.0,0.0,0.0,0.0,0.0,0.0,0.0,0.0,0.0,0.0,0.0,0.0,0.0,0.0,0.0,0.0,0.0,0.0,-1.5141,-1.476,-1.2919,-1.144,-1.0773,-0.9183,-0.7875,-0.7183,0.0,0.0,0.0,0.0,0.0,0.0,0.0,0.0,0.0,0.0,0.0,0.0,0.0,0.0,0.0,0.0,0.0,0.0,0.0,0.0,0.0,0.0,0.0,0.0,0.0,0.0,0.0,0.0,0.0,0.0,0.0,0.0,0.0,0.0,0.0,0.0,0.0,0.0,0.0,0.0,0.0,0.0,0.0,0.0,0.0,0.0,0.0,0.0,0.0,0.0,0.0,0.0,0.0,0.0,0.0,0.0,0.0,0.0,0.0,0.0,0.0,0.0,0.0,0.0,0.0,0.0,0.0,0.0,0.0,0.0,0.0,0.0,0.0,0.0,0.0,0.0,0.0,0.0,0.0,0.0,0.0,0.0,0.0,0.0,0.0,0.0,0.0,0.0,0.0,0.0,0.0,0.0,0.0,0.0,0.0,0.0,0.0,0.0,0.0,0.0,0.0,0.0,0.0,-1.5479,-1.5484,-1.5094,-1.3197,-1.1699,-1.0962,-0.9308,-0.7984,-0.7305,-0.6281,0.0,0.0,0.0,0.0,0.0,0.0,0.0,0.0,0.0,0.0,0.0,0.0,0.0,0.0,0.0,0.0,0.0,0.0,0.0,0.0,0.0,0.0,0.0,0.0,0.0,0.0,0.0,0.0,0.0,0.0,0.0,0.0,0.0,0.0,0.0,0.0,0.0,0.0,0.0,0.0,0.0,0.0,0.0,0.0,0.0,0.0,0.0,0.0,0.0,0.0,0.0,0.0,0.0,0.0,0.0,0.0,0.0,0.0,0.0,0.0,0.0,0.0,0.0,0.0,0.0,0.0,0.0,0.0,0.0,0.0,0.0,0.0,0.0,0.0,0.0,0.0,0.0,0.0,0.0,0.0,0.0,0.0,0.0,0.0,0.0,0.0,0.0,0.0,0.0,0.0,0.0,0.0,0.0,0.0,0.0,0.0,0.0,0.0,0.0,0.0,0.0,0.0,-1.5694,-1.5607,-1.5114,-1.3321,-1.1782,-1.1029,-0.9297,-0.8052,-0.7414,-0.6383,0.0,0.0,0.0,0.0,0.0,0.0,0.0,0.0,0.0,0.0,0.0,0.0,0.0,0.0,0.0,0.0,0.0,0.0,0.0,0.0,0.0,0.0,0.0,0.0,0.0,0.0,0.0,0.0,0.0,0.0,0.0,0.0,0.0,0.0,0.0,0.0,0.0,0.0,0.0,0.0,0.0,0.0,0.0,0.0,0.0,0.0,0.0,0.0,0.0,0.0,0.0,0.0,0.0,0.0,0.0,0.0,0.0,0.0,0.0,0.0,0.0,0.0,0.0,0.0,0.0,0.0,0.0,0.0,0.0,0.0,0.0,0.0,0.0,0.0,0.0,0.0,0.0,0.0,0.0,0.0,0.0,0.0,0.0,0.0,0.0,0.0,0.0,0.0,0.0,0.0,0.0,0.0,0.0,0.0,0.0,0.0,0.0,0.0,0.0,0.0,0.0,0.0,-1.5332,-1.5481,-1.4505,-1.3203,-1.1979,-1.087,-0.9356,-0.8153,-0.7414,-0.6383,0.0,0.0,0.0,0.0,0.0,0.0,0.0,0.0,0.0,0.0,0.0,0.0,0.0,0.0,0.0,0.0,0.0,0.0,0.0,0.0,0.0,0.0,0.0,0.0,0.0,0.0,0.0,0.0,0.0,0.0,0.0,0.0,0.0,0.0,0.0,0.0,0.0,0.0,0.0,0.0,0.0,0.0,0.0,0.0,0.0,0.0,0.0,0.0,0.0,0.0,0.0,0.0,0.0,0.0,0.0,0.0,0.0,0.0,0.0,0.0,0.0,0.0,0.0,0.0,0.0,0.0,0.0,0.0,0.0,0.0,0.0,0.0,0.0,0.0,0.0,0.0,0.0,0.0,0.0,0.0,0.0,0.0,0.0,0.0,0.0,0.0,0.0,0.0,0.0,0.0,0.0,0.0,0.0,0.0,0.0,0.0,0.0,0.0,0.0,0.0,0.0,0.0,-1.5779,-1.5615,0.0,-1.3189,-1.1887,-1.0902,-0.937,-0.8126,-0.7278,0.0,0.0,0.0,0.0,0.0,0.0,0.0,0.0,0.0,0.0,0.0,0.0,0.0,0.0,0.0,0.0,0.0,0.0,0.0,0.0,0.0,0.0,0.0,0.0,0.0,0.0,0.0,0.0,0.0,0.0,0.0,0.0,0.0,0.0,0.0,0.0,0.0,0.0,0.0,0.0,0.0,0.0,0.0,0.0,0.0,0.0,0.0,0.0,0.0,0.0,0.0,0.0,0.0,0.0,0.0,0.0,0.0,0.0,0.0,0.0,0.0,0.0,0.0,0.0,0.0,0.0,0.0,0.0,0.0,0.0,0.0,0.0,0.0,0.0,0.0,0.0,0.0,0.0,0.0,0.0,0.0,0.0,0.0,0.0,0.0,0.0,0.0,0.0,0.0,0.0,0.0,0.0,0.0,0.0,0.0,0.0,0.0,0.0,0.0,0.0,0.0,0.0,-1.5346,-1.5813,-1.5553,0.0,-1.2949,-1.1725,-1.0562,-0.9261,-0.8099,-0.7197,0.0,0.0,0.0,0.0,0.0,0.0,0.0,0.0,0.0,0.0,0.0,0.0,0.0,0.0,0.0,0.0,0.0,0.0,0.0,0.0,0.0,0.0,0.0,0.0,0.0,0.0,0.0,0.0,0.0,0.0,0.0,0.0,0.0,0.0,0.0,0.0,0.0,0.0,0.0,0.0,0.0,0.0,0.0,0.0,0.0,0.0,0.0,0.0,0.0,0.0,0.0,0.0,0.0,0.0,0.0,0.0,0.0,0.0,0.0,0.0,0.0,0.0,0.0,0.0,0.0,0.0,0.0,0.0,0.0,0.0,0.0,0.0,0.0,0.0,0.0,0.0,0.0,0.0,0.0,0.0,0.0,0.0,0.0,0.0,0.0,0.0,0.0,0.0,0.0,0.0,0.0,0.0,0.0,0.0,0.0,0.0,0.0,0.0,0.0,0.0,0.0,0.0,-1.4753,-1.5345,-1.5033,-1.3098,-1.2487,-1.1614,-0.9982,-0.905,-0.8099,0.0,0.0,0.0,0.0,0.0,0.0,0.0,0.0,0.0,0.0,0.0,0.0,0.0,0.0,0.0,0.0,0.0,0.0,0.0,0.0,0.0,0.0,0.0,0.0,0.0,0.0,0.0,0.0,0.0,0.0,0.0,0.0,0.0,0.0,0.0,0.0,0.0,0.0,0.0,0.0,0.0,0.0,0.0,0.0,0.0,0.0,0.0,0.0,0.0,0.0,0.0,0.0,0.0,0.0,0.0,0.0,0.0,0.0,0.0,0.0,0.0,0.0,0.0,0.0,0.0,0.0,0.0,0.0,0.0,0.0,0.0,0.0,0.0,0.0,0.0,0.0,0.0,0.0,0.0,0.0,0.0,0.0,0.0,0.0,0.0,0.0,0.0,0.0,0.0,0.0,0.0,0.0,0.0,0.0,0.0,0.0,0.0,0.0,0.0,0.0,0.0,0.0,0.0,-1.5489,-1.5763,-1.511,-1.3117,-1.2368,-1.1375,-0.9982,-0.905,-0.8099,-0.7197,0.0,0.0,0.0,0.0,0.0,0.0,0.0,0.0,0.0,0.0,0.0,0.0,0.0,0.0,0.0,0.0,0.0,0.0,0.0,0.0,0.0,0.0,0.0,0.0,0.0,0.0,0.0,0.0,0.0,0.0,0.0,0.0,0.0,0.0,0.0,0.0,0.0,0.0,0.0,0.0,0.0,0.0,0.0,0.0,0.0,0.0,0.0,0.0,0.0,0.0,0.0,0.0,0.0,0.0,0.0,0.0,0.0,0.0,0.0,0.0,0.0,0.0,0.0,0.0,0.0,0.0,0.0,0.0,0.0,0.0,0.0,0.0,0.0,0.0,0.0,0.0,0.0,0.0,0.0,0.0,0.0,0.0,0.0,0.0,0.0,0.0,0.0,0.0,0.0,0.0,0.0,0.0,0.0,0.0,0.0,0.0,0.0,0.0,0.0,0.0,0.0,0.0,-1.5687,-1.5706,-1.4767,-1.2776,-1.2132,-1.1256,-0.9866,-0.8996,-0.8187,-0.7292,0.0,0.0,0.0,0.0,0.0,0.0,0.0,0.0,0.0,0.0,0.0,0.0,0.0,0.0,0.0,0.0,0.0,0.0,0.0,0.0,0.0,0.0,0.0,0.0,0.0,0.0,0.0,0.0,0.0,0.0,0.0,0.0,0.0,0.0,0.0,0.0,0.0,0.0,0.0,0.0,0.0,0.0,0.0,0.0,0.0,0.0,0.0,0.0,0.0,0.0,0.0,0.0,0.0,0.0,0.0,0.0,0.0,0.0,0.0,0.0,0.0,0.0,0.0,0.0,0.0,0.0,0.0,0.0,0.0,0.0,0.0,0.0,0.0,0.0,0.0,0.0,0.0,0.0,0.0,0.0,0.0,0.0,0.0,0.0,0.0,0.0,0.0,0.0,0.0,0.0,0.0,0.0,0.0,0.0,0.0,0.0,0.0,0.0,0.0,0.0,0.0,0.0,-1.5595,-1.5357,-1.4342,-1.2232,-1.1904,-1.1137,-0.9525,-0.8967,-0.8336,-0.7448,0.0,0.0,0.0,0.0,0.0,0.0,0.0,0.0,0.0,0.0,0.0,0.0,0.0,0.0,0.0,0.0,0.0,0.0,0.0,0.0,0.0,0.0,0.0,0.0,0.0,0.0,0.0,0.0,0.0,0.0,0.0,0.0,0.0,0.0,0.0,0.0,0.0,0.0,0.0,0.0,0.0,0.0,0.0,0.0,0.0,0.0,0.0,0.0,0.0,0.0,0.0,0.0,0.0,0.0,0.0,0.0,0.0,0.0,0.0,0.0,-0.6187,0.0,0.0,0.0,0.0,0.0,0.0,0.0,0.0,0.0,0.0,0.0,0.0,0.0,0.0,0.0,0.0,0.0,0.0,0.0,0.0,0.0,0.0,0.0,0.0,0.0,0.0,0.0,0.0,0.0,0.0,0.0,0.0,0.0,0.0,0.0,0.0,0.0,0.0,0.0,0.0,0.0,-1.5631,-1.538,-1.4406,-1.266,-1.2107,-1.1137,-0.9525,-0.8967,-0.8377,-0.7597,-0.6783,0.0,0.0,0.0,0.0,0.0,0.0,0.0,0.0,0.0,0.0,0.0,0.0,0.0,0.0,0.0,0.0,0.0,0.0,0.0,0.0,0.0,0.0,0.0,0.0,0.0,0.0,0.0,0.0,0.0,0.0,0.0,0.0,0.0,0.0,0.0,0.0,0.0,0.0,0.0,0.0,0.0,0.0,0.0,0.0,0.0,0.0,0.0,0.0,0.0,0.0,0.0,0.0,0.0,0.0,0.0,0.0,0.0,0.0,0.0,0.0,-0.6518,0.0,0.0,0.0,0.0,0.0,0.0,0.0,0.0,0.0,0.0,0.0,0.0,0.0,0.0,0.0,0.0,0.0,0.0,0.0,0.0,0.0,0.0,0.0,0.0,0.0,0.0,0.0,0.0,0.0,0.0,0.0,0.0,0.0,0.0,0.0,0.0,0.0,0.0,0.0,0.0,-1.5591,-1.5511,-1.48,-1.3343,-1.238,-1.1137,-0.9641,-0.9103,-0.8608,-0.7862,-0.717,0.0,0.0,0.0,0.0,0.0,0.0,0.0,0.0,0.0,0.0,0.0,0.0,0.0,0.0,0.0,0.0,0.0,0.0,0.0,0.0,0.0,0.0,0.0,0.0,0.0,0.0,0.0,0.0,0.0,0.0,0.0,0.0,0.0,0.0,0.0,0.0,0.0,0.0,0.0,0.0,0.0,0.0,0.0,0.0,0.0,0.0,0.0,0.0,0.0,0.0,0.0,0.0,0.0,-0.905,-0.8761,-0.8519,-0.8129,-0.7849,-0.7637,-0.7052,-0.6781,-0.6827,-0.7151,0.0,0.0,0.0,0.0,0.0,0.0,0.0,0.0,0.0,0.0,0.0,0.0,0.0,0.0,0.0,0.0,0.0,0.0,0.0,0.0,0.0,0.0,0.0,0.0,-1.127,-1.1006,0.0,0.0,0.0,0.0,0.0,0.0,0.0,0.0,0.0,0.0,0.0,0.0,-1.5845,-1.578,-1.5199,-1.4025,-1.2645,-1.1152,-0.9683,-0.9373,-0.8866,-0.8201,-0.759,-0.6946,0.0,0.0,0.0,0.0,0.0,0.0,0.0,0.0,0.0,0.0,0.0,0.0,0.0,0.0,0.0,0.0,0.0,0.0,0.0,0.0,0.0,0.0,0.0,0.0,0.0,0.0,0.0,0.0,0.0,0.0,0.0,0.0,-0.5992,-0.5848,0.0,0.0,0.0,0.0,0.0,0.0,0.0,0.0,0.0,0.0,0.0,0.0,0.0,-0.9035,-0.9164,-0.952,-0.9518,-0.9178,-0.9004,-0.8866,-0.8681,-0.815,-0.8007,-0.7899,-0.7872,0.0,-0.6807,-0.759,0.0,0.0,0.0,0.0,0.0,0.0,0.0,0.0,0.0,0.0,0.0,0.0,0.0,0.0,0.0,0.0,0.0,0.0,0.0,0.0,0.0,0.0,-1.1373,-1.1198,-1.1194,-1.1179,0.0,-1.0983,-1.1083,-1.1702,-1.1061,0.0,0.0,0.0,0.0,0.0,0.0,0.0,-1.7064,-1.6361,-1.5153,-1.3865,-1.2603,-1.1199,-0.9836,-0.9435,-0.9113,-0.8755,-0.8058,-0.7502,-0.7014,-0.6424,0.0,0.0,0.0,0.0,0.0,0.0,0.0,0.0,0.0,0.0,0.0,0.0,0.0,0.0,0.0,0.0,0.0,0.0,0.0,0.0,0.0,0.0,0.0,0.0,0.0,0.0,0.0,0.0,0.0,-0.6241,-0.6221,-0.5949,-0.6112,-0.6188,0.0,0.0,0.0,0.0,0.0,0.0,0.0,0.0,0.0,-0.8968,-0.9313,-0.9437,-0.9414,-0.9934,-0.9977,-0.9544,-0.9651,-0.9574,-0.9353,-0.9118,-0.9036,-0.8967,-0.8944,-0.8729,-0.835,-0.776,-0.7389,-0.7368,0.0,0.0,0.0,0.0,-0.8578,-0.8388,-0.8751,-0.9112,0.0,-0.9714,0.0,0.0,0.0,0.0,0.0,0.0,0.0,0.0,0.0,0.0,-1.0207,-0.9969,-0.9933,-1.012,-1.0768,-1.0554,-1.0514,0.0,-1.1727,-1.141,-1.0277,0.0,0.0,0.0,0.0,-1.4927,-1.7324,-1.6473,-1.5069,-1.3794,-1.1864,-1.0456,-0.9863,-0.9607,-0.9367,-0.8975,-0.8618,-0.8179,-0.7636,-0.7027,-0.6478,0.0,0.0,0.0,0.0,0.0,0.0,0.0,0.0,0.0,0.0,0.0,0.0,0.0,0.0,0.0,0.0,0.0,0.0,0.0,0.0,0.0,0.0,0.0,0.0,0.0,0.0,0.0,0.0,-0.6522,-0.6584,-0.6242,-0.6359,-0.6536,0.0,0.0,0.0,0.0,0.0,0.0,-0.8344,-0.8528,-0.8878,-0.9438,-0.9633,-0.9776,-0.9654,-1.017,-1.0252,-0.9905,-1.0179,-1.0183,-1.0067,-1.0067,-1.0067,-1.006,-0.9829,-0.982,-0.9849,-0.8175,-0.7572,-0.7711,-0.8744,-0.9571,-1.0223,-1.0166,-0.9768,-0.9155,-0.9372,-0.9251,-0.9178,-0.9485,0.0,-0.9429,-1.0057,0.0,0.0,0.0,0.0,-1.1548,-1.1119,-1.0236,-0.9389,-0.9197,-0.9145,-0.9385,-1.0132,-0.9808,-0.975,0.0,-1.1843,-1.2047,-1.1303,0.0,0.0,0.0,0.0,-1.5235,-1.7315,-1.6478,-1.5128,-1.3813,-1.1358,-0.9847,-0.9792,-0.9758,-0.9573,-0.9188,-0.8989,-0.873,-0.8259,-0.7629,-0.7034,-0.6524,0.0,0.0,0.0,0.0,0.0,0.0,0.0,0.0,0.0,0.0,0.0,0.0,0.0,0.0,0.0,0.0,0.0,0.0,0.0,0.0,0.0,0.0,0.0,0.0,0.0,0.0,0.0,0.0,0.0,-0.6716,-0.6951,0.0,0.0,0.0,0.0,-0.7687,-0.8136,-0.849,-0.8682,-0.8924,-0.9219,-0.9434,-0.9481,-0.9593,-0.9761,-0.993,-1.0019,-1.0143,-1.0307,-1.0517,-1.0651,-1.0651,-1.0651,-1.0651,-1.0644,-1.0545,-1.0211,-0.9205,-0.8791,-0.8948,-1.0096,-1.0664,-1.0638,-1.0647,-1.0661,-1.0486,-0.9275,-0.8932,-0.89,-0.8941,-0.9245,-0.9767,-1.0817,-1.1211,0.0,0.0,-1.2575,-1.2072,-1.1026,-0.9854,-0.9103,-0.9589,-0.9703,-0.9645,-0.915,-0.8977,-0.9435,0.0,-1.122,-1.1273,-1.1274,0.0,-1.2611,-1.2651,-1.4447,-1.6147,-1.7477,-1.6422,-1.5088,-1.3822,-1.1358,-0.9768,-0.9808,-0.9813,-0.978,-0.9729,-0.9202,-0.8838,-0.8896,-0.8252,-0.7688,-0.7083,-0.6524,0.0,0.0,0.0,0.0,0.0,0.0,0.0,0.0,0.0,0.0,0.0,0.0,0.0,0.0,0.0,0.0,0.0,0.0,0.0,0.0,0.0,0.0,0.0,0.0,0.0,0.0,0.0,0.0,-0.7334,-0.759,0.0,-0.7907,-0.8117,-0.8321,-0.8386,-0.8656,-0.8962,-0.9106,-0.9377,-0.9538,-0.9847,-0.9883,-1.0012,-1.0114,-1.0263,-1.0337,-1.0337,-1.0493,-1.0568,-1.0699,-1.0699,-1.0699,-1.0692,-1.0596,-1.052,-1.0565,-1.0074,-0.9765,-0.9525,-0.9946,-1.0156,-1.0156,-1.0156,-1.0077,-1.0004,-0.9641,-0.9504,-0.9428,-0.9238,-0.9349,-0.9587,-1.0355,-1.0647,-1.0742,-1.1254,-1.1372,-1.1076,-1.035,-0.981,-0.9552,-0.9806,-0.9849,-0.9752,-0.958,-0.9483,-0.9681,-1.0239,-1.0644,-1.0717,-1.0272,-1.1067,-1.2015,-1.2619,-1.4495,-1.6273,-1.7372,-1.6433,-1.5131,-1.3832,-1.1366,-0.9781,-0.9815,-0.9813,-0.9787,-0.975,-0.9222,-0.8893,-0.8855,-0.8535,-0.8115,-0.7685,-0.7119,-0.6535,0.0,0.0,0.0,0.0,0.0,0.0,0.0,0.0,0.0,0.0,0.0,0.0,0.0,0.0,0.0,0.0,0.0,0.0,0.0,0.0,0.0,0.0,0.0,0.0,0.0,0.0,-0.8303,-0.7959,-0.822,-0.8515,-0.8612,-0.8822,-0.8976,-0.9071,-0.9273,-0.9523,-0.9591,-0.9754,-0.9951,-1.0188,-1.0297,-1.0378,-1.0426,-1.0521,-1.0568,-1.0568,-1.067,-1.0717,-1.0717,-1.0717,-1.0717,-1.0717,-1.0616,-1.0568,-1.0699,-1.0596,-1.0304,-1.01,-1.0129,-1.0095,-1.0095,-1.0095,-1.0095,-1.0095,-1.0095,-0.9998,-0.9975,-0.9766,-0.9655,-0.9788,-1.0092,-1.0181,-1.013,-1.0308,-1.0424,-1.0241,-0.9881,-0.9794,-0.9792,-0.9799,-0.9806,-0.9806,-0.9806,-0.9842,-0.9759,-0.9821,-0.9943,-0.9953,-0.9482,-1.0277,-1.1298,-1.2002,-1.4158,-1.6053,-1.6774,-1.6113,-1.499,-1.3213,-1.1125,-0.9768,-0.9754,-0.9786,-0.9745,-0.9488,-0.9161,-0.8784,-0.864,-0.8431,-0.8231,-0.8009,-0.7426,-0.6842,-0.6324,0.0,0.0,0.0,0.0,0.0,0.0,0.0,0.0,0.0,0.0,0.0,0.0,0.0,0.0,0.0,0.0,0.0,0.0,0.0,0.0,0.0,0.0,0.0,-0.799,-0.8621,-0.8989,-0.8577,-0.8899,-0.9178,-0.9184,-0.9449,-0.9625,-0.9632,-0.9897,-1.0059,-1.0066,-1.0209,-1.0351,-1.0493,-1.05,-1.0568,-1.0717,-1.0717,-1.0717,-1.0717,-1.0717,-1.0717,-1.0717,-1.0717,-1.0717,-1.0717,-1.0717,-1.0717,-1.0717,-1.0717,-1.0717,-1.069,-1.067,-1.0686,-1.0686,-1.0686,-1.0686,-1.0686,-1.0686,-1.0573,-1.0322,-1.0315,-1.0327,-1.0293,-0.9905,-0.9849,-0.9808,-0.9778,-0.9849,-0.9856,-0.9856,-0.9847,-0.9836,-0.9829,-0.9829,-0.9829,-0.9822,-0.9822,-0.9781,-0.9765,-0.9374,-0.8931,-0.8897,-0.9913,-1.0643,-1.0651,-1.3409,0.0,-1.5544,-1.5537,-1.457,-1.2105,-1.0627,-0.9847,-0.9744,-0.9731,-0.9531,-0.8967,-0.8927,-0.8615,-0.8077,-0.7948,-0.8019,-0.8014,-0.7365,-0.6841,-0.6303,0.0,0.0,0.0,0.0,0.0,0.0,0.0,0.0,0.0,0.0,0.0,0.0,0.0,0.0,0.0,0.0,0.0,0.0,0.0,0.0,0.0,-0.8414,-0.855,-0.8225,-0.8823,-0.9233,-0.9209,-0.9429,-0.968,-0.9795,-0.9876,-0.9971,-1.0086,-1.0168,-1.0263,-1.0365,-1.0412,-1.05,-1.0656,-1.0656,-1.0677,-1.0717,-1.0717,-1.0717,-1.0717,-1.0717,-1.0717,-1.0717,-1.0717,-1.0717,-1.0717,-1.0717,-1.0717,-1.0717,-1.0717,-1.0717,-1.0711,-1.0767,-1.0733,-1.0733,-1.0733,-1.0733,-1.0719,-1.0473,-1.0405,-1.0351,-1.0376,-1.0314,-1.0273,-1.0232,-1.0211,-1.008,-1.0032,-1.0053,-1.0086,-1.0093,-0.9995,-0.9738,-0.9757,-0.9861,-0.9828,-0.9842,-0.9822,-0.9808,-0.9774,-0.9693,-0.9564,-0.9571,-0.9846,-1.0089,-1.0077,-1.1695,0.0,-1.4074,-1.4182,-1.3611,-1.1993,-1.0649,-0.9747,-0.9744,-0.9386,-0.9063,-0.896,-0.8507,-0.8184,-0.7962,-0.7958,-0.8011,-0.8014,-0.74,-0.7034,0.0,0.0,0.0,0.0,0.0,0.0,0.0,0.0,0.0,0.0,0.0,0.0,0.0,0.0,0.0,0.0,0.0,0.0,0.0,0.0,0.0,0.0,-0.8691,-0.8962,-0.8857,-0.9272,-0.9557,-0.9625,-0.9924,-1.0134,-1.0229,-1.0297,-1.0365,-1.046,-1.0466,-1.05,-1.0582,-1.0649,-1.0724,-1.0812,-1.0873,-1.0907,-1.0907,-1.0907,-1.0907,-1.0907,-1.0846,-1.0812,-1.0812,-1.0751,-1.0717,-1.0717,-1.0717,-1.0717,-1.0717,-1.0717,-1.0717,0.0,0.0,0.0,0.0,0.0,-1.0717,-1.0711,-1.0616,-1.0582,-1.0575,-1.0493,-1.0466,-1.0453,-1.0385,-1.0371,-1.0358,-1.0169,-1.0149,-1.0149,-1.0283,-1.0149,-1.0122,-1.0168,-1.0148,-0.9995,-1.0032,-1.0012,-1.0012,-1.0012,-0.9834,0.0,-0.9806,-0.9842,-0.9815,-0.9744,-1.0979,-1.2124,-1.2835,-1.2871,-1.2388,-1.114,-1.0286,-0.9754,-0.9744,-0.9228,0.0,0.0,0.0,-0.7973,-0.8046,-0.7955,0.0,0.0,0.0,0.0,0.0,0.0,0.0,0.0,-0.6183,-0.6866,0.0,0.0,0.0,0.0,0.0,0.0,0.0,0.0,0.0,0.0,0.0,0.0,0.0,0.0,0.0,0.0,-0.8864,-0.9398,-0.9618,-0.994,-1.0044,-1.0066,-1.0344,-1.0521,-1.0521,-1.0643,-1.0717,-1.0717,-1.0738,-1.0744,-1.0744,0.0,0.0,0.0,0.0,-1.1165,-1.1165,-1.1165,-1.1165,-1.1158,-1.1036,-1.0975,-1.0968,-1.0833,-1.0772,-1.0772,-1.0772,-1.0758,-1.0744,-1.0744,-1.0738,-1.0717,-1.0717,-1.0717,-1.0717,-1.0717,-1.0717,-1.0717,-1.0717,0.0,0.0,-1.0717,-1.0717,-1.0697,-1.0561,-1.0521,-1.0493,-1.0365,-1.0331,-1.0331,-1.0458,-1.0458,-1.0458,-1.07,-1.0565,-1.0304,-1.041,-1.0283,-1.0283,-1.0283,-1.0042,-0.9824,-0.9824,-0.9808,-0.9815,-0.9808,-1.08,-1.155,-1.1558,-1.1558,-1.1065,-0.9964,0.0,0.0,-0.9772,-0.9268,-0.8941,-0.887,-0.8368,-0.8119,-0.8104,-0.8098,-0.8151,-0.8137,-0.813,-0.8077,-0.8066,-0.8639,-0.8938,-0.8945,-0.7395,-0.7311,0.0,0.0,0.0,0.0,0.0,0.0,0.0,0.0,0.0,0.0,0.0,0.0,0.0,0.0,0.0,-0.8941,-0.937,-0.9639,-1.0086,-1.0249,-1.0344,-1.0399,-1.0568,-1.0677,-1.0677,-1.0704,-1.0717,-1.0717,-1.0833,-1.0907,-1.0907,-1.1043,-1.1118,-1.098,-1.1007,-1.102,-1.1165,-1.1165,-1.1165,-1.1303,0.0,0.0,-1.1118,-1.109,-1.1077,-1.1077,-1.1077,-1.1009,-1.0907,-1.0907,-1.0833,-1.0717,-1.0717,-1.0717,-1.0717,-1.0717,-1.0717,-1.0717,-1.0717,-1.0717,-1.0717,-1.0717,-1.0717,-1.0717,-1.0683,-1.0677,0.0,-1.0643,-1.0636,-1.0636,-1.0636,-1.0636,-1.0609,-1.0746,-1.0718,-1.0684,-1.0572,-1.0538,-1.041,-1.041,-1.0256,-1.0236,-1.0236,-1.0005,-0.9815,-0.9808,-1.0051,-1.0214,-1.0204,-1.0232,-1.0032,-0.9771,-0.979,-0.9817,-0.9802,-0.9754,-0.9432,-0.8904,-0.8745,-0.8769,-0.8736,-0.8736,-0.8722,-0.8702,-0.8702,-0.8736,-0.8706,-0.8858,-0.9111,-0.9578,-0.8831,-0.8584,0.0,0.0,0.0,0.0,0.0,0.0,0.0,0.0,0.0,0.0,0.0,-0.7556,-0.8041,0.0,-0.8629,-0.9191,-0.9526,-0.9797,-1.021,-1.0514,-1.0609,-1.0609,-1.067,-1.0717,-1.0717,-1.0652,-1.0699,-1.0699,-1.0697,-1.0913,-1.1056,-1.1192,-1.1134,-1.1134,-1.1208,-1.1389,-1.1389,-1.1389,-1.1389,-1.1396,-1.1454,-1.142,-1.142,-1.1337,-1.1165,-1.1165,-1.1158,-1.098,-1.0913,-1.0839,-1.0766,-1.0692,-1.0751,-1.0717,-1.0717,-1.0717,-1.0717,-1.0717,-1.0717,-1.0717,-1.0717,-1.0717,-1.0717,-1.0717,-1.0717,-1.0717,-1.0717,-1.0717,-1.0717,-1.0717,-1.0717,-1.0717,-1.0704,-1.0761,-1.074,-1.0719,-1.0651,-1.0637,-1.05,-1.05,-1.0439,-1.0385,-1.0385,-1.0202,-1.0046,-0.9915,-1.0039,-0.9942,-0.9876,-1.0022,-1.0188,-1.0263,-1.0276,-1.0222,-1.0198,-0.9978,-0.968,-0.9386,-0.9298,-0.9381,-0.9381,-0.9381,-0.9381,-0.9381,-0.9381,-0.9298,-0.9365,-0.9394,-0.9633,-1.02,-0.9961,-0.9683,0.0,0.0,0.0,0.0,0.0,0.0,0.0,0.0,-0.7326,-0.7353,-0.7738,-0.82,-0.8347,-0.8602,-0.8936,-0.92,-0.9679,-0.9973,-1.0384,-1.0511,-1.0717,-1.0717,-1.0717,-1.0731,-1.0758,-1.0739,-1.0684,-1.0846,-1.0842,-1.0922,-1.1206,-1.1208,-1.1288,-1.1288,-1.1552,-1.1619,-1.1619,-1.1619,-1.1619,-1.1619,-1.164,-1.1585,-1.1578,-1.1454,-1.1392,-1.1253,-1.1219,-1.1067,-1.1054,-1.0906,-1.071,-1.0697,-1.0719,-1.0672,-1.0665,-1.0738,-1.0717,-1.0717,-1.0717,-1.0717,-1.0717,-1.0717,-1.0717,-1.0717,-1.0717,-1.0717,-1.0717,-1.0717,-1.0717,-1.0717,-1.0717,-1.0717,-1.0717,-1.0717,-1.0717,-1.0717,-1.0717,-1.0717,-1.0717,-1.0717,-1.0622,-1.0534,-1.0534,-1.0439,-1.0344,-1.0156,-1.0276,-1.0163,-0.9921,-1.0324,-1.0728,-1.0756,-1.0763,-1.0749,-1.0721,-1.0314,-0.9915,-0.9917,-1.0033,-1.0033,-1.0033,-1.0033,-1.0033,-1.0033,-1.0033,-1.0033,-1.0033,-0.9935,-1.0266,-1.0664,-1.0686,-1.0397,-0.6505,-0.6464,-0.6424,-0.6729,-0.6926,-0.7082,0.0,0.0,-0.7977,-0.8113,-0.8395,-0.8613,-0.8755,-0.9142,-0.9373,-0.9658,-0.996,-1.0384,-1.067,-1.0711,-1.0717,-1.0717,-1.0717,-1.0638,-1.0637,-1.0664,-1.0859,-1.1131,-1.1134,-1.1214,-1.1221,-1.1368,-1.1592,-1.1592,-1.1613,-1.1619,-1.1619,-1.1619,-1.1619,-1.1619,-1.1599,-1.1592,-1.1592,-1.1579,-1.1565,-1.1558,-1.1571,-1.1509,-1.1502,-1.1199,-1.0993,-1.0711,-1.0692,-1.0685,-1.0659,-1.0678,-1.0717,-1.0717,-1.0717,-1.0717,-1.0717,-1.0717,-1.0717,-1.0717,-1.0717,-1.0717,-1.0717,-1.0717,-1.0717,-1.0717,-1.0717,-1.0717,-1.0717,-1.0717,-1.0717,-1.0717,-1.0717,-1.0717,-1.0717,-1.0717,-1.0704,-1.0697,-1.0697,-1.0683,-1.0582,-1.0317,-1.0283,-1.0331,-1.0317,-1.0603,-1.0658,-1.0656,-1.067,-1.0754,-1.0746,-1.06,-1.0637,-1.0622,-1.0622,-1.0622,-1.0622,-1.0622,-1.0622,-1.0622,-1.0622,-1.0622,-1.0622,-1.0635,-1.0575,-1.0711,-1.0733,-1.0658,-0.674,0.0,0.0,0.0,-0.7234,-0.7432,-0.7694,-0.8046,-0.8393,-0.8549,-0.8895,-0.9103,-0.9372,-0.9555,-0.9672,0.0,-1.026,-1.0511,-1.0711,-1.0717,-1.0717,-1.0717,-1.0717,-1.0645,-1.0657,-1.0743,-1.0856,-1.1427,-1.1436,-1.1382,-1.1382,-1.1586,-1.1619,-1.1619,-1.1619,-1.1619,-1.1619,-1.1619,-1.1619,-1.1619,-1.1619,-1.1619,-1.1619,-1.1619,-1.1619,-1.1613,-1.1552,-1.1667,-1.166,-1.1502,-1.1294,-1.1287,-1.1199,-1.1165,-1.1138,-1.0792,-1.0719,-1.0705,-1.0751,-1.0717,-1.0717,-1.0717,-1.0717,-1.0717,-1.0717,-1.0717,-1.0717,-1.0717,-1.0717,-1.0717,-1.0717,-1.0717,-1.0717,-1.0717,-1.0717,-1.0717,-1.0717,-1.0717,-1.0717,-1.0717,-1.0717,-1.0717,-1.0717,-1.0717,-1.0677,-1.0555,-1.0534,-1.0561,-1.0616,-1.0629,-1.0649,-1.0711,-1.0717,-1.0697,-1.0767,-1.0706,-1.0671,-1.0671,-1.0671,-1.0671,-1.0671,-1.0671,-1.0671,-1.0671,-1.0671,-1.0671,-1.0671,-1.0733,-1.0761,-1.0761,-1.069,-1.0704,-0.6955,0.0,0.0,-0.7453,-0.7685,-0.7954,-0.8177,-0.8501,-0.8832,-0.9052,-0.9303,-0.9529,-0.9764,-0.9986,-1.0019,-1.0019,-1.0379,-1.0717,-1.0717,-1.0717,-1.0717,-1.0717,-1.0717,-1.0645,-1.0657,-1.0796,-1.108,-1.1523,-1.1538,-1.1633,-1.1529,-1.1529,-1.1549,-1.159,-1.1556,-1.1529,-1.1529,-1.164,-1.1619,-1.1619,-1.1619,-1.1619,-1.1619,-1.1619,-1.1619,-1.1619,-1.1619,-1.1619,-1.1613,-1.1646,-1.1598,-1.1592,-1.1622,-1.158,-1.1559,-1.1124,-1.09,-1.071,-1.0739,-1.0678,-1.0645,-1.0645,-1.0751,-1.0717,-1.0717,-1.0717,-1.0717,-1.0717,-1.0717,-1.0717,-1.0717,-1.0717,-1.0717,-1.0717,-1.0717,-1.0717,-1.0717,-1.0717,-1.0717,-1.0717,-1.0717,-1.0717,-1.0717,-1.0717,-1.0717,-1.0717,-1.0717,-1.0717,-1.0717,-1.0717,-1.0717,-1.0717,-1.0717,-1.0717,-1.0717,-1.0717,-1.0717,-1.0717,-1.0717,-1.0717,-1.0717,-1.0717,-1.0717,-1.0717,-1.0717,-1.0717,-1.0717,-1.0758,-1.0645,-1.0645,-1.0685,-1.0759,0.0,0.0,-0.7679,-0.8275,-0.8444,-0.8524,-0.8762,-0.9086,-0.9386,-0.9392,-0.9615,-0.9806,-0.9812,-1.0333,-1.0711,-1.0711,-1.0717,-1.0717,-1.0717,-1.0717,-1.0717,-1.0717,-1.0717,-1.0645,-1.0657,-1.1221,-1.1511,-1.1664,-1.1538,-1.1536,-1.1663,-1.167,-1.159,-1.1586,-1.1596,-1.167,-1.167,-1.1543,-1.1619,-1.1619,-1.1619,-1.1619,-1.1619,-1.1619,-1.1619,-1.1619,-1.1619,-1.1619,-1.1619,-1.1613,-1.1613,-1.1613,-1.1606,-1.1606,-1.1586,-1.1578,-1.1141,-1.0724,-1.0724,-1.0639,-1.0664,-1.0664,-1.0705,-1.0717,-1.0717,-1.0717,-1.0717,-1.0717,-1.0717,-1.0717,-1.0717,-1.0717,-1.0717,-1.0717,-1.0717,-1.0717,-1.0717,-1.0717,-1.0717,-1.0717,-1.0717,-1.0717,-1.0717,-1.0717,-1.0717,-1.0717,-1.0717,-1.0717,-1.0717,-1.0717,-1.0717,-1.0717,-1.0717,-1.0717,-1.0717,-1.0717,-1.0717,-1.0717,-1.0717,-1.0717,-1.0717,-1.0717,-1.0717,-1.0717,-1.0717,-1.0717,-1.0717,-1.0732,-1.0664,-1.067,-1.0659,-1.0724,0.0,0.0,-0.7559,-0.9055,-0.9655,-0.9947,-1.0051,-1.0149,-1.0202,-1.0069,-1.0149,-1.0351,-1.0351,-1.0527,-1.0725,-1.0685,-1.0706,-1.074,-1.0704,-1.0717,-1.0717,-1.0717,-1.0717,0.0,0.0,0.0,0.0,-1.1523,-1.1619,-1.163,-1.153,-1.1932,-1.2162,-1.221,-1.2168,-1.1986,-1.1528,-1.1537,-1.161,-1.161,-1.1667,-1.1619,-1.1619,-1.1619,-1.1619,-1.1619,-1.1619,-1.1619,-1.1619,-1.1619,-1.1619,-1.1619,-1.1619,-1.1619,-1.1613,-1.1565,-1.1511,-1.1288,-1.1233,-1.1269,-1.109,-1.109,-1.0989,-1.0873,-1.0873,-1.0799,-1.0717,-1.0717,-1.0717,-1.0717,-1.0717,-1.0717,-1.0717,-1.0717,-1.0717,-1.0717,-1.0717,-1.0717,-1.0717,-1.0717,-1.0717,-1.0717,-1.0717,-1.0717,-1.0717,-1.0717,-1.0717,-1.0717,-1.0717,-1.0717,-1.0717,-1.0717,-1.0717,-1.0717,-1.0717,-1.0717,-1.0717,-1.0717,-1.0717,-1.0717,-1.0717,-1.0717,-1.0717,-1.0717,-1.0685,-1.0732,-1.0732,-1.0736,-1.0946,-1.1234,-1.1283,-1.1358,-0.8315,-0.8169,-0.8307,-0.9469,-0.9815,-1.01,-1.0587,-1.0686,-1.0479,-1.0163,-1.0236,-1.044,-1.0385,-1.0419,-1.0376,-1.0392,-1.0507,-1.0761,-1.0645,-1.0705,-1.0739,-1.0739,-1.0739,-1.0739,0.0,0.0,0.0,-1.1594,-1.1633,-1.1703,-1.1911,-1.2366,-1.2477,-1.2526,-1.2477,-1.2299,-1.1985,-1.1986,-1.1737,-1.153,-1.1543,-1.1619,-1.1619,-1.1619,-1.1619,-1.1619,-1.1619,-1.1619,-1.1619,-1.1619,-1.1619,-1.1619,-1.1619,-1.1619,-1.1619,-1.1619,-1.1619,-1.1592,-1.1543,-1.1573,-1.1386,-1.1386,-1.1283,-1.1029,-1.1029,-1.0955,-1.0867,-1.0819,-1.0799,-1.0785,-1.0731,-1.0717,-1.0717,-1.0717,-1.0717,-1.0717,-1.0717,-1.0717,-1.0717,-1.0717,-1.0717,-1.0717,-1.0717,-1.0717,-1.0717,-1.0717,-1.0717,-1.0717,-1.0717,-1.0717,-1.0717,-1.0717,-1.0717,-1.0717,-1.0717,-1.0717,-1.0717,-1.0717,-1.0717,-1.0744,-1.0799,-1.0806,-1.0826,-1.088,-1.0697,-1.075,-1.1023,-1.1027,-1.124,-1.1532,-1.1587,-1.1664,-0.8646,-0.9313,-0.9693,-0.9727,-0.9166,-0.8909,-1.024,-1.0364,-1.0174,-0.9895,-0.9745,-0.9841,0.0,0.0,-0.981,-0.9849,-1.0247,-1.0765,-1.0786,-1.0789,-1.0737,0.0,0.0,0.0,0.0,0.0,0.0,-1.1621,0.0,-1.1911,-1.2522,-1.2526,-1.2519,-1.2501,-1.2525,-1.2457,-1.2457,-1.2456,-1.2141,-1.153,-1.1543,-1.1619,-1.1619,-1.1619,-1.1619,-1.1619,-1.1619,-1.1619,-1.1619,-1.1619,-1.1619,-1.1619,-1.1619,-1.1619,-1.1619,-1.1619,-1.1619,-1.1619,-1.1619,-1.1667,-1.155,-1.155,-1.1447,-1.1317,-1.1317,-1.131,-1.1131,-1.0995,-1.0962,-1.0921,-1.0772,-1.0731,-1.0731,-1.0724,-1.0717,-1.0717,-1.0717,-1.0724,-1.0731,-1.0731,-1.0738,-1.0744,-1.0744,-1.0744,-1.0744,-1.0744,-1.0744,-1.0738,-1.0724,-1.0717,-1.0717,-1.0717,-1.0717,-1.0724,-1.0731,-1.0731,-1.0731,-1.0744,-1.0744,-1.0806,-1.0955,-1.1104,-1.1166,-1.1158,-1.0882,-1.1034,-1.16,-1.1615,-1.155,-1.155,-1.1552,-1.1619,-0.8055,-0.8245,-0.8516,-0.8875,-0.8269,-0.7894,-0.8643,-0.9166,-0.9362,-0.9471,-0.9613,-0.978,0.0,0.0,0.0,-0.9666,-1.0358,0.0,-1.1333,-1.1358,0.0,-1.1303,0.0,-1.1303,-1.1303,-1.1839,0.0,0.0,-1.1809,-1.1911,-1.2532,-1.2525,-1.2467,-1.2501,-1.2467,-1.2447,-1.2447,-1.2505,-1.2141,-1.153,-1.1543,-1.1619,-1.1619,-1.1619,-1.1619,-1.1619,-1.1619,-1.1619,-1.1619,-1.1619,-1.1619,-1.1619,-1.1619,-1.1619,-1.1619,-1.1619,-1.1619,-1.1619,-1.1619,-1.1592,-1.1565,-1.1565,-1.1457,-1.1335,-1.1335,-1.1253,-1.1158,-1.1118,-1.1104,-1.1077,-1.0928,-1.0894,-1.086,-1.0744,-1.0717,-1.0717,-1.0717,-1.0812,-1.0894,-1.0894,-1.0975,-1.105,-1.105,-1.105,-1.105,-1.105,-1.105,-1.0968,-1.0751,-1.0717,-1.0717,-1.0717,-1.0717,-1.0765,-1.088,-1.0894,-1.0934,-1.1043,-1.105,-1.107,-1.1104,-1.1248,-1.1269,-1.1303,-1.1274,-1.1475,-1.1622,-1.1633,-1.1565,-1.1565,-1.1599,-1.1529,-0.7054,-0.7281,-0.7345,-0.7601,-0.6788,-0.6223,-0.702,-0.7975,-0.883,-0.9354,-0.9666,0.0,0.0,0.0,0.0,0.0,0.0,0.0,-1.1561,-1.1573,-1.1605,0.0,-1.166,0.0,-1.2001,-1.2308,-1.245,0.0,-1.2067,-1.2196,-1.2443,-1.2427,-1.2501,-1.2501,-1.2501,-1.2501,-1.2501,-1.2436,-1.2237,-1.1623,-1.163,-1.1536,-1.1619,-1.1619,-1.1619,-1.1619,0.0,-1.1619,-1.1619,-1.1619,-1.1619,-1.1619,-1.1619,-1.1619,-1.1619,-1.1619,-1.1619,-1.1619,-1.1619,-1.1619,-1.1619,-1.1619,-1.1558,-1.1491,-1.1491,-1.143,-1.1348,-1.128,-1.126,-1.1226,-1.1084,-1.1043,-1.1023,-1.0934,-1.0914,-1.0914,-1.0914,-1.0982,-1.1043,-1.1043,-1.1104,-1.1165,-1.1165,-1.1165,-1.1165,-1.1165,-1.1165,-1.1104,-1.0934,-1.0914,-1.0914,-1.0914,-1.0914,-1.0948,-1.1036,-1.1043,-1.1077,-1.1158,-1.1165,-1.1192,-1.126,-1.1267,-1.1434,-1.1362,-1.1592,-1.164,-1.164,-1.1791,-1.1859,-1.1866,-1.163,-1.1557,-0.5792,-0.621,-0.6201,-0.5938,-0.4998,-0.4305,-0.5386,-0.6794,-0.8184,-0.9198,0.0,-0.9555,-0.9012,-0.8906,-0.9124,-0.9686,0.0,-1.0912,-1.1516,-1.1667,-1.1657,-1.1677,-1.1663,-1.1904,-1.2522,-1.2543,-1.2456,-1.2436,-1.2464,-1.2477,-1.2477,-1.2433,-1.2501,-1.2501,-1.2501,-1.2501,-1.2501,-1.2519,-1.2223,-1.1782,-1.161,-1.1616,-1.1647,-1.1626,-1.1619,-1.1619,-1.1619,-1.1619,-1.1619,-1.1619,-1.1619,-1.1619,-1.1619,-1.1619,-1.1619,-1.1619,-1.1619,-1.1619,-1.1619,-1.1619,-1.1619,-1.1619,-1.1619,-1.1619,-1.1619,-1.1619,-1.1592,-1.1457,-1.1423,-1.1389,-1.1233,-1.1192,-1.1185,-1.1165,-1.1165,-1.1165,-1.1165,-1.1179,-1.1199,-1.1219,-1.1226,-1.1226,-1.1226,-1.1226,-1.1226,-1.1226,-1.1226,-1.1226,-1.1226,-1.1185,-1.1165,-1.1165,-1.1165,-1.1172,-1.1192,-1.1192,-1.1199,-1.1219,-1.1226,-1.128,-1.1416,-1.1423,-1.1491,-1.1647,-1.1647,-1.166,-1.1674,-1.1955,-1.2164,-1.2164,-1.1844,-1.1762,-0.4296,-0.4631,-0.442,-0.3214,-0.2762,-0.2822,-0.3997,-0.5145,0.0,0.0,0.0,-0.9027,-0.8934,-0.889,-0.9051,-0.9743,0.0,0.0,0.0,0.0,-1.1846,0.0,0.0,0.0,0.0,0.0,0.0,0.0,0.0,-1.2467,-1.2467,-1.2488,-1.2501,-1.2501,-1.2501,-1.2501,-1.2501,-1.2519,-1.2436,-1.2402,-1.1811,-1.1663,-1.1636,-1.1674,-1.1619,-1.1619,-1.1619,0.0,-1.1619,-1.1619,-1.1619,-1.1619,-1.1619,-1.1619,-1.1619,-1.1619,-1.1619,-1.1619,-1.1619,-1.1619,-1.1619,-1.1619,-1.1619,-1.1619,-1.1619,-1.1619,-1.1613,-1.1586,-1.1579,-1.1545,-1.1389,-1.1348,-1.1321,-1.1192,-1.1165,-1.1165,-1.1165,-1.126,-1.1389,-1.1518,-1.1538,-1.1538,-1.1538,-1.1538,-1.1538,-1.1538,-1.1538,-1.1538,-1.1538,-1.1321,-1.1165,-1.1165,-1.1165,-1.1212,-1.1341,-1.1348,-1.1402,-1.1531,-1.1538,-1.1552,-1.1579,-1.1579,-1.1647,-1.1789,-1.1796,-1.1857,-1.1831,-1.2013,-1.2175,-1.248,-1.2359,-1.2285,-0.3045,-0.3212,-0.3088,-0.24,-0.1562,-0.1387,-0.2671,0.0,0.0,0.0,0.0,-0.8407,-0.8424,0.0,0.0,0.0,0.0,0.0,0.0,0.0,0.0,0.0,0.0,0.0,0.0,0.0,0.0,0.0,0.0,-1.2501,-1.2501,-1.2501,-1.2501,-1.2501,-1.2501,-1.2501,-1.2501,-1.2433,-1.2519,-1.245,-1.2142,-1.1878,-1.1643,-1.1643,-1.1583,-1.1576,-1.1653,0.0,-1.1619,-1.1619,-1.1619,-1.1619,-1.1619,-1.1619,-1.1619,-1.1619,-1.1619,-1.1619,-1.1619,-1.1619,-1.1619,-1.1619,-1.1619,-1.1619,-1.1619,-1.1619,-1.1619,-1.1619,-1.1619,-1.1599,-1.1531,-1.1511,-1.1491,-1.1416,-1.1402,-1.1402,-1.1402,-1.1457,-1.1531,-1.1606,-1.1619,-1.1619,-1.1619,-1.1619,-1.1619,-1.1619,-1.1619,-1.1619,-1.1619,-1.1491,-1.1402,-1.1402,-1.1402,-1.143,-1.1504,-1.1511,-1.1538,-1.1613,-1.1687,-1.1728,-1.1728,-1.1809,-1.1884,-1.1952,-1.1952,-1.1986,-1.206,-1.2142,-1.2333,-1.234,-1.2416,-1.2484,-0.2262,-0.2014,-0.1745,-0.172,-0.0903,-0.0374,-0.1658,-0.3456,0.0,0.0,-0.7112,-0.7787,-0.7845,0.0,0.0,0.0,0.0,0.0,0.0,0.0,0.0,0.0,0.0,0.0,0.0,0.0,0.0,0.0,-1.2501,-1.2508,-1.2508,-1.2508,-1.2508,-1.2508,-1.2508,-1.2508,-1.2508,-1.2501,-1.2447,-1.2491,-1.2464,-1.223,-1.1795,-1.1797,-1.171,-1.167,-1.1563,0.0,0.0,-1.1619,-1.1619,-1.1619,-1.1619,-1.1619,-1.1619,-1.1619,-1.1619,-1.1619,-1.1619,-1.1619,-1.1619,-1.1619,-1.1619,-1.1619,-1.1619,-1.1619,-1.1619,-1.1619,-1.1619,-1.1619,-1.1619,-1.1619,-1.1619,-1.1619,-1.1619,-1.1626,-1.166,-1.1667,-1.1674,-1.1708,-1.1714,-1.1714,-1.1714,-1.1687,-1.1667,-1.1667,-1.164,-1.1633,-1.166,-1.1667,-1.1681,-1.1714,-1.1653,-1.1633,-1.166,-1.1667,-1.1681,-1.1714,-1.1816,-1.1877,-1.1877,-1.1999,-1.2081,-1.2108,-1.2108,-1.2128,-1.2155,-1.2277,-1.2338,-1.2338,-1.2447,-1.2501,-0.2507,-0.1199,-0.0268,-0.0265,-0.0129,-0.0372,-0.1518,0.0,0.0,-0.5654,-0.6553,-0.7165,-0.7208,0.0,0.0,0.0,0.0,0.0,0.0,0.0,0.0,0.0,0.0,0.0,0.0,0.0,0.0,-1.2501,-1.2515,-1.2515,-1.2515,-1.2515,-1.2522,-1.2535,-1.2522,-1.2515,-1.2515,-1.2508,-1.2494,-1.2481,-1.2512,-1.2443,-1.2422,-1.2421,-1.2113,-1.153,-1.1663,-1.159,0.0,-1.1619,-1.1619,-1.1619,-1.1619,-1.1619,-1.1619,-1.1619,-1.1619,-1.1619,-1.1619,-1.1619,-1.1619,-1.1619,-1.1619,-1.1619,-1.1619,-1.1619,-1.1619,-1.1619,-1.1619,-1.1619,-1.1619,-1.1619,-1.1619,-1.1619,-1.1619,-1.1653,-1.1782,-1.1809,-1.185,-1.1993,-1.202,-1.202,-1.202,-1.1904,-1.1809,-1.1809,-1.1701,-1.1667,-1.1796,-1.1809,-1.1864,-1.2006,-1.1782,-1.1674,-1.1803,-1.1809,-1.187,-1.2013,-1.2033,-1.204,-1.204,-1.2054,-1.2128,-1.2271,-1.2271,-1.2332,-1.2461,-1.2474,-1.2481,-1.2481,-1.2494,-1.2501,-0.3801,-0.1729,0.0,0.0,0.0,-0.049,-0.241,0.0,-0.5082,-0.631,-0.6845,-0.7119,-0.7058,-0.7607,0.0,0.0,0.0,0.0,0.0,0.0,0.0,0.0,0.0,0.0,0.0,0.0,0.0,-1.2501,-1.2515,-1.205,-1.1113,-1.0952,-1.0952,-1.0964,-1.0952,-1.1423,-1.2528,-1.2515,-1.2508,-1.2501,-1.2447,-1.2574,-1.2567,-1.2429,-1.2435,-1.2127,-1.1737,-1.1616,0.0,-1.1626,-1.1626,-1.1626,-1.1563,-1.1596,-1.1762,-1.185,-1.1884,-1.1884,-1.1884,-1.1823,-1.1748,-1.1748,-1.1687,-1.1619,-1.1619,-1.1619,-1.1619,-1.1619,-1.1619,-1.1619,-1.1619,-1.1619,-1.1619,-1.1619,-1.1687,-1.1762,-1.1816,-1.1904,-1.1986,-1.2047,-1.206,-1.206,-1.206,-1.2013,-1.1972,-1.1972,-1.1925,-1.1904,-1.1965,-1.1972,-1.1993,-1.2054,-1.1959,-1.1904,-1.1965,-1.1972,-1.1993,-1.206,-1.2149,-1.2196,-1.2196,-1.2284,-1.2359,-1.242,-1.242,-1.2447,-1.2501,-1.2501,-1.2501,-1.2501,-1.2596,-1.2637,-0.5259,-0.314,-0.1318,-0.1282,-0.1248,-0.1686,0.0,-0.4755,-0.5579,-0.6804,-0.7086,-0.7058,-0.7063,-0.7583,-0.8048,0.0,0.0,0.0,0.0,0.0,0.0,0.0,0.0,0.0,0.0,0.0,-1.2501,-1.2501,-1.2522,-1.1746,-1.0019,-0.9071,-0.8759,-0.9241,-0.9231,-1.0014,-1.1753,-1.2212,-1.2522,-1.2508,-1.2501,-1.2501,-1.2501,-1.1465,-1.1176,-1.1314,-1.107,-1.1072,0.0,-1.1345,-1.1482,-1.1633,-1.163,-1.1683,-1.185,-1.1851,-1.1911,-1.206,-1.206,-1.1993,-1.1891,-1.1843,-1.1762,-1.1674,-1.1633,-1.1619,-1.1619,-1.1619,-1.1619,-1.1626,-1.1674,-1.1681,-1.1694,-1.1742,-1.1823,-1.1911,-1.1959,-1.2054,-1.2142,-1.2182,-1.2189,-1.2189,-1.2189,-1.2155,-1.2128,-1.2128,-1.2094,-1.2081,-1.2121,-1.2128,-1.2149,-1.2189,-1.2189,-1.2176,-1.2135,-1.2128,-1.2149,-1.2189,-1.2291,-1.2352,-1.2352,-1.2447,-1.2501,-1.2501,-1.2501,-1.2522,-1.2569,-1.2569,-1.2596,-1.2637,-1.2745,-1.28,-0.6761,-0.5419,-0.422,-0.4224,-0.4021,-0.4148,0.0,-0.5865,-0.6569,-0.6994,-0.708,-0.7141,-0.7063,-0.7604,-0.7994,-0.7962,0.0,0.0,0.0,0.0,0.0,0.0,0.0,0.0,0.0,-1.2574,-1.2501,-1.2501,-1.2535,0.0,-1.0019,-0.6885,-0.5792,-0.7525,-0.7517,-0.8301,-1.0036,-1.1597,-1.2528,-1.2522,-1.2508,-1.2508,-1.236,-0.9041,-0.7846,-0.8585,-0.9195,-0.9962,0.0,-1.0894,-1.1188,-1.1633,-1.1775,-1.1683,-1.1697,-1.1851,-1.1911,-1.206,-1.2216,-1.221,-1.2182,-1.1884,-1.183,-1.1803,-1.166,-1.1619,-1.1619,-1.1619,-1.1619,-1.1653,-1.1789,-1.183,-1.1864,-1.202,-1.206,-1.2101,-1.225,-1.2284,-1.2332,-1.2467,-1.2494,-1.2494,-1.2494,-1.2379,-1.2291,-1.2291,-1.2155,-1.2115,-1.2271,-1.2291,-1.2338,-1.2481,-1.2494,-1.244,-1.2298,-1.2291,-1.2345,-1.2488,-1.2501,-1.2501,-1.2501,-1.2501,-1.2501,-1.2501,-1.2501,-1.2576,-1.2725,-1.2725,-1.2807,-1.2956,-1.2956,-1.2963,-0.7584,-0.6463,-0.5339,-0.5354,-0.5104,-0.5177,-0.6389,-0.6529,-0.656,-0.6969,-0.708,-0.7108,-0.7119,-0.7622,-0.7959,-0.8044,-0.8454,0.0,0.0,0.0,0.0,0.0,0.0,-1.2271,0.0,0.0,-1.2528,-1.2528,-1.2549,-1.1293,-0.8453,-0.6261,-0.4698,-0.4075,-0.517,-0.6577,-0.8301,-1.003,-1.1442,-1.2528,-1.2522,-1.1876,-1.0612,-0.7103,-0.6104,-0.6923,-0.7476,-0.8861,0.0,-1.1208,-1.1489,-1.1633,-1.163,-1.1744,-1.2006,-1.2012,-1.2277,-1.2366,-1.2366,-1.2457,-1.2368,-1.2319,-1.2006,-1.1823,-1.1775,-1.1694,-1.164,-1.1735,-1.1843,-1.1932,-1.1979,-1.1986,-1.1999,-1.2047,-1.2142,-1.223,-1.2277,-1.2366,-1.2447,-1.2494,-1.2501,-1.2501,-1.2501,-1.2467,-1.2433,-1.2433,-1.2393,-1.2379,-1.2427,-1.2433,-1.2454,-1.2494,-1.2501,-1.2481,-1.244,-1.2433,-1.2454,-1.2501,-1.2501,-1.2501,-1.2501,-1.2603,-1.2657,-1.2657,-1.2759,-1.284,-1.2888,-1.2888,-1.2963,-1.3105,-1.3105,-1.3159,0.0,-0.7421,-0.6862,-0.699,-0.6858,-0.6906,-0.7375,-0.722,-0.6991,-0.7082,-0.7131,-0.7115,-0.7132,-0.7436,-0.776,-0.7955,-0.8461,0.0,0.0,0.0,0.0,0.0,0.0,0.0,0.0,-1.1585,-1.1591,-1.1591,-1.1616,-1.0358,-0.7677,-0.5955,-0.3912,-0.1558,-0.3128,-0.4857,-0.658,-0.8145,-0.9869,-1.1597,-1.2218,-1.1231,-0.8828,-0.6302,-0.5468,-0.5833,-0.6541,0.0,0.0,-1.048,-1.105,-1.1345,-1.163,-1.1737,-1.1999,-1.221,-1.2345,-1.2433,-1.2481,-1.2447,-1.2519,-1.2464,-1.2271,-1.1918,-1.1918,-1.1816,-1.1728,-1.1877,-1.1986,-1.2074,-1.2135,-1.2149,-1.2162,-1.2216,-1.2298,-1.2372,-1.2372,-1.244,-1.2501,-1.2501,-1.2501,-1.2501,-1.2501,-1.2501,-1.2501,-1.2501,-1.2501,-1.2501,-1.2501,-1.2501,-1.2501,-1.2501,-1.2501,-1.2522,-1.2583,-1.2535,-1.2501,-1.2501,-1.2556,-1.2589,-1.2589,-1.2739,-1.282,-1.282,-1.2908,-1.299,-1.3044,-1.3098,-1.3173,-1.3261,-1.3261,-1.3308,0.0,-0.8113,-0.8446,-0.8771,-0.8838,-0.8707,-0.8066,-0.7936,0.0,-0.7257,-0.7072,-0.7135,-0.7143,-0.7108,-0.7395,-0.7943,-0.8514,0.0,0.0,0.0,0.0,0.0,0.0,0.0,-1.0142,-0.9853,-0.9708,-0.9703,-0.9729,-0.9105,-0.7361,-0.5799,-0.3276,-0.0154,-0.1556,-0.313,-0.4852,-0.6562,-0.8123,-0.9853,-1.1578,-1.04,-0.7041,-0.643,-0.5902,0.0,-0.6075,0.0,0.0,-0.9157,-1.0311,-1.1057,-1.1616,-1.1677,-1.1717,-1.2306,-1.2422,-1.245,-1.244,-1.2488,-1.2467,-1.2491,-1.2347,-1.2081,-1.2081,-1.1979,-1.1891,-1.204,-1.2088,-1.2128,-1.2271,-1.2305,-1.2338,-1.2467,-1.2501,-1.2501,-1.2501,-1.2501,-1.2501,-1.2501,-1.2501,-1.2501,-1.2501,-1.2501,-1.2501,-1.2501,-1.2501,-1.2501,-1.2501,-1.2501,-1.2501,-1.2501,-1.2515,-1.2576,-1.2718,-1.2603,-1.2522,-1.2535,-1.2664,-1.2745,-1.2745,-1.2895,-1.2976,-1.2976,-1.299,-1.3057,-1.3186,-1.3336,-1.3403,-1.3403,-1.3403,-1.3403,-0.7322,0.0,-0.8347,-0.8203,-0.8249,-0.811,0.0,-0.7544,0.0,0.0,0.0,0.0,0.0,0.0,-0.7856,-0.7929,-0.8555,-0.913,-0.9693,0.0,0.0,0.0,0.0,-1.1906,-1.0147,-0.8915,-0.7509,-0.6251,-0.7365,-0.7349,-0.5726,-0.4024,-0.2156,-0.0,-0.0457,-0.1374,-0.3052,-0.4728,-0.6402,-0.808,-0.9775,-0.9445,-0.7117,-0.5703,-0.5218,-0.5339,0.0,0.0,-0.7272,-0.843,-0.9735,-1.1044,-1.1509,-1.1735,-1.1837,-1.1911,-1.2168,-1.2449,-1.245,-1.2498,-1.2491,-1.2457,-1.2422,-1.2388,-1.2237,-1.221,-1.2189,-1.223,-1.2318,-1.2406,-1.244,-1.2454,-1.2461,-1.2494,-1.2501,-1.2501,-1.2501,-1.2501,-1.2501,-1.2501,-1.2501,-1.2501,-1.2501,-1.2501,-1.2501,-1.2501,-1.2501,-1.2501,-1.2501,-1.2501,-1.2501,-1.2501,-1.261,-1.2691,-1.2725,-1.2698,-1.2725,-1.2847,-1.2888,-1.2908,-1.2908,-1.3044,-1.3125,-1.3125,-1.3234,-1.3315,-1.3349,-1.3383,-1.3403,-1.3403,-1.3403,-1.3403,-0.719,-0.755,-0.7879,-0.7642,-0.7655,-0.7598,0.0,0.0,0.0,0.0,0.0,0.0,0.0,0.0,0.0,0.0,-0.8556,0.0,0.0,0.0,0.0,-1.2473,-1.2436,-1.1824,0.0,-0.8448,-0.687,-0.512,-0.5907,-0.5884,-0.5047,-0.3362,-0.1672,-0.0,0.0,-0.0452,-0.1361,-0.3024,-0.4233,-0.5135,-0.6804,-0.6935,-0.5537,-0.4909,-0.4585,-0.4564,0.0,0.0,-0.6543,-0.8136,-0.9585,-1.075,-1.1188,-1.1378,-1.1451,-1.1371,-1.1449,-1.1689,-1.1835,-1.1934,-1.1993,-1.1906,-1.2233,-1.2546,-1.2386,-1.2386,-1.2386,-1.2386,-1.244,-1.2501,-1.2501,-1.2501,-1.2501,-1.2501,-1.2501,-1.2501,-1.2501,-1.2501,-1.2501,-1.2501,-1.2501,-1.2501,-1.2501,-1.2562,-1.261,-1.261,-1.2664,-1.2712,-1.2712,-1.2712,-1.2712,-1.2712,-1.2786,-1.2861,-1.2929,-1.2935,-1.2942,-1.2963,-1.3024,-1.3057,-1.3057,-1.32,-1.3275,-1.3275,-1.3356,-1.3403,-1.3403,-1.3403,-1.3403,-1.3403,-1.3403,-1.3403,-0.7197,-0.7369,-0.7343,-0.7284,-0.7186,-0.7105,0.0,0.0,0.0,0.0,0.0,0.0,0.0,0.0,0.0,0.0,0.0,0.0,0.0,-1.1194,-1.188,-1.2487,-1.2484,0.0,-1.0136,-0.874,-0.7146,-0.5523,-0.5066,-0.4891,-0.4532,-0.2868,-0.1351,-0.0,0.0,0.0,0.0,-0.1354,-0.1955,-0.1953,-0.3606,-0.4036,-0.3401,-0.3997,-0.3976,-0.3354,0.0,0.0,-0.5818,-0.7702,-0.9296,-1.0311,-1.075,-1.09,-1.0768,-1.059,-1.048,-1.0504,-1.081,-1.1107,-1.139,-1.1361,-1.1876,-1.2501,-1.2501,-1.2501,-1.2501,-1.2501,-1.2501,-1.2501,-1.2501,-1.2501,-1.2501,-1.2501,-1.2501,-1.2501,-1.2501,-1.2501,-1.2501,-1.2501,-1.2501,-1.2508,-1.2535,-1.2644,-1.2739,-1.2759,-1.2874,-1.2963,-1.2963,-1.2963,-1.2963,-1.2963,-1.2983,-1.3044,-1.3159,-1.3193,-1.3159,-1.3037,-1.3139,-1.3207,-1.3207,-1.3336,-1.3403,-1.3403,-1.3403,-1.3403,-1.3403,-1.3403,-1.3403,-1.3403,-1.3403,-1.3403,-0.6946,-0.7034,-0.7101,-0.7327,-0.6986,-0.6658,0.0,0.0,0.0,0.0,0.0,0.0,0.0,0.0,0.0,0.0,0.0,0.0,0.0,0.0,-1.188,-1.2487,0.0,-1.1887,-1.0162,-0.9719,-0.8918,-0.7288,-0.561,-0.4223,-0.283,-0.1192,-0.0296,-0.0,0.0,0.0,0.0,-0.0294,-0.0293,-0.044,-0.1905,-0.2636,-0.2485,-0.2632,-0.2629,-0.2478,0.0,-0.3935,-0.5386,-0.7127,-0.8435,-0.959,-1.0311,-1.0311,-1.0029,-0.9613,-0.9179,-0.8915,-0.9728,-1.0492,-1.139,-1.1522,-1.203,-1.2501,-1.2501,-1.2501,-1.2501,-1.2501,-1.2501,-1.2501,-1.2501,-1.2501,-1.2501,-1.2501,-1.2501,-1.2501,-1.2501,-1.2501,-1.2501,-1.2501,-1.2501,-1.2542,-1.2671,-1.2712,-1.2773,-1.2908,-1.2942,-1.2963,-1.2963,-1.2963,-1.2963,-1.2963,-1.3071,-1.3152,-1.3173,-1.3295,-1.3356,-1.3336,-1.3356,-1.3363,-1.3363,-1.339,-1.3403,-1.3403,-1.3403,-1.3403,-1.3403,-1.3403,-1.3403,-1.3403,-1.3403,-1.3403,-0.6912,-0.691,-0.7015,-0.7077,-0.6671,0.0,0.0,0.0,0.0,0.0,0.0,0.0,0.0,0.0,0.0,0.0,0.0,0.0,-1.1131,-1.1436,-1.1701,0.0,0.0,-1.1888,-1.019,-0.9753,-0.9262,-0.8552,-0.6896,-0.5218,-0.3675,-0.1324,0.0,0.0,0.0,0.0,0.0,0.0,0.0,-0.0,-0.0729,-0.1021,-0.1021,-0.1021,-0.1312,-0.1895,0.0,-0.3498,-0.4953,-0.6112,-0.7417,-0.8719,-0.8868,-0.8863,-0.8579,-0.7706,-0.7447,-0.7512,-0.8104,-0.9283,-1.0627,-1.138,-1.2044,-1.2501,-1.2501,-1.2501,-1.2501,-1.2501,-1.2501,-1.2501,-1.2501,-1.2501,-1.2501,-1.2501,-1.2501,-1.2501,-1.2501,-1.2501,-1.2528,-1.261,-1.2623,-1.2671,-1.2827,-1.2915,-1.2996,-1.3064,-1.3146,-1.32,-1.32,-1.32,-1.32,-1.32,-1.3254,-1.3295,-1.3295,-1.3363,-1.3403,-1.3403,-1.3403,-1.3403,-1.3403,-1.3403,-1.3403,-1.3403,-1.3403,-1.3403,-1.3403,-1.3403,-1.3403,-1.3403,-1.3403,-1.3403,-0.6966,-0.7027,-0.7113,0.0,0.0,0.0,0.0,0.0,0.0,0.0,0.0,0.0,0.0,0.0,0.0,0.0,0.0,-1.1138,-1.1489,-1.1667,-1.1674,-1.1663,-1.1959,-1.1586,-1.0059,-0.9473,-0.9143,-0.8735,-0.7699,-0.6191,-0.4228,-0.1458,0.0,0.0,0.0,0.0,0.0,0.0,0.0,0.0,0.0,0.0,0.0,0.0,-0.0438,-0.1312,-0.2041,-0.3061,-0.4226,-0.5096,-0.6253,-0.7268,-0.7272,-0.7131,-0.699,-0.5988,-0.559,-0.5799,-0.6642,-0.7937,-0.955,-1.0922,-1.1895,-1.2347,-1.2501,-1.2501,-1.2501,-1.2501,-1.2501,-1.2501,-1.2501,-1.2501,-1.2501,-1.2501,-1.2501,-1.2501,-1.2501,-1.2528,-1.2589,-1.2705,-1.2759,-1.2834,-1.2983,-1.3098,-1.3186,-1.322,-1.3322,-1.3403,-1.3403,-1.3403,-1.3403,-1.3403,-1.3403,-1.3403,-1.3403,-1.3403,-1.3403,-1.3403,-1.3403,-1.3403,-1.3403,-1.3403,-1.3403,-1.3403,-1.3403,-1.3403,-1.3403,-1.3437,-1.3451,-1.3458,-1.3492,-1.3505,-0.7088,-0.7184,-0.7302,0.0,0.0,0.0,0.0,0.0,0.0,0.0,0.0,0.0,0.0,0.0,0.0,0.0,-1.12,-1.1502,-1.153,0.0,-1.1674,-1.1663,-1.157,-1.0995,-0.9487,-0.9361,-0.873,-0.7297,-0.7007,-0.569,-0.2621,-0.0874,0.0,0.0,0.0,0.0,0.0,0.0,0.0,0.0,0.0,0.0,0.0,0.0,-0.0,-0.0146,-0.1604,-0.2333,-0.2624,-0.408,-0.4805,-0.5093,-0.5967,-0.597,-0.5547,-0.5023,-0.4154,-0.3724,-0.5337,-0.6765,-0.8477,-1.0131,-1.1262,-1.2037,-1.2347,-1.2501,-1.2501,-1.2501,-1.2501,-1.2501,-1.2501,-1.2501,-1.2501,-1.2501,-1.2501,-1.2501,-1.2501,-1.2617,-1.2718,-1.2725,-1.2847,-1.299,-1.3132,-1.3166,-1.322,-1.3363,-1.3397,-1.3403,-1.3403,-1.3403,-1.3403,-1.3403,-1.3403,-1.3403,-1.3403,-1.3403,-1.3403,-1.3403,-1.3403,-1.3403,-1.3403,-1.3403,-1.3403,-1.3403,-1.3403,-1.3403,-1.3403,-1.3546,-1.3614,-1.3614,-1.3749,-1.381,-0.7021,-0.6969,0.0,0.0,0.0,0.0,0.0,0.0,0.0,0.0,0.0,0.0,0.0,0.0,0.0,0.0,-1.1504,-1.1571,-1.1667,-1.1586,-1.164,-1.1556,-1.1583,-1.0553,-0.8183,-0.7911,-0.7173,-0.5673,-0.5535,-0.4662,-0.2475,-0.0874,0.0,0.0,0.0,0.0,0.0,0.0,0.0,0.0,0.0,0.0,0.0,0.0,0.0,-0.0,-0.1167,-0.1605,-0.1604,-0.2331,-0.3059,-0.4078,-0.4956,-0.4813,-0.409,-0.2958,-0.2388,-0.241,-0.3676,-0.5723,-0.7937,-0.9376,-1.0791,-1.2037,-1.2347,-1.2501,-1.2501,-1.2501,-1.2501,-1.2501,-1.2501,-1.2501,-1.2501,-1.2501,-1.2501,-1.2528,-1.246,-1.2527,-1.2621,-1.2969,-1.3051,-1.3139,-1.3288,-1.3315,-1.3336,-1.339,-1.3403,-1.3403,-1.3403,-1.3403,-1.3403,-1.3403,-1.3403,-1.3403,-1.3403,-1.3403,-1.3403,-1.3403,-1.3403,-1.3403,-1.3403,-1.3403,-1.3403,-1.3403,-1.3492,-1.3546,-1.3546,-1.3688,-1.3763,-1.3763,-1.3817,-1.3838,-0.6853,-0.6924,0.0,0.0,0.0,0.0,0.0,0.0,0.0,0.0,0.0,0.0,0.0,0.0,0.0,0.0,-1.1615,-1.1646,-1.1606,-1.1619,-1.1619,-1.1633,-1.1208,-0.9885,-0.7255,-0.6982,-0.6406,-0.4799,-0.4662,-0.3782,-0.1737,-0.058,0.0,0.0,0.0,0.0,0.0,0.0,0.0,0.0,0.0,0.0,0.0,0.0,0.0,-0.0,-0.0584,-0.0875,-0.0875,-0.0875,-0.1457,-0.2477,-0.3209,-0.3356,-0.2924,-0.1932,-0.1353,-0.1214,-0.2622,-0.467,-0.6889,-0.8453,-1.0169,-1.1572,-1.2192,-1.2347,-1.2501,-1.2501,-1.2501,-1.2501,-1.2501,-1.2501,-1.2501,-1.2501,-1.2535,-1.2603,-1.2548,-1.2641,-1.2769,-1.3132,-1.3207,-1.3275,-1.3383,-1.3403,-1.3403,-1.3403,-1.3403,-1.3403,-1.3403,-1.3403,-1.3403,-1.3403,-1.3403,-1.3403,-1.3403,-1.3403,-1.3403,-1.3403,-1.3403,-1.3403,-1.3403,-1.3403,-1.3424,-1.3471,-1.3573,-1.3654,-1.3695,-1.3844,-1.3912,-1.3912,-1.396,-1.3987,-0.6795,0.0,0.0,0.0,0.0,0.0,0.0,0.0,0.0,0.0,0.0,0.0,0.0,0.0,0.0,0.0,0.0,-1.1619,-1.1619,-1.1619,-1.1619,-1.1633,-1.0179,-0.8719,-0.7115,-0.6986,-0.641,-0.4802,-0.4665,-0.3335,-0.0143,0.0,0.0,0.0,0.0,0.0,0.0,0.0,0.0,0.0,0.0,0.0,0.0,0.0,0.0,0.0,0.0,0.0,0.0,0.0,0.0,-0.0146,-0.0876,-0.1606,-0.2343,-0.2251,-0.1363,-0.0304,-0.1867,-0.3607,-0.5327,-0.7361,-0.9236,-1.0796,-1.1572,-1.2192,-1.2501,-1.2501,-1.2501,-1.2501,-1.2501,-1.2501,-1.2501,-1.2501,-1.2617,-1.2732,-1.2732,-1.2963,-1.3173,-1.3173,-1.3295,-1.3403,-1.3403,-1.3403,-1.3403,-1.3403,-1.3403,-1.3403,-1.3403,-1.3403,-1.3403,-1.3403,-1.3403,-1.3403,-1.3403,-1.3403,-1.3403,-1.3403,-1.3403,-1.3403,-1.3403,-1.3403,-1.3471,-1.3627,-1.3634,-1.3702,-1.3844,-1.4,-1.4075,-1.4075,-1.4231,-1.4299,-0.6918,0.0,0.0,0.0,0.0,0.0,0.0,0.0,0.0,0.0,0.0,0.0,0.0,0.0,0.0,0.0,0.0,-1.1619,-1.1619,-1.1619,-1.1619,-1.1633,-1.0179,-0.8719,-0.7123,-0.6933,-0.6327,-0.4881,-0.4704,-0.3258,-0.0141,0.0,0.0,0.0,0.0,0.0,0.0,0.0,0.0,0.0,0.0,0.0,0.0,0.0,0.0,0.0,0.0,0.0,0.0,0.0,0.0,-0.0,-0.0292,-0.0438,-0.0731,-0.0744,-0.0451,-0.0152,-0.1233,-0.2648,-0.4231,-0.6889,-0.8769,-1.033,-1.1572,-1.2192,-1.2501,-1.2501,-1.2501,-1.2501,-1.2501,-1.2501,-1.2501,-1.2501,-1.2623,-1.2759,-1.2868,-1.3205,-1.337,-1.3315,-1.337,-1.3403,-1.3403,-1.3403,-1.3403,-1.3403,-1.3403,-1.3403,-1.3403,-1.3403,-1.3403,-1.3403,-1.3403,-1.3403,-1.3403,-1.3403,-1.3403,-1.3403,-1.3403,-1.3451,-1.3559,-1.3559,-1.3627,-1.3777,-1.3885,-1.396,-1.4007,-1.4156,-1.4231,-1.4231,-1.4278,-1.4299,0.0,0.0,0.0,0.0,0.0,0.0,0.0,0.0,0.0,0.0,0.0,0.0,0.0,0.0,0.0,0.0,-1.1369,-1.1545,-1.1613,-1.1565,-1.1538,-1.1545,-1.0197,-0.8728,-0.7153,-0.6977,-0.6383,-0.4676,-0.4507,-0.3219,-0.0139,0.0,0.0,0.0,0.0,0.0,0.0,0.0,0.0,0.0,0.0,0.0,0.0,0.0,0.0,0.0,0.0,0.0,0.0,0.0,0.0,0.0,0.0,0.0,0.0,0.0,0.0,-0.0,-0.0614,-0.2019,-0.392,-0.5796,-0.7985,-1.0014,-1.1107,-1.1882,-1.2501,-1.2501,-1.2501,-1.2501,-1.2501,-1.2501,-1.2501,-1.2501,-1.2664,-1.2847,-1.3102,-1.3288,-1.3459,-1.3383,-1.3403,-1.3403,-1.3403,-1.3403,-1.3403,-1.3403,-1.3403,-1.3403,-1.3403,-1.3403,-1.3403,-1.3403,-1.3403,-1.3403,-1.3403,-1.3403,-1.3403,-1.3403,-1.3403,-1.3492,-1.3702,-1.3756,-1.3817,-1.3905,-1.4014,-1.4102,-1.4163,-1.4251,-1.4299,-1.4299,-1.4299,-1.4299,0.0,0.0,0.0,0.0,0.0,0.0,0.0,0.0,0.0,0.0,0.0,0.0,0.0,0.0,0.0,-1.1124,-1.1267,-1.1416,-1.1558,-1.1605,-1.1664,-1.153,-1.0283,-0.8799,-0.7118,-0.6713,-0.588,-0.4192,-0.4058,-0.2921,-0.0137,0.0,0.0,0.0,0.0,0.0,0.0,0.0,0.0,0.0,0.0,0.0,0.0,0.0,0.0,0.0,0.0,0.0,0.0,0.0,0.0,0.0,0.0,0.0,0.0,0.0,0.0,0.0,0.0,-0.1552,-0.3762,-0.4701,-0.7045,-0.9542,-1.0325,-1.1417,-1.2501,-1.2501,-1.2501,-1.2501,-1.2501,-1.2501,-1.2501,-1.2501,-1.2739,-1.2963,-1.2963,-1.3193,-1.3403,-1.3403,-1.3403,-1.3403,-1.3403,-1.3403,-1.3403,-1.3403,-1.3403,-1.3403,-1.3403,-1.3403,-1.3403,-1.3403,-1.3403,-1.3403,-1.3403,-1.3403,-1.3403,-1.3403,-1.3451,-1.36,-1.3871,-1.3946,-1.4,-1.4027,-1.4068,-1.4163,-1.4299,-1.4299,-1.4299,-1.4299,-1.4299,-1.4299,0.0,0.0,0.0,0.0,0.0,0.0,0.0,0.0,0.0,0.0,0.0,0.0,0.0,0.0,-1.0962,-1.0989,-1.1118,-1.1365,-1.1399,-1.1518,-1.1643,-1.1657,-1.0935,-0.9371,-0.6835,-0.4563,-0.3027,-0.2616,-0.2595,-0.19,-0.0135,0.0,0.0,0.0,0.0,0.0,0.0,0.0,0.0,0.0,0.0,0.0,0.0,0.0,0.0,0.0,0.0,0.0,0.0,0.0,0.0,0.0,0.0,0.0,0.0,0.0,0.0,0.0,0.0,-0.1226,-0.3098,-0.4532,-0.6733,-0.908,-1.033,-1.1417,-1.2501,-1.2501,-1.2501,-1.2501,-1.2501,-1.2501,-1.2501,-1.2501,-1.2739,-1.2963,-1.2963,-1.3193,-1.3403,-1.3403,-1.3403,-1.3403,-1.3403,-1.3403,-1.3403,-1.3403,-1.3403,-1.3403,-1.3403,-1.3403,-1.3403,-1.3403,-1.3403,-1.3403,-1.3403,-1.3403,-1.3403,-1.3403,-1.3844,-1.4136,-1.4197,-1.3994,-1.3987,-1.4231,-1.4245,-1.4265,-1.4299,-1.4299,-1.4299,-1.4299,-1.4299,-1.4299,0.0,0.0,0.0,0.0,0.0,0.0,0.0,0.0,0.0,0.0,0.0,0.0,0.0,-0.9977,-1.086,-1.0934,-1.1009,-1.1084,-1.1151,-1.1104,-1.12,-1.1207,-1.0607,-0.9325,-0.7251,-0.5036,-0.3392,-0.2714,-0.2431,-0.175,-0.0539,-0.0135,0.0,0.0,0.0,0.0,0.0,0.0,0.0,0.0,0.0,0.0,0.0,0.0,0.0,0.0,0.0,0.0,0.0,0.0,0.0,0.0,0.0,0.0,0.0,0.0,0.0,0.0,0.0,-0.1063,-0.2776,-0.4965,-0.7018,-0.8925,-1.0019,-1.1417,-1.2501,-1.2501,-1.2501,-1.2501,-1.2501,-1.2501,-1.2501,-1.2501,-1.2739,-1.2963,-1.2963,-1.3193,-1.3403,-1.3403,-1.3403,-1.3403,-1.3403,-1.3403,-1.3403,-1.3403,-1.3403,-1.3403,-1.3403,-1.3403,-1.3403,-1.3403,-1.3403,-1.3403,-1.3403,-1.3403,-1.3526,-1.381,-1.4122,-1.4299,-1.4299,-1.4143,-1.4136,-1.4299,-1.4299,-1.4299,-1.4299,-1.4299,-1.4299,-1.4299,-1.4299,-1.4299,0.0,0.0,0.0,0.0,0.0,0.0,0.0,0.0,0.0,0.0,0.0,-0.8995,-0.8984,-0.9915,-1.0765,-1.0887,-1.0772,-1.0812,-1.0926,-1.0846,-1.0637,-1.0637,-1.0264,-0.9256,-0.7769,-0.6443,-0.4973,-0.3761,-0.2825,-0.2154,-0.1346,-0.0673,-0.0269,-0.0,0.0,0.0,0.0,0.0,0.0,0.0,0.0,0.0,0.0,0.0,0.0,0.0,0.0,0.0,0.0,0.0,0.0,0.0,0.0,0.0,0.0,0.0,0.0,0.0,0.0,-0.1056,-0.2767,-0.5394,-0.7297,-0.8769,-0.9708,-1.1107,-1.2347,-1.2501,-1.2501,-1.2501,-1.2501,-1.2501,-1.2501,-1.2501,-1.2725,-1.2935,-1.2935,-1.318,-1.3403,-1.3403,-1.3403,-1.3403,-1.3403,-1.3403,-1.3403,-1.3403,-1.3403,-1.3403,-1.3403,-1.3403,-1.3403,-1.3403,-1.3403,-1.3403,-1.3403,-1.3498,-1.377,-1.4272,-1.4299,-1.4299,-1.4299,-1.4299,-1.4299,-1.4299,-1.4299,-1.4299,-1.4299,-1.4299,-1.4299,-1.4299,-1.4299,-1.4299,0.0,0.0,0.0,0.0,0.0,0.0,0.0,0.0,0.0,0.0,-0.7512,-0.8179,-0.8573,-0.9782,-1.0724,-1.0744,-1.0751,-1.0758,-1.0778,-1.0765,-1.0751,-1.0751,-1.0611,-1.006,-0.8573,-0.7107,-0.6042,-0.5372,-0.4168,-0.2959,-0.2151,-0.2019,-0.1346,-0.0,0.0,0.0,0.0,0.0,0.0,0.0,0.0,0.0,0.0,0.0,0.0,0.0,0.0,0.0,0.0,0.0,0.0,0.0,0.0,0.0,0.0,0.0,0.0,0.0,0.0,-0.06,-0.1976,-0.5225,-0.6988,-0.7985,-0.9553,-1.0952,-1.2037,-1.2347,-1.2501,-1.2501,-1.2501,-1.2501,-1.2501,-1.2501,-1.2664,-1.282,-1.282,-1.3125,-1.3403,-1.3403,-1.3403,-1.3403,-1.3403,-1.3403,-1.3403,-1.3403,-1.3403,-1.3403,-1.3403,-1.3403,-1.3403,-1.3403,-1.3403,-1.3403,-1.3403,-1.3878,-1.4211,-1.4292,-1.4299,-1.4299,-1.4299,-1.4299,-1.4299,-1.4299,-1.4299,-1.4299,-1.4299,-1.4299,-1.4299,-1.4299,-1.4299,-1.4299,0.0,0.0,0.0,0.0,0.0,0.0,0.0,0.0,0.0,-0.8323,-0.8717,-0.9117,-0.9383,-1.0054,-1.0717,-1.0717,-1.0717,-1.0717,-1.0717,-1.0717,-1.0717,-1.0717,-1.0326,-0.9794,-0.8717,-0.7512,-0.6581,-0.6183,-0.4973,-0.4034,-0.3629,-0.269,-0.1749,-0.0673,-0.0269,0.0,0.0,0.0,0.0,0.0,0.0,0.0,0.0,0.0,0.0,0.0,0.0,0.0,0.0,0.0,0.0,0.0,0.0,0.0,0.0,0.0,0.0,0.0,0.0,-0.0593,-0.1652,-0.4103,-0.6145,-0.7757,-0.9216,-1.0635,-1.2037,-1.2347,-1.2501,-1.2501,-1.2501,-1.2501,-1.2501,-1.2501,-1.2657,-1.282,-1.2881,-1.3159,-1.3403,-1.3403,-1.3403,-1.3403,-1.3403,-1.3403,-1.3403,-1.3403,-1.3403,-1.3403,-1.3403,-1.3403,-1.3403,-1.3403,-1.3403,-1.3403,-1.3403,-1.3953,-1.4299,-1.4299,-1.4299,-1.4299,-1.4299,-1.4299,-1.4299,-1.4299,-1.4299,-1.4299,-1.4299,-1.4299,-1.4299,-1.4299,-1.4299,-1.4299,0.0,0.0,0.0,0.0,0.0,0.0,0.0,0.0,-0.869,0.0,-0.9794,-1.0187,-1.0187,-1.0452,-1.0717,-1.0717,-1.0717,-1.0717,-1.0717,-1.0717,-1.0717,-1.0717,-1.0193,-0.9528,-0.8723,-0.765,-0.6987,-0.6585,-0.5513,-0.4973,-0.4839,-0.3495,-0.2287,-0.1077,-0.0404,0.0,0.0,0.0,0.0,0.0,0.0,0.0,0.0,0.0,0.0,0.0,0.0,0.0,0.0,0.0,0.0,0.0,0.0,0.0,0.0,0.0,0.0,0.0,0.0,-0.0442,-0.1192,-0.2859,-0.488,-0.6965,-0.874,-1.048,-1.1882,-1.2347,-1.2501,-1.2501,-1.2501,-1.2501,-1.2501,-1.2501,-1.2617,-1.2786,-1.3024,-1.3247,-1.3403,-1.3403,-1.3403,-1.3403,-1.3403,-1.3403,-1.3403,-1.3403,-1.3403,-1.3403,-1.3403,-1.3403,-1.3403,-1.3403,-1.3403,-1.3464,-1.3614,-1.4041,-1.4299,-1.4299,-1.4299,-1.4299,-1.4299,-1.4299,-1.4299,-1.4299,-1.4299,-1.4299,-1.4299,-1.4299,-1.4299,-1.4299,-1.4299,-1.4299,0.0,0.0,0.0,0.0,0.0,0.0,0.0,0.0,0.0,-0.9896,-1.0319,-1.0717,-1.0717,-1.0717,-1.0717,-1.0717,-1.0717,-1.0717,-1.0717,-1.0717,-1.0717,-1.0717,-1.0459,-0.9788,-0.8723,-0.7917,-0.725,-0.6589,-0.5781,-0.5245,-0.4839,-0.444,-0.323,-0.1212,-0.0404,0.0,0.0,0.0,0.0,0.0,0.0,0.0,0.0,0.0,0.0,0.0,0.0,0.0,0.0,0.0,0.0,0.0,0.0,0.0,0.0,0.0,0.0,0.0,0.0,-0.0,-0.0299,-0.1945,-0.3057,-0.4547,-0.7838,-1.0019,-1.1417,-1.2347,-1.2501,-1.2501,-1.2501,-1.2501,-1.2501,-1.2501,-1.2508,-1.2678,-1.3254,-1.339,-1.3403,-1.3403,-1.3403,-1.3403,-1.3403,-1.3403,-1.3403,-1.3403,-1.3403,-1.3403,-1.3403,-1.3403,-1.3403,-1.3403,-1.3403,-1.3634,-1.4204,-1.4285,-1.4299,-1.4299,-1.4299,-1.4299,-1.4299,-1.4299,-1.4299,-1.4299,-1.4299,-1.4299,-1.4299,-1.4299,-1.4299,-1.4299,-1.4299,-1.4299,0.0,0.0,0.0,0.0,0.0,0.0,0.0,-0.9099,-0.9619,-0.9888,-1.0386,-1.0717,-1.0717,-1.0717,-1.0717,-1.0717,-1.0717,-1.0717,-1.0717,-1.0717,-1.0717,-1.0717,-1.0193,-0.9522,-0.8451,-0.7379,-0.6577,-0.618,-0.5379,-0.5111,-0.5245,-0.5114,-0.4039,-0.1885,-0.0673,0.0,0.0,0.0,0.0,0.0,0.0,0.0,0.0,0.0,0.0,0.0,0.0,0.0,0.0,0.0,0.0,0.0,0.0,0.0,0.0,0.0,0.0,0.0,0.0,0.0,-0.0148,-0.0596,-0.1815,-0.3385,-0.64,-0.8769,-1.0796,-1.2192,-1.2501,-1.2501,-1.2501,-1.2501,-1.2501,-1.2501,-1.2501,-1.2351,-1.1788,-1.2567,-1.3403,-1.3403,-1.3403,-1.3403,-1.3403,-1.3403,-1.3403,-1.3403,-1.3403,-1.3403,-1.3403,-1.3403,-1.3403,-1.3403,-1.3403,-1.3641,-1.4251,-1.4299,-1.4299,-1.4299,-1.4299,-1.4299,-1.4299,-1.4299,-1.4299,-1.4299,-1.4299,-1.4299,-1.4299,-1.4299,-1.4299,-1.4299,-1.4299,-1.4299,0.0,0.0,0.0,0.0,0.0,0.0,-0.8401,0.0,-0.9594,-0.9836,-1.0303,-1.0588,-1.0636,-1.0683,-1.0717,-1.0717,-1.0717,-1.0717,-1.0717,-1.0717,-1.0717,-1.0717,-1.006,-0.9256,-0.8179,-0.6978,-0.6042,-0.551,-0.4839,0.0,-0.4842,-0.5252,-0.4174,-0.1481,-0.0539,0.0,0.0,0.0,0.0,0.0,0.0,0.0,0.0,0.0,0.0,0.0,0.0,0.0,0.0,0.0,0.0,0.0,0.0,0.0,0.0,0.0,0.0,0.0,0.0,0.0,0.0,0.0,-0.1054,-0.2922,-0.5153,-0.7833,-1.033,-1.2037,-1.2037,-1.1727,-1.1727,-1.1727,-1.1572,-1.0946,-1.1396,-1.1629,-1.0832,-1.2069,-1.3403,-1.3403,-1.3403,-1.3403,-1.3403,-1.3403,-1.3403,-1.3403,-1.3403,-1.3403,-1.3403,-1.3403,-1.3403,-1.3403,-1.3403,-1.3641,-1.4251,-1.4299,-1.4299,-1.4299,-1.4299,-1.4299,-1.4299,-1.4299,-1.4299,-1.4299,-1.4299,-1.4299,-1.4299,-1.4299,-1.4299,-1.4299,-1.4299,-1.4299,0.0,0.0,0.0,0.0,0.0,0.0,-0.818,0.0,-0.9266,-0.9707,-1.0053,-1.0317,-1.0453,-1.0602,-1.0711,-1.0711,-1.0717,-1.0717,-1.0724,-1.0717,-1.0717,-1.0717,-1.006,-0.9256,-0.8179,-0.6711,-0.5644,-0.4839,-0.4171,-0.3768,-0.3768,-0.4714,-0.3636,-0.0135,0.0,0.0,0.0,0.0,0.0,0.0,0.0,0.0,0.0,0.0,0.0,0.0,0.0,0.0,0.0,0.0,0.0,0.0,0.0,0.0,0.0,0.0,0.0,0.0,0.0,0.0,0.0,0.0,-0.1057,-0.2671,-0.4395,-0.7209,-1.0175,-1.1882,-1.1262,-0.9864,-0.9864,-0.9864,-0.9553,-0.7838,-0.9083,-1.0554,-1.0732,-1.2069,-1.3403,-1.3403,-1.3403,-1.3403,-1.3403,-1.3403,-1.3403,-1.3403,-1.3403,-1.3403,-1.3403,-1.3403,-1.3403,-1.3403,-1.3403,-1.3634,-1.4224,-1.4292,-1.4299,-1.4299,-1.4299,-1.4299,-1.4299,-1.4299,-1.4299,-1.4299,-1.4299,-1.4299,-1.4299,-1.4299,-1.4299,-1.4299,-1.4299,-1.4299,-0.5338,0.0,0.0,0.0,0.0,0.0,0.0,0.0,-0.8927,-0.9266,-0.9754,-1.0127,-1.0161,-1.0297,-1.027,-1.0134,-1.0182,-1.0193,-1.006,-1.0193,-1.0326,-1.0326,-1.0193,-0.9522,-0.8179,-0.6978,-0.5778,0.0,-0.3768,-0.3362,-0.3362,-0.323,-0.2154,-0.0,0.0,0.0,0.0,0.0,0.0,0.0,0.0,0.0,0.0,0.0,0.0,0.0,0.0,0.0,0.0,0.0,0.0,0.0,0.0,0.0,0.0,0.0,0.0,0.0,0.0,0.0,0.0,0.0,-0.0302,-0.0942,-0.2669,-0.4706,-0.7053,-0.9858,-0.9553,-0.815,-0.815,-0.815,-0.815,-0.7681,-0.7918,-0.887,-1.033,-1.2069,-1.3403,-1.3403,-1.3403,-1.3403,-1.3403,-1.3403,-1.3403,-1.3403,-1.3403,-1.3403,-1.3403,-1.3403,-1.3403,-1.3403,-1.3403,-1.3471,-1.3634,-1.4048,-1.4299,-1.4299,-1.4299,-1.4299,-1.4299,-1.4299,-1.4299,-1.4299,-1.4299,-1.4299,-1.4299,-1.4299,-1.4299,-1.4299,-1.4299,-1.4299,0.0,0.0,0.0,0.0,0.0,0.0,-0.7115,-0.7706,-0.8235,0.0,-0.9069,-0.953,-0.9652,-0.9856,-0.9915,-0.9532,-0.9557,-0.9707,-0.9557,-0.9889,-1.0193,-1.0193,-1.0193,-0.9788,-0.8579,-0.7245,-0.5908,-0.4574,-0.3633,-0.2961,-0.2827,-0.2423,-0.1481,-0.0,0.0,0.0,0.0,0.0,0.0,0.0,0.0,0.0,0.0,0.0,0.0,0.0,0.0,0.0,0.0,0.0,0.0,0.0,0.0,0.0,0.0,0.0,0.0,0.0,0.0,0.0,0.0,0.0,-0.045,-0.1241,-0.2194,-0.3142,-0.4549,-0.7209,-0.7209,-0.6275,-0.5645,-0.5492,-0.5645,-0.6275,-0.7056,-0.8256,-1.1123,-1.2069,-1.2567,-1.3231,-1.3403,-1.3403,-1.3403,-1.3403,-1.3403,-1.3403,-1.3403,-1.3403,-1.3403,-1.3403,-1.3403,-1.3403,-1.3403,-1.3403,-1.3403,-1.3722,-1.4034,-1.4285,-1.4299,-1.4299,-1.4299,-1.4299,-1.4299,-1.4299,-1.4299,-1.4299,-1.4299,-1.4299,-1.4299,-1.4299,-1.4299,-1.4299,0.0,0.0,0.0,0.0,0.0,0.0,-0.6423,-0.6914,-0.74,0.0,-0.8214,-0.8716,-0.8981,-0.9293,-0.9361,-0.9007,-0.8958,-0.9093,-0.9263,-0.9802,-1.0141,-1.0141,-1.0148,-0.9877,-0.9076,-0.7479,-0.6019,-0.4827,-0.3631,-0.2694,-0.2155,-0.2155,-0.1481,-0.0,0.0,0.0,0.0,0.0,0.0,0.0,0.0,0.0,0.0,0.0,0.0,0.0,0.0,0.0,0.0,0.0,0.0,0.0,0.0,0.0,0.0,0.0,0.0,0.0,0.0,0.0,0.0,0.0,-0.1039,-0.2283,-0.2184,-0.2357,-0.2828,-0.4238,-0.4709,-0.4395,-0.2828,-0.2514,-0.2985,-0.4552,-0.6275,-0.8558,-1.22,-1.1694,-1.0904,-1.2567,-1.2899,-1.3231,-1.3403,-1.3403,-1.3403,-1.3403,-1.3403,-1.3403,-1.3403,-1.3403,-1.3403,-1.3403,-1.3403,-1.3403,-1.3403,-1.3403,-1.3627,-1.4163,-1.4265,-1.4299,-1.4299,-1.4299,-1.4299,-1.4299,-1.4299,-1.4299,-1.4299,-1.4299,-1.4299,-1.4299,-1.4299,-1.4299,0.0,0.0,-0.6284,-0.6203,0.0,0.0,-0.593,-0.6268,-0.6611,0.0,-0.765,-0.8187,-0.8248,-0.8601,-0.8796,-0.8523,-0.8705,-0.8738,-0.8464,-0.9056,-0.946,-0.946,-0.998,-0.9851,-0.8817,-0.7909,-0.6649,-0.4885,-0.321,-0.229,-0.2155,-0.2155,-0.1481,-0.0,0.0,0.0,0.0,0.0,0.0,0.0,0.0,0.0,0.0,0.0,0.0,0.0,0.0,0.0,0.0,0.0,0.0,0.0,0.0,0.0,0.0,0.0,0.0,0.0,0.0,0.0,0.0,0.0,-0.0148,-0.0453,-0.0467,-0.1414,-0.2514,-0.2828,-0.2985,-0.2985,-0.2514,-0.2514,-0.2985,-0.4552,-0.6275,-0.8011,-1.0139,-0.9647,-0.8729,-0.9063,-1.0232,-1.1736,-1.3072,-1.3403,-1.3403,-1.3403,-1.3403,-1.3403,-1.3403,-1.3403,-1.3403,-1.3403,-1.3403,-1.3403,-1.3403,-1.3403,-1.3451,-1.3566,-1.4034,-1.4299,-1.4299,-1.4299,-1.4299,-1.4299,-1.4299,-1.4299,-1.4299,-1.4299,-1.4299,-1.4299,-1.4299,-1.4299,-0.6662,-0.6739,-0.6702,-0.6702,0.0,0.0,0.0,-0.6237,-0.6446,-0.6529,-0.6939,-0.7316,-0.7396,-0.7751,-0.7925,-0.7833,-0.8321,-0.8555,-0.8278,-0.8599,-0.8913,-0.9175,-0.987,-1.0042,-0.9412,-0.8325,-0.6708,-0.4164,-0.2509,-0.1465,-0.1066,-0.1073,-0.0808,-0.0,0.0,0.0,0.0,0.0,0.0,0.0,0.0,0.0,0.0,0.0,0.0,0.0,0.0,0.0,0.0,0.0,0.0,0.0,0.0,0.0,0.0,0.0,0.0,0.0,0.0,0.0,0.0,0.0,0.0,0.0,0.0,-0.0624,-0.1256,-0.1256,-0.1256,-0.1256,-0.1256,-0.1256,-0.1728,-0.3297,-0.5022,-0.674,-0.8462,-0.8304,-0.7848,-0.8027,-0.8729,-1.0232,-1.2899,-1.3403,-1.3403,-1.3403,-1.3403,-1.3403,-1.3403,-1.3403,-1.3403,-1.3403,-1.3403,-1.3403,-1.3403,-1.3403,-1.3403,-1.3403,-1.3682,-1.3851,-1.3851,-1.4143,-1.4299,-1.4299,-1.4299,-1.4299,-1.4299,-1.4299,-1.4299,-1.4299,-1.4299,-1.4299,0.0,0.0,0.0,0.0,0.0,-0.6471,0.0,0.0,0.0,-0.624,-0.6384,0.0,0.0,0.0,0.0,0.0,0.0,0.0,0.0,-0.7903,0.0,-0.8916,-0.9546,-1.0012,-1.0026,-0.8296,-0.6223,-0.369,-0.2071,-0.0784,-0.0,0.0,0.0,0.0,0.0,0.0,0.0,0.0,0.0,0.0,0.0,0.0,0.0,0.0,0.0,0.0,0.0,0.0,0.0,0.0,0.0,0.0,0.0,0.0,0.0,0.0,0.0,0.0,0.0,0.0,0.0,0.0,0.0,0.0,0.0,0.0,0.0,0.0,0.0,0.0,0.0,0.0,-0.0314,-0.1728,-0.3297,-0.5019,-0.6587,-0.7056,-0.7156,-0.7493,-0.7897,-0.923,-1.2733,-1.3403,-1.3403,-1.3403,-1.3403,-1.3403,-1.3403,-1.3403,-1.3403,-1.3403,-1.3403,-1.3403,-1.3403,-1.3403,-1.3403,-1.3403,-1.3403,-1.3403,-1.3403,-1.3871,-1.4183,-1.4299,-1.4299,-1.4299,-1.4299,-1.4299,-1.4299,-1.4299,-1.4299,-1.4299,0.0,0.0,0.0,0.0,-0.6728,0.0,0.0,0.0,-0.6078,-0.6057,0.0,0.0,0.0,0.0,0.0,0.0,0.0,0.0,-0.6677,-0.6651,-0.705,-0.8295,-0.9064,-0.9624,-0.976,-0.7153,-0.5218,-0.4744,-0.2498,-0.0762,-0.0,0.0,0.0,0.0,0.0,0.0,0.0,0.0,0.0,0.0,0.0,0.0,0.0,0.0,0.0,0.0,0.0,0.0,0.0,0.0,0.0,0.0,0.0,0.0,0.0,0.0,0.0,0.0,0.0,0.0,0.0,0.0,0.0,0.0,0.0,0.0,0.0,0.0,0.0,0.0,0.0,0.0,-0.0,-0.0314,-0.157,-0.3299,-0.4865,-0.5335,-0.541,-0.5668,-0.7059,-0.923,-1.2733,-1.3403,-1.3403,-1.3403,-1.3403,-1.3403,-1.3403,-1.3403,-1.3403,-1.3403,-1.3403,-1.3403,-1.3403,-1.3403,-1.3403,-1.3403,-1.3403,-1.3403,-1.3403,-1.3464,-1.3756,-1.4292,-1.4299,-1.4299,-1.4299,-1.4299,-1.4299,-1.4299,-1.4299,-1.4299,0.0,0.0,0.0,0.0,0.0,0.0,-0.6067,0.0,-0.5976,0.0,0.0,0.0,0.0,0.0,0.0,0.0,-0.4885,0.0,0.0,0.0,-0.6034,0.0,0.0,0.0,-0.8238,-0.6492,-0.5062,-0.4338,-0.2609,-0.1097,-0.0,0.0,0.0,0.0,0.0,0.0,0.0,0.0,0.0,0.0,0.0,0.0,0.0,0.0,0.0,0.0,0.0,0.0,0.0,0.0,0.0,0.0,0.0,0.0,0.0,0.0,0.0,0.0,0.0,0.0,0.0,0.0,0.0,0.0,0.0,0.0,0.0,0.0,0.0,0.0,0.0,0.0,0.0,0.0,-0.1256,-0.2985,-0.4709,-0.5802,-0.6469,-0.6598,-0.8246,-1.0398,-1.2899,-1.3403,-1.3403,-1.3403,-1.3403,-1.3403,-1.3403,-1.3403,-1.3403,-1.3403,-1.3403,-1.3403,-1.3403,-1.3403,-1.3403,-1.3403,-1.3403,-1.3403,-1.3403,-1.3403,-1.3519,-1.377,-1.4122,-1.4299,-1.4299,-1.4299,-1.4299,-1.4299,-1.4299,-1.4299,-0.5172,0.0,0.0,0.0,0.0,0.0,0.0,0.0,0.0,0.0,0.0,0.0,0.0,0.0,0.0,0.0,0.0,-0.381,0.0,-0.418,0.0,0.0,0.0,0.0,0.0,-0.5504,-0.4557,-0.3883,-0.2476,-0.1166,-0.0119,0.0,0.0,0.0,0.0,0.0,0.0,0.0,0.0,0.0,0.0,0.0,0.0,0.0,0.0,0.0,0.0,0.0,0.0,0.0,0.0,0.0,0.0,0.0,0.0,0.0,0.0,0.0,0.0,0.0,0.0,0.0,0.0,0.0,0.0,0.0,0.0,0.0,0.0,0.0,0.0,0.0,0.0,0.0,-0.1256,-0.2985,-0.4709,-0.6271,-0.7681,-0.815,-0.9597,-1.1237,-1.3072,-1.3403,-1.3403,-1.3403,-1.3403,-1.3403,-1.3403,-1.3403,-1.3403,-1.3403,-1.3403,-1.3403,-1.3403,-1.3403,-1.3403,-1.3403,-1.3403,-1.3403,-1.3403,-1.3403,-1.3403,-1.3403,-1.3994,-1.4299,-1.4299,-1.4299,-1.4299,-1.4299,-1.4299,-1.4299,0.0,0.0,0.0,-0.6018,0.0,0.0,0.0,0.0,-0.6217,0.0,0.0,0.0,0.0,0.0,0.0,0.0,0.0,0.0,0.0,0.0,0.0,0.0,0.0,0.0,0.0,-0.3937,-0.316,0.0,-0.1934,-0.0667,-0.0,0.0,0.0,0.0,0.0,0.0,0.0,0.0,0.0,0.0,0.0,0.0,0.0,0.0,0.0,0.0,0.0,0.0,0.0,0.0,0.0,0.0,0.0,0.0,0.0,0.0,0.0,0.0,0.0,0.0,0.0,0.0,0.0,0.0,0.0,0.0,0.0,0.0,0.0,0.0,0.0,0.0,0.0,0.0,-0.1256,-0.2985,-0.4709,-0.6271,-0.7994,-0.9553,-1.0411,-1.1237,-1.3072,-1.3403,-1.3403,-1.3403,-1.3403,-1.3403,-1.3403,-1.3403,-1.3403,-1.3403,-1.3403,-1.3403,-1.3403,-1.3403,-1.3403,-1.3403,-1.3403,-1.3403,-1.3403,-1.3403,-1.3403,-1.3403,-1.3994,-1.4299,-1.4299,-1.4299,-1.4299,-1.4299,-1.4299,-1.4299,0.0,0.0,-0.4613,-0.532,0.0,0.0,0.0,0.0,0.0,0.0,0.0,0.0,0.0,0.0,0.0,0.0,0.0,0.0,0.0,0.0,0.0,0.0,0.0,0.0,0.0,0.0,0.0,0.0,-0.1725,0.0,-0.0,0.0,0.0,0.0,0.0,0.0,0.0,0.0,0.0,0.0,0.0,0.0,0.0,0.0,0.0,0.0,0.0,0.0,0.0,0.0,0.0,0.0,0.0,0.0,0.0,0.0,0.0,0.0,0.0,0.0,0.0,0.0,0.0,0.0,0.0,0.0,0.0,0.0,0.0,0.0,0.0,0.0,0.0,0.0,-0.2197,-0.4552,-0.6275,-0.8769,-1.0946,-1.1572,-1.2185,-1.2733,-1.3238,-1.3403,-1.3403,-1.3403,-1.3403,-1.3403,-1.3403,-1.3403,-1.3403,-1.3403,-1.3403,-1.3403,-1.3403,-1.3403,-1.3403,-1.3403,-1.3403,-1.3403,-1.3403,-1.3403,-1.3403,-1.3403,-1.36,-1.3899,-1.4299,-1.4299,-1.4299,-1.4299,-1.4299,-1.4299,-0.1761,-0.2616,0.0,-0.439,-0.4822,0.0,-0.5986,0.0,-0.6143,0.0,0.0,0.0,0.0,0.0,0.0,0.0,0.0,0.0,0.0,-0.3103,0.0,0.0,0.0,0.0,0.0,0.0,-0.3135,-0.2693,-0.1643,0.0,0.0,0.0,0.0,0.0,0.0,0.0,0.0,0.0,0.0,0.0,0.0,0.0,0.0,0.0,0.0,0.0,0.0,0.0,0.0,0.0,0.0,0.0,0.0,0.0,0.0,0.0,0.0,0.0,0.0,0.0,0.0,0.0,0.0,0.0,0.0,0.0,0.0,0.0,0.0,0.0,0.0,0.0,0.0,0.0,-0.2511,-0.5489,-0.7213,-1.0169,-1.2501,-1.2501,-1.2813,-1.3146,-1.3363,-1.3403,-1.3231,-1.2567,-1.2401,-1.2401,-1.2401,-1.3065,-1.3403,-1.3403,-1.3403,-1.3403,-1.3403,-1.3403,-1.3403,-1.3403,-1.3403,-1.3403,-1.3403,-1.3403,-1.3403,-1.3403,-1.3403,-1.3593,-1.398,-1.398,-1.4089,-1.4299,-1.4299,-1.4299]}]]